<?xml version="1.0" encoding="UTF-8" standalone="no" ?>
<gpx xmlns="http://www.topografix.com/GPX/1/1" xmlns:xsi="http://www.w3.org/2001/XMLSchema-instance" xsi:schemaLocation="http://www.topografix.com/GPX/1/1 http://www.topografix.com/GPX/1/1/gpx.xsd" version="1.1" creator="VisuGPX - https://www.visugpx.com">
  <metadata>
    <name>VTT dommartin eveux lentilly</name>
    <desc><![CDATA[tres roulant, beaucoup dr petites route. idéal quand tt est boueux]]></desc>
  </metadata>
  <trk>
    <name><![CDATA[25-JAN-14 17:35:22]]></name>
    <trkseg>
      <trkpt lat="45.8473" lon="4.7262">
        <ele>255.85</ele>
        <time>2014-01-25T13:04:04Z</time>
      </trkpt>
      <trkpt lat="45.84728" lon="4.72615">
        <ele>255.37</ele>
        <time>2014-01-25T13:04:05Z</time>
      </trkpt>
      <trkpt lat="45.84727" lon="4.72611">
        <ele>258.73</ele>
        <time>2014-01-25T13:04:09Z</time>
      </trkpt>
      <trkpt lat="45.84729" lon="4.72615">
        <ele>261.62</ele>
        <time>2014-01-25T13:04:13Z</time>
      </trkpt>
      <trkpt lat="45.84729" lon="4.72615">
        <ele>263.54</ele>
        <time>2014-01-25T13:04:16Z</time>
      </trkpt>
      <trkpt lat="45.84728" lon="4.72614">
        <ele>264.98</ele>
        <time>2014-01-25T13:04:19Z</time>
      </trkpt>
      <trkpt lat="45.84727" lon="4.72613">
        <ele>266.42</ele>
        <time>2014-01-25T13:04:21Z</time>
      </trkpt>
      <trkpt lat="45.84727" lon="4.72612">
        <ele>267.38</ele>
        <time>2014-01-25T13:04:23Z</time>
      </trkpt>
      <trkpt lat="45.84727" lon="4.7261">
        <ele>270.75</ele>
        <time>2014-01-25T13:04:31Z</time>
      </trkpt>
      <trkpt lat="45.84727" lon="4.72605">
        <ele>274.59</ele>
        <time>2014-01-25T13:04:40Z</time>
      </trkpt>
      <trkpt lat="45.84727" lon="4.72605">
        <ele>276.04</ele>
        <time>2014-01-25T13:04:44Z</time>
      </trkpt>
      <trkpt lat="45.84725" lon="4.72601">
        <ele>278.92</ele>
        <time>2014-01-25T13:05:05Z</time>
      </trkpt>
      <trkpt lat="45.84726" lon="4.72599">
        <ele>280.36</ele>
        <time>2014-01-25T13:05:28Z</time>
      </trkpt>
      <trkpt lat="45.84726" lon="4.726">
        <ele>281.32</ele>
        <time>2014-01-25T13:05:51Z</time>
      </trkpt>
      <trkpt lat="45.84726" lon="4.726">
        <ele>288.05</ele>
        <time>2014-01-25T13:05:53Z</time>
      </trkpt>
      <trkpt lat="45.84726" lon="4.726">
        <ele>282.77</ele>
        <time>2014-01-25T13:05:54Z</time>
      </trkpt>
      <trkpt lat="45.84726" lon="4.726">
        <ele>276.52</ele>
        <time>2014-01-25T13:05:55Z</time>
      </trkpt>
      <trkpt lat="45.84726" lon="4.726">
        <ele>281.32</ele>
        <time>2014-01-25T13:05:56Z</time>
      </trkpt>
      <trkpt lat="45.84725" lon="4.72598">
        <ele>280.36</ele>
        <time>2014-01-25T13:06:05Z</time>
      </trkpt>
      <trkpt lat="45.84725" lon="4.72598">
        <ele>278.92</ele>
        <time>2014-01-25T13:06:14Z</time>
      </trkpt>
      <trkpt lat="45.84725" lon="4.72598">
        <ele>278.92</ele>
        <time>2014-01-25T13:06:21Z</time>
      </trkpt>
      <trkpt lat="45.84716" lon="4.72585">
        <ele>275.56</ele>
        <time>2014-01-25T13:06:26Z</time>
      </trkpt>
      <trkpt lat="45.84711" lon="4.7257">
        <ele>272.67</ele>
        <time>2014-01-25T13:06:30Z</time>
      </trkpt>
      <trkpt lat="45.84699" lon="4.72544">
        <ele>270.27</ele>
        <time>2014-01-25T13:06:37Z</time>
      </trkpt>
      <trkpt lat="45.84695" lon="4.72542">
        <ele>270.27</ele>
        <time>2014-01-25T13:06:38Z</time>
      </trkpt>
      <trkpt lat="45.84691" lon="4.72542">
        <ele>269.31</ele>
        <time>2014-01-25T13:06:39Z</time>
      </trkpt>
      <trkpt lat="45.84679" lon="4.72542">
        <ele>267.86</ele>
        <time>2014-01-25T13:06:41Z</time>
      </trkpt>
      <trkpt lat="45.84654" lon="4.72541">
        <ele>265.46</ele>
        <time>2014-01-25T13:06:45Z</time>
      </trkpt>
      <trkpt lat="45.84648" lon="4.72541">
        <ele>264.5</ele>
        <time>2014-01-25T13:06:46Z</time>
      </trkpt>
      <trkpt lat="45.84622" lon="4.72539">
        <ele>262.1</ele>
        <time>2014-01-25T13:06:50Z</time>
      </trkpt>
      <trkpt lat="45.84617" lon="4.72537">
        <ele>261.14</ele>
        <time>2014-01-25T13:06:51Z</time>
      </trkpt>
      <trkpt lat="45.84614" lon="4.72533">
        <ele>260.65</ele>
        <time>2014-01-25T13:06:52Z</time>
      </trkpt>
      <trkpt lat="45.84612" lon="4.72527">
        <ele>260.65</ele>
        <time>2014-01-25T13:06:53Z</time>
      </trkpt>
      <trkpt lat="45.84611" lon="4.72521">
        <ele>261.14</ele>
        <time>2014-01-25T13:06:54Z</time>
      </trkpt>
      <trkpt lat="45.84611" lon="4.72516">
        <ele>261.62</ele>
        <time>2014-01-25T13:06:55Z</time>
      </trkpt>
      <trkpt lat="45.84612" lon="4.72511">
        <ele>262.1</ele>
        <time>2014-01-25T13:06:56Z</time>
      </trkpt>
      <trkpt lat="45.84609" lon="4.72484">
        <ele>264.02</ele>
        <time>2014-01-25T13:07:05Z</time>
      </trkpt>
      <trkpt lat="45.84605" lon="4.72478">
        <ele>263.54</ele>
        <time>2014-01-25T13:07:12Z</time>
      </trkpt>
      <trkpt lat="45.84603" lon="4.72476">
        <ele>263.54</ele>
        <time>2014-01-25T13:07:23Z</time>
      </trkpt>
      <trkpt lat="45.84603" lon="4.72476">
        <ele>263.54</ele>
        <time>2014-01-25T13:07:34Z</time>
      </trkpt>
      <trkpt lat="45.84602" lon="4.72476">
        <ele>263.06</ele>
        <time>2014-01-25T13:07:45Z</time>
      </trkpt>
      <trkpt lat="45.84602" lon="4.72474">
        <ele>262.58</ele>
        <time>2014-01-25T13:07:52Z</time>
      </trkpt>
      <trkpt lat="45.84601" lon="4.72473">
        <ele>262.58</ele>
        <time>2014-01-25T13:07:53Z</time>
      </trkpt>
      <trkpt lat="45.846" lon="4.72471">
        <ele>262.58</ele>
        <time>2014-01-25T13:07:54Z</time>
      </trkpt>
      <trkpt lat="45.84599" lon="4.7247">
        <ele>263.06</ele>
        <time>2014-01-25T13:07:55Z</time>
      </trkpt>
      <trkpt lat="45.84597" lon="4.72468">
        <ele>262.58</ele>
        <time>2014-01-25T13:07:56Z</time>
      </trkpt>
      <trkpt lat="45.84572" lon="4.72441">
        <ele>259.69</ele>
        <time>2014-01-25T13:08:05Z</time>
      </trkpt>
      <trkpt lat="45.84569" lon="4.72438">
        <ele>259.21</ele>
        <time>2014-01-25T13:08:06Z</time>
      </trkpt>
      <trkpt lat="45.84559" lon="4.72434">
        <ele>258.25</ele>
        <time>2014-01-25T13:08:09Z</time>
      </trkpt>
      <trkpt lat="45.84556" lon="4.72435">
        <ele>258.25</ele>
        <time>2014-01-25T13:08:10Z</time>
      </trkpt>
      <trkpt lat="45.84549" lon="4.72437">
        <ele>257.29</ele>
        <time>2014-01-25T13:08:12Z</time>
      </trkpt>
      <trkpt lat="45.84546" lon="4.72435">
        <ele>257.29</ele>
        <time>2014-01-25T13:08:13Z</time>
      </trkpt>
      <trkpt lat="45.84528" lon="4.72414">
        <ele>255.37</ele>
        <time>2014-01-25T13:08:23Z</time>
      </trkpt>
      <trkpt lat="45.84526" lon="4.72411">
        <ele>254.89</ele>
        <time>2014-01-25T13:08:25Z</time>
      </trkpt>
      <trkpt lat="45.84522" lon="4.72407">
        <ele>254.41</ele>
        <time>2014-01-25T13:08:30Z</time>
      </trkpt>
      <trkpt lat="45.84523" lon="4.72402">
        <ele>253.93</ele>
        <time>2014-01-25T13:08:34Z</time>
      </trkpt>
      <trkpt lat="45.8453" lon="4.72398">
        <ele>255.37</ele>
        <time>2014-01-25T13:08:38Z</time>
      </trkpt>
      <trkpt lat="45.84532" lon="4.72396">
        <ele>254.41</ele>
        <time>2014-01-25T13:08:39Z</time>
      </trkpt>
      <trkpt lat="45.84533" lon="4.72394">
        <ele>254.89</ele>
        <time>2014-01-25T13:08:40Z</time>
      </trkpt>
      <trkpt lat="45.84535" lon="4.72393">
        <ele>255.37</ele>
        <time>2014-01-25T13:08:41Z</time>
      </trkpt>
      <trkpt lat="45.84537" lon="4.72391">
        <ele>255.37</ele>
        <time>2014-01-25T13:08:42Z</time>
      </trkpt>
      <trkpt lat="45.84539" lon="4.72389">
        <ele>255.37</ele>
        <time>2014-01-25T13:08:43Z</time>
      </trkpt>
      <trkpt lat="45.84541" lon="4.72387">
        <ele>255.85</ele>
        <time>2014-01-25T13:08:44Z</time>
      </trkpt>
      <trkpt lat="45.84543" lon="4.72385">
        <ele>255.85</ele>
        <time>2014-01-25T13:08:45Z</time>
      </trkpt>
      <trkpt lat="45.84545" lon="4.72383">
        <ele>255.85</ele>
        <time>2014-01-25T13:08:46Z</time>
      </trkpt>
      <trkpt lat="45.84547" lon="4.72381">
        <ele>256.33</ele>
        <time>2014-01-25T13:08:47Z</time>
      </trkpt>
      <trkpt lat="45.84563" lon="4.72361">
        <ele>258.25</ele>
        <time>2014-01-25T13:08:57Z</time>
      </trkpt>
      <trkpt lat="45.84581" lon="4.72341">
        <ele>260.65</ele>
        <time>2014-01-25T13:09:08Z</time>
      </trkpt>
      <trkpt lat="45.84604" lon="4.72328">
        <ele>263.06</ele>
        <time>2014-01-25T13:09:20Z</time>
      </trkpt>
      <trkpt lat="45.84627" lon="4.72324">
        <ele>265.46</ele>
        <time>2014-01-25T13:09:31Z</time>
      </trkpt>
      <trkpt lat="45.8465" lon="4.72321">
        <ele>267.86</ele>
        <time>2014-01-25T13:09:43Z</time>
      </trkpt>
      <trkpt lat="45.84671" lon="4.72319">
        <ele>269.31</ele>
        <time>2014-01-25T13:09:54Z</time>
      </trkpt>
      <trkpt lat="45.84693" lon="4.72313">
        <ele>271.23</ele>
        <time>2014-01-25T13:10:05Z</time>
      </trkpt>
      <trkpt lat="45.84713" lon="4.72316">
        <ele>271.23</ele>
        <time>2014-01-25T13:10:16Z</time>
      </trkpt>
      <trkpt lat="45.84715" lon="4.72316">
        <ele>271.71</ele>
        <time>2014-01-25T13:10:17Z</time>
      </trkpt>
      <trkpt lat="45.84717" lon="4.72317">
        <ele>271.71</ele>
        <time>2014-01-25T13:10:18Z</time>
      </trkpt>
      <trkpt lat="45.8474" lon="4.72318">
        <ele>272.19</ele>
        <time>2014-01-25T13:10:28Z</time>
      </trkpt>
      <trkpt lat="45.84769" lon="4.72312">
        <ele>273.63</ele>
        <time>2014-01-25T13:10:40Z</time>
      </trkpt>
      <trkpt lat="45.84788" lon="4.72299">
        <ele>274.11</ele>
        <time>2014-01-25T13:10:49Z</time>
      </trkpt>
      <trkpt lat="45.84807" lon="4.72266">
        <ele>276.04</ele>
        <time>2014-01-25T13:11:01Z</time>
      </trkpt>
      <trkpt lat="45.84827" lon="4.72249">
        <ele>276.52</ele>
        <time>2014-01-25T13:11:11Z</time>
      </trkpt>
      <trkpt lat="45.84859" lon="4.72232">
        <ele>276.52</ele>
        <time>2014-01-25T13:11:24Z</time>
      </trkpt>
      <trkpt lat="45.84889" lon="4.72209">
        <ele>275.56</ele>
        <time>2014-01-25T13:11:34Z</time>
      </trkpt>
      <trkpt lat="45.84927" lon="4.72206">
        <ele>274.11</ele>
        <time>2014-01-25T13:11:44Z</time>
      </trkpt>
      <trkpt lat="45.84977" lon="4.72218">
        <ele>274.11</ele>
        <time>2014-01-25T13:11:57Z</time>
      </trkpt>
      <trkpt lat="45.85006" lon="4.72222">
        <ele>273.63</ele>
        <time>2014-01-25T13:12:05Z</time>
      </trkpt>
      <trkpt lat="45.85042" lon="4.72224">
        <ele>273.63</ele>
        <time>2014-01-25T13:12:15Z</time>
      </trkpt>
      <trkpt lat="45.85049" lon="4.72225">
        <ele>273.63</ele>
        <time>2014-01-25T13:12:17Z</time>
      </trkpt>
      <trkpt lat="45.85053" lon="4.72225">
        <ele>273.15</ele>
        <time>2014-01-25T13:12:18Z</time>
      </trkpt>
      <trkpt lat="45.85082" lon="4.72226">
        <ele>273.15</ele>
        <time>2014-01-25T13:12:26Z</time>
      </trkpt>
      <trkpt lat="45.85109" lon="4.72229">
        <ele>273.63</ele>
        <time>2014-01-25T13:12:34Z</time>
      </trkpt>
      <trkpt lat="45.85142" lon="4.72237">
        <ele>274.11</ele>
        <time>2014-01-25T13:12:44Z</time>
      </trkpt>
      <trkpt lat="45.85161" lon="4.72258">
        <ele>275.56</ele>
        <time>2014-01-25T13:12:52Z</time>
      </trkpt>
      <trkpt lat="45.85183" lon="4.72283">
        <ele>276.52</ele>
        <time>2014-01-25T13:13:02Z</time>
      </trkpt>
      <trkpt lat="45.85207" lon="4.72295">
        <ele>277</ele>
        <time>2014-01-25T13:13:11Z</time>
      </trkpt>
      <trkpt lat="45.85247" lon="4.72304">
        <ele>275.56</ele>
        <time>2014-01-25T13:13:21Z</time>
      </trkpt>
      <trkpt lat="45.85262" lon="4.72305">
        <ele>274.59</ele>
        <time>2014-01-25T13:13:25Z</time>
      </trkpt>
      <trkpt lat="45.85266" lon="4.72304">
        <ele>274.59</ele>
        <time>2014-01-25T13:13:26Z</time>
      </trkpt>
      <trkpt lat="45.85274" lon="4.72299">
        <ele>274.11</ele>
        <time>2014-01-25T13:13:28Z</time>
      </trkpt>
      <trkpt lat="45.85278" lon="4.72296">
        <ele>274.59</ele>
        <time>2014-01-25T13:13:29Z</time>
      </trkpt>
      <trkpt lat="45.85281" lon="4.72291">
        <ele>274.11</ele>
        <time>2014-01-25T13:13:30Z</time>
      </trkpt>
      <trkpt lat="45.85284" lon="4.72286">
        <ele>273.63</ele>
        <time>2014-01-25T13:13:31Z</time>
      </trkpt>
      <trkpt lat="45.85287" lon="4.7228">
        <ele>273.63</ele>
        <time>2014-01-25T13:13:32Z</time>
      </trkpt>
      <trkpt lat="45.85289" lon="4.72274">
        <ele>272.67</ele>
        <time>2014-01-25T13:13:33Z</time>
      </trkpt>
      <trkpt lat="45.85297" lon="4.72256">
        <ele>271.71</ele>
        <time>2014-01-25T13:13:36Z</time>
      </trkpt>
      <trkpt lat="45.853" lon="4.72251">
        <ele>271.23</ele>
        <time>2014-01-25T13:13:37Z</time>
      </trkpt>
      <trkpt lat="45.85304" lon="4.72246">
        <ele>270.75</ele>
        <time>2014-01-25T13:13:38Z</time>
      </trkpt>
      <trkpt lat="45.85308" lon="4.72243">
        <ele>270.27</ele>
        <time>2014-01-25T13:13:39Z</time>
      </trkpt>
      <trkpt lat="45.85314" lon="4.72241">
        <ele>270.27</ele>
        <time>2014-01-25T13:13:40Z</time>
      </trkpt>
      <trkpt lat="45.85319" lon="4.7224">
        <ele>270.27</ele>
        <time>2014-01-25T13:13:41Z</time>
      </trkpt>
      <trkpt lat="45.85347" lon="4.7224">
        <ele>268.35</ele>
        <time>2014-01-25T13:13:46Z</time>
      </trkpt>
      <trkpt lat="45.85417" lon="4.72259">
        <ele>264.98</ele>
        <time>2014-01-25T13:13:58Z</time>
      </trkpt>
      <trkpt lat="45.85443" lon="4.72264">
        <ele>264.98</ele>
        <time>2014-01-25T13:14:03Z</time>
      </trkpt>
      <trkpt lat="45.85468" lon="4.7226">
        <ele>266.42</ele>
        <time>2014-01-25T13:14:08Z</time>
      </trkpt>
      <trkpt lat="45.85506" lon="4.72258">
        <ele>268.35</ele>
        <time>2014-01-25T13:14:18Z</time>
      </trkpt>
      <trkpt lat="45.85551" lon="4.7225">
        <ele>268.83</ele>
        <time>2014-01-25T13:14:31Z</time>
      </trkpt>
      <trkpt lat="45.85592" lon="4.72235">
        <ele>269.79</ele>
        <time>2014-01-25T13:14:43Z</time>
      </trkpt>
      <trkpt lat="45.85624" lon="4.72219">
        <ele>270.75</ele>
        <time>2014-01-25T13:14:53Z</time>
      </trkpt>
      <trkpt lat="45.85664" lon="4.7219">
        <ele>270.75</ele>
        <time>2014-01-25T13:15:05Z</time>
      </trkpt>
      <trkpt lat="45.85694" lon="4.72175">
        <ele>270.75</ele>
        <time>2014-01-25T13:15:14Z</time>
      </trkpt>
      <trkpt lat="45.85698" lon="4.72173">
        <ele>271.23</ele>
        <time>2014-01-25T13:15:15Z</time>
      </trkpt>
      <trkpt lat="45.85754" lon="4.72161">
        <ele>271.71</ele>
        <time>2014-01-25T13:15:29Z</time>
      </trkpt>
      <trkpt lat="45.85791" lon="4.72164">
        <ele>273.63</ele>
        <time>2014-01-25T13:15:41Z</time>
      </trkpt>
      <trkpt lat="45.85803" lon="4.72154">
        <ele>272.19</ele>
        <time>2014-01-25T13:15:48Z</time>
      </trkpt>
      <trkpt lat="45.85805" lon="4.72148">
        <ele>270.75</ele>
        <time>2014-01-25T13:15:56Z</time>
      </trkpt>
      <trkpt lat="45.85806" lon="4.72148">
        <ele>271.23</ele>
        <time>2014-01-25T13:16:12Z</time>
      </trkpt>
      <trkpt lat="45.85806" lon="4.72148">
        <ele>271.23</ele>
        <time>2014-01-25T13:16:39Z</time>
      </trkpt>
      <trkpt lat="45.85806" lon="4.72148">
        <ele>271.23</ele>
        <time>2014-01-25T13:17:05Z</time>
      </trkpt>
      <trkpt lat="45.85805" lon="4.72148">
        <ele>270.75</ele>
        <time>2014-01-25T13:17:32Z</time>
      </trkpt>
      <trkpt lat="45.85803" lon="4.72146">
        <ele>270.75</ele>
        <time>2014-01-25T13:17:40Z</time>
      </trkpt>
      <trkpt lat="45.85804" lon="4.72141">
        <ele>270.27</ele>
        <time>2014-01-25T13:18:00Z</time>
      </trkpt>
      <trkpt lat="45.85813" lon="4.72099">
        <ele>267.38</ele>
        <time>2014-01-25T13:18:08Z</time>
      </trkpt>
      <trkpt lat="45.85822" lon="4.7206">
        <ele>264.98</ele>
        <time>2014-01-25T13:18:13Z</time>
      </trkpt>
      <trkpt lat="45.85831" lon="4.72019">
        <ele>261.62</ele>
        <time>2014-01-25T13:18:19Z</time>
      </trkpt>
      <trkpt lat="45.85838" lon="4.71987">
        <ele>257.77</ele>
        <time>2014-01-25T13:18:23Z</time>
      </trkpt>
      <trkpt lat="45.85844" lon="4.71965">
        <ele>254.41</ele>
        <time>2014-01-25T13:18:26Z</time>
      </trkpt>
      <trkpt lat="45.85846" lon="4.71957">
        <ele>253.93</ele>
        <time>2014-01-25T13:18:27Z</time>
      </trkpt>
      <trkpt lat="45.85849" lon="4.71939">
        <ele>251.52</ele>
        <time>2014-01-25T13:18:29Z</time>
      </trkpt>
      <trkpt lat="45.85849" lon="4.71929">
        <ele>250.56</ele>
        <time>2014-01-25T13:18:30Z</time>
      </trkpt>
      <trkpt lat="45.85849" lon="4.71906">
        <ele>247.2</ele>
        <time>2014-01-25T13:18:32Z</time>
      </trkpt>
      <trkpt lat="45.85847" lon="4.71884">
        <ele>244.31</ele>
        <time>2014-01-25T13:18:34Z</time>
      </trkpt>
      <trkpt lat="45.85848" lon="4.71875">
        <ele>243.35</ele>
        <time>2014-01-25T13:18:35Z</time>
      </trkpt>
      <trkpt lat="45.85851" lon="4.71866">
        <ele>242.39</ele>
        <time>2014-01-25T13:18:36Z</time>
      </trkpt>
      <trkpt lat="45.85857" lon="4.71859">
        <ele>241.91</ele>
        <time>2014-01-25T13:18:37Z</time>
      </trkpt>
      <trkpt lat="45.85864" lon="4.71855">
        <ele>239.51</ele>
        <time>2014-01-25T13:18:38Z</time>
      </trkpt>
      <trkpt lat="45.85872" lon="4.71856">
        <ele>239.02</ele>
        <time>2014-01-25T13:18:39Z</time>
      </trkpt>
      <trkpt lat="45.85879" lon="4.71859">
        <ele>238.06</ele>
        <time>2014-01-25T13:18:40Z</time>
      </trkpt>
      <trkpt lat="45.85885" lon="4.7186">
        <ele>237.58</ele>
        <time>2014-01-25T13:18:41Z</time>
      </trkpt>
      <trkpt lat="45.85891" lon="4.71859">
        <ele>236.62</ele>
        <time>2014-01-25T13:18:42Z</time>
      </trkpt>
      <trkpt lat="45.85895" lon="4.71855">
        <ele>236.14</ele>
        <time>2014-01-25T13:18:43Z</time>
      </trkpt>
      <trkpt lat="45.85899" lon="4.71849">
        <ele>235.66</ele>
        <time>2014-01-25T13:18:44Z</time>
      </trkpt>
      <trkpt lat="45.85901" lon="4.71841">
        <ele>235.18</ele>
        <time>2014-01-25T13:18:45Z</time>
      </trkpt>
      <trkpt lat="45.85903" lon="4.71833">
        <ele>235.66</ele>
        <time>2014-01-25T13:18:46Z</time>
      </trkpt>
      <trkpt lat="45.85904" lon="4.71824">
        <ele>235.66</ele>
        <time>2014-01-25T13:18:47Z</time>
      </trkpt>
      <trkpt lat="45.85903" lon="4.71817">
        <ele>235.18</ele>
        <time>2014-01-25T13:18:48Z</time>
      </trkpt>
      <trkpt lat="45.859" lon="4.71809">
        <ele>234.7</ele>
        <time>2014-01-25T13:18:49Z</time>
      </trkpt>
      <trkpt lat="45.85895" lon="4.71802">
        <ele>233.74</ele>
        <time>2014-01-25T13:18:50Z</time>
      </trkpt>
      <trkpt lat="45.85889" lon="4.71796">
        <ele>233.26</ele>
        <time>2014-01-25T13:18:51Z</time>
      </trkpt>
      <trkpt lat="45.85884" lon="4.71789">
        <ele>233.26</ele>
        <time>2014-01-25T13:18:52Z</time>
      </trkpt>
      <trkpt lat="45.85879" lon="4.71781">
        <ele>231.81</ele>
        <time>2014-01-25T13:18:53Z</time>
      </trkpt>
      <trkpt lat="45.85878" lon="4.71771">
        <ele>230.85</ele>
        <time>2014-01-25T13:18:54Z</time>
      </trkpt>
      <trkpt lat="45.85879" lon="4.71761">
        <ele>229.89</ele>
        <time>2014-01-25T13:18:55Z</time>
      </trkpt>
      <trkpt lat="45.85882" lon="4.71752">
        <ele>229.41</ele>
        <time>2014-01-25T13:18:56Z</time>
      </trkpt>
      <trkpt lat="45.85887" lon="4.71743">
        <ele>228.45</ele>
        <time>2014-01-25T13:18:57Z</time>
      </trkpt>
      <trkpt lat="45.85893" lon="4.71725">
        <ele>227.49</ele>
        <time>2014-01-25T13:18:59Z</time>
      </trkpt>
      <trkpt lat="45.85895" lon="4.71716">
        <ele>226.53</ele>
        <time>2014-01-25T13:19:00Z</time>
      </trkpt>
      <trkpt lat="45.85895" lon="4.71706">
        <ele>225.57</ele>
        <time>2014-01-25T13:19:01Z</time>
      </trkpt>
      <trkpt lat="45.85893" lon="4.71695">
        <ele>225.09</ele>
        <time>2014-01-25T13:19:02Z</time>
      </trkpt>
      <trkpt lat="45.85891" lon="4.71683">
        <ele>224.12</ele>
        <time>2014-01-25T13:19:03Z</time>
      </trkpt>
      <trkpt lat="45.85888" lon="4.71672">
        <ele>223.16</ele>
        <time>2014-01-25T13:19:04Z</time>
      </trkpt>
      <trkpt lat="45.85884" lon="4.71659">
        <ele>221.72</ele>
        <time>2014-01-25T13:19:05Z</time>
      </trkpt>
      <trkpt lat="45.85874" lon="4.71624">
        <ele>219.32</ele>
        <time>2014-01-25T13:19:08Z</time>
      </trkpt>
      <trkpt lat="45.85865" lon="4.71594">
        <ele>215.47</ele>
        <time>2014-01-25T13:19:11Z</time>
      </trkpt>
      <trkpt lat="45.85854" lon="4.71553">
        <ele>213.07</ele>
        <time>2014-01-25T13:19:16Z</time>
      </trkpt>
      <trkpt lat="45.85848" lon="4.71538">
        <ele>212.11</ele>
        <time>2014-01-25T13:19:18Z</time>
      </trkpt>
      <trkpt lat="45.85833" lon="4.71494">
        <ele>208.26</ele>
        <time>2014-01-25T13:19:23Z</time>
      </trkpt>
      <trkpt lat="45.85825" lon="4.71463">
        <ele>205.38</ele>
        <time>2014-01-25T13:19:26Z</time>
      </trkpt>
      <trkpt lat="45.85817" lon="4.71423">
        <ele>201.53</ele>
        <time>2014-01-25T13:19:30Z</time>
      </trkpt>
      <trkpt lat="45.85813" lon="4.71393">
        <ele>199.61</ele>
        <time>2014-01-25T13:19:33Z</time>
      </trkpt>
      <trkpt lat="45.85812" lon="4.71382">
        <ele>198.65</ele>
        <time>2014-01-25T13:19:34Z</time>
      </trkpt>
      <trkpt lat="45.85812" lon="4.71372">
        <ele>197.69</ele>
        <time>2014-01-25T13:19:35Z</time>
      </trkpt>
      <trkpt lat="45.85813" lon="4.71362">
        <ele>197.21</ele>
        <time>2014-01-25T13:19:36Z</time>
      </trkpt>
      <trkpt lat="45.85813" lon="4.71351">
        <ele>196.73</ele>
        <time>2014-01-25T13:19:37Z</time>
      </trkpt>
      <trkpt lat="45.85812" lon="4.71341">
        <ele>196.25</ele>
        <time>2014-01-25T13:19:38Z</time>
      </trkpt>
      <trkpt lat="45.85809" lon="4.71331">
        <ele>195.77</ele>
        <time>2014-01-25T13:19:39Z</time>
      </trkpt>
      <trkpt lat="45.85807" lon="4.71322">
        <ele>195.28</ele>
        <time>2014-01-25T13:19:40Z</time>
      </trkpt>
      <trkpt lat="45.85803" lon="4.71313">
        <ele>194.8</ele>
        <time>2014-01-25T13:19:41Z</time>
      </trkpt>
      <trkpt lat="45.858" lon="4.71304">
        <ele>194.32</ele>
        <time>2014-01-25T13:19:42Z</time>
      </trkpt>
      <trkpt lat="45.85796" lon="4.71297">
        <ele>194.32</ele>
        <time>2014-01-25T13:19:43Z</time>
      </trkpt>
      <trkpt lat="45.85793" lon="4.71289">
        <ele>193.84</ele>
        <time>2014-01-25T13:19:44Z</time>
      </trkpt>
      <trkpt lat="45.8579" lon="4.71283">
        <ele>193.84</ele>
        <time>2014-01-25T13:19:45Z</time>
      </trkpt>
      <trkpt lat="45.85788" lon="4.71276">
        <ele>193.84</ele>
        <time>2014-01-25T13:19:46Z</time>
      </trkpt>
      <trkpt lat="45.85787" lon="4.71269">
        <ele>193.84</ele>
        <time>2014-01-25T13:19:47Z</time>
      </trkpt>
      <trkpt lat="45.85786" lon="4.71263">
        <ele>193.84</ele>
        <time>2014-01-25T13:19:48Z</time>
      </trkpt>
      <trkpt lat="45.85785" lon="4.71251">
        <ele>194.32</ele>
        <time>2014-01-25T13:19:54Z</time>
      </trkpt>
      <trkpt lat="45.85784" lon="4.71249">
        <ele>194.8</ele>
        <time>2014-01-25T13:20:01Z</time>
      </trkpt>
      <trkpt lat="45.85783" lon="4.71249">
        <ele>194.8</ele>
        <time>2014-01-25T13:20:02Z</time>
      </trkpt>
      <trkpt lat="45.85782" lon="4.71251">
        <ele>194.8</ele>
        <time>2014-01-25T13:20:03Z</time>
      </trkpt>
      <trkpt lat="45.85781" lon="4.71253">
        <ele>195.28</ele>
        <time>2014-01-25T13:20:04Z</time>
      </trkpt>
      <trkpt lat="45.8578" lon="4.71255">
        <ele>194.8</ele>
        <time>2014-01-25T13:20:05Z</time>
      </trkpt>
      <trkpt lat="45.85778" lon="4.71257">
        <ele>194.8</ele>
        <time>2014-01-25T13:20:06Z</time>
      </trkpt>
      <trkpt lat="45.85777" lon="4.7126">
        <ele>195.28</ele>
        <time>2014-01-25T13:20:07Z</time>
      </trkpt>
      <trkpt lat="45.85775" lon="4.71264">
        <ele>195.28</ele>
        <time>2014-01-25T13:20:08Z</time>
      </trkpt>
      <trkpt lat="45.85774" lon="4.71267">
        <ele>195.28</ele>
        <time>2014-01-25T13:20:09Z</time>
      </trkpt>
      <trkpt lat="45.85772" lon="4.7127">
        <ele>195.28</ele>
        <time>2014-01-25T13:20:10Z</time>
      </trkpt>
      <trkpt lat="45.8576" lon="4.71294">
        <ele>195.28</ele>
        <time>2014-01-25T13:20:18Z</time>
      </trkpt>
      <trkpt lat="45.85758" lon="4.71294">
        <ele>195.28</ele>
        <time>2014-01-25T13:20:19Z</time>
      </trkpt>
      <trkpt lat="45.85756" lon="4.71294">
        <ele>195.28</ele>
        <time>2014-01-25T13:20:20Z</time>
      </trkpt>
      <trkpt lat="45.85756" lon="4.71293">
        <ele>195.28</ele>
        <time>2014-01-25T13:20:25Z</time>
      </trkpt>
      <trkpt lat="45.85754" lon="4.71292">
        <ele>195.77</ele>
        <time>2014-01-25T13:20:26Z</time>
      </trkpt>
      <trkpt lat="45.85753" lon="4.71292">
        <ele>195.77</ele>
        <time>2014-01-25T13:20:27Z</time>
      </trkpt>
      <trkpt lat="45.85751" lon="4.71293">
        <ele>195.28</ele>
        <time>2014-01-25T13:20:28Z</time>
      </trkpt>
      <trkpt lat="45.85749" lon="4.71294">
        <ele>195.77</ele>
        <time>2014-01-25T13:20:29Z</time>
      </trkpt>
      <trkpt lat="45.85747" lon="4.71295">
        <ele>195.77</ele>
        <time>2014-01-25T13:20:30Z</time>
      </trkpt>
      <trkpt lat="45.85744" lon="4.71296">
        <ele>195.28</ele>
        <time>2014-01-25T13:20:31Z</time>
      </trkpt>
      <trkpt lat="45.85742" lon="4.71296">
        <ele>196.25</ele>
        <time>2014-01-25T13:20:32Z</time>
      </trkpt>
      <trkpt lat="45.8574" lon="4.71296">
        <ele>196.25</ele>
        <time>2014-01-25T13:20:33Z</time>
      </trkpt>
      <trkpt lat="45.85738" lon="4.71296">
        <ele>196.25</ele>
        <time>2014-01-25T13:20:34Z</time>
      </trkpt>
      <trkpt lat="45.85736" lon="4.71295">
        <ele>196.73</ele>
        <time>2014-01-25T13:20:35Z</time>
      </trkpt>
      <trkpt lat="45.85735" lon="4.71294">
        <ele>196.25</ele>
        <time>2014-01-25T13:20:36Z</time>
      </trkpt>
      <trkpt lat="45.85721" lon="4.71292">
        <ele>199.61</ele>
        <time>2014-01-25T13:20:45Z</time>
      </trkpt>
      <trkpt lat="45.85703" lon="4.71291">
        <ele>202.49</ele>
        <time>2014-01-25T13:20:56Z</time>
      </trkpt>
      <trkpt lat="45.85685" lon="4.71284">
        <ele>204.42</ele>
        <time>2014-01-25T13:21:07Z</time>
      </trkpt>
      <trkpt lat="45.85667" lon="4.71267">
        <ele>205.86</ele>
        <time>2014-01-25T13:21:19Z</time>
      </trkpt>
      <trkpt lat="45.85651" lon="4.71261">
        <ele>206.82</ele>
        <time>2014-01-25T13:21:28Z</time>
      </trkpt>
      <trkpt lat="45.85635" lon="4.71264">
        <ele>208.74</ele>
        <time>2014-01-25T13:21:39Z</time>
      </trkpt>
      <trkpt lat="45.85619" lon="4.71282">
        <ele>211.63</ele>
        <time>2014-01-25T13:21:51Z</time>
      </trkpt>
      <trkpt lat="45.85613" lon="4.71291">
        <ele>212.11</ele>
        <time>2014-01-25T13:21:56Z</time>
      </trkpt>
      <trkpt lat="45.85611" lon="4.71292">
        <ele>212.11</ele>
        <time>2014-01-25T13:21:57Z</time>
      </trkpt>
      <trkpt lat="45.8561" lon="4.71292">
        <ele>213.07</ele>
        <time>2014-01-25T13:21:58Z</time>
      </trkpt>
      <trkpt lat="45.85608" lon="4.71291">
        <ele>212.59</ele>
        <time>2014-01-25T13:21:59Z</time>
      </trkpt>
      <trkpt lat="45.85607" lon="4.7129">
        <ele>213.07</ele>
        <time>2014-01-25T13:22:00Z</time>
      </trkpt>
      <trkpt lat="45.85605" lon="4.71289">
        <ele>212.59</ele>
        <time>2014-01-25T13:22:01Z</time>
      </trkpt>
      <trkpt lat="45.85603" lon="4.71288">
        <ele>212.59</ele>
        <time>2014-01-25T13:22:02Z</time>
      </trkpt>
      <trkpt lat="45.85601" lon="4.71287">
        <ele>212.11</ele>
        <time>2014-01-25T13:22:03Z</time>
      </trkpt>
      <trkpt lat="45.85574" lon="4.7128">
        <ele>208.74</ele>
        <time>2014-01-25T13:22:11Z</time>
      </trkpt>
      <trkpt lat="45.85565" lon="4.71278">
        <ele>207.3</ele>
        <time>2014-01-25T13:22:13Z</time>
      </trkpt>
      <trkpt lat="45.85561" lon="4.71276">
        <ele>206.82</ele>
        <time>2014-01-25T13:22:14Z</time>
      </trkpt>
      <trkpt lat="45.85557" lon="4.71275">
        <ele>206.34</ele>
        <time>2014-01-25T13:22:15Z</time>
      </trkpt>
      <trkpt lat="45.85545" lon="4.7127">
        <ele>204.42</ele>
        <time>2014-01-25T13:22:18Z</time>
      </trkpt>
      <trkpt lat="45.85532" lon="4.71267">
        <ele>202.01</ele>
        <time>2014-01-25T13:22:21Z</time>
      </trkpt>
      <trkpt lat="45.85528" lon="4.71266">
        <ele>201.53</ele>
        <time>2014-01-25T13:22:22Z</time>
      </trkpt>
      <trkpt lat="45.85523" lon="4.71265">
        <ele>200.57</ele>
        <time>2014-01-25T13:22:23Z</time>
      </trkpt>
      <trkpt lat="45.85518" lon="4.71263">
        <ele>199.13</ele>
        <time>2014-01-25T13:22:24Z</time>
      </trkpt>
      <trkpt lat="45.85512" lon="4.71261">
        <ele>198.65</ele>
        <time>2014-01-25T13:22:25Z</time>
      </trkpt>
      <trkpt lat="45.85507" lon="4.71258">
        <ele>198.17</ele>
        <time>2014-01-25T13:22:26Z</time>
      </trkpt>
      <trkpt lat="45.85501" lon="4.71255">
        <ele>197.21</ele>
        <time>2014-01-25T13:22:27Z</time>
      </trkpt>
      <trkpt lat="45.85484" lon="4.71251">
        <ele>196.73</ele>
        <time>2014-01-25T13:22:31Z</time>
      </trkpt>
      <trkpt lat="45.85482" lon="4.71251">
        <ele>196.73</ele>
        <time>2014-01-25T13:22:32Z</time>
      </trkpt>
      <trkpt lat="45.85482" lon="4.71251">
        <ele>196.25</ele>
        <time>2014-01-25T13:22:40Z</time>
      </trkpt>
      <trkpt lat="45.85483" lon="4.71251">
        <ele>195.77</ele>
        <time>2014-01-25T13:22:49Z</time>
      </trkpt>
      <trkpt lat="45.85483" lon="4.71251">
        <ele>194.8</ele>
        <time>2014-01-25T13:23:00Z</time>
      </trkpt>
      <trkpt lat="45.85483" lon="4.7125">
        <ele>194.8</ele>
        <time>2014-01-25T13:23:04Z</time>
      </trkpt>
      <trkpt lat="45.85482" lon="4.71248">
        <ele>194.8</ele>
        <time>2014-01-25T13:23:11Z</time>
      </trkpt>
      <trkpt lat="45.85482" lon="4.71248">
        <ele>195.28</ele>
        <time>2014-01-25T13:23:20Z</time>
      </trkpt>
      <trkpt lat="45.85482" lon="4.71248">
        <ele>195.77</ele>
        <time>2014-01-25T13:23:37Z</time>
      </trkpt>
      <trkpt lat="45.85483" lon="4.71247">
        <ele>195.77</ele>
        <time>2014-01-25T13:23:47Z</time>
      </trkpt>
      <trkpt lat="45.85483" lon="4.71236">
        <ele>196.73</ele>
        <time>2014-01-25T13:23:53Z</time>
      </trkpt>
      <trkpt lat="45.85483" lon="4.71234">
        <ele>197.21</ele>
        <time>2014-01-25T13:23:54Z</time>
      </trkpt>
      <trkpt lat="45.85483" lon="4.71231">
        <ele>197.21</ele>
        <time>2014-01-25T13:23:55Z</time>
      </trkpt>
      <trkpt lat="45.85483" lon="4.71229">
        <ele>197.21</ele>
        <time>2014-01-25T13:23:56Z</time>
      </trkpt>
      <trkpt lat="45.85483" lon="4.71227">
        <ele>197.69</ele>
        <time>2014-01-25T13:23:57Z</time>
      </trkpt>
      <trkpt lat="45.85483" lon="4.7122">
        <ele>197.69</ele>
        <time>2014-01-25T13:24:00Z</time>
      </trkpt>
      <trkpt lat="45.85484" lon="4.71218">
        <ele>198.65</ele>
        <time>2014-01-25T13:24:01Z</time>
      </trkpt>
      <trkpt lat="45.85484" lon="4.71213">
        <ele>198.65</ele>
        <time>2014-01-25T13:24:03Z</time>
      </trkpt>
      <trkpt lat="45.85486" lon="4.71201">
        <ele>200.09</ele>
        <time>2014-01-25T13:24:09Z</time>
      </trkpt>
      <trkpt lat="45.85487" lon="4.71198">
        <ele>200.57</ele>
        <time>2014-01-25T13:24:10Z</time>
      </trkpt>
      <trkpt lat="45.85492" lon="4.71189">
        <ele>202.01</ele>
        <time>2014-01-25T13:24:19Z</time>
      </trkpt>
      <trkpt lat="45.85496" lon="4.71187">
        <ele>202.49</ele>
        <time>2014-01-25T13:24:29Z</time>
      </trkpt>
      <trkpt lat="45.85497" lon="4.71185">
        <ele>203.46</ele>
        <time>2014-01-25T13:24:32Z</time>
      </trkpt>
      <trkpt lat="45.85504" lon="4.71175">
        <ele>205.38</ele>
        <time>2014-01-25T13:24:43Z</time>
      </trkpt>
      <trkpt lat="45.85508" lon="4.71164">
        <ele>206.34</ele>
        <time>2014-01-25T13:24:53Z</time>
      </trkpt>
      <trkpt lat="45.85512" lon="4.71154">
        <ele>208.26</ele>
        <time>2014-01-25T13:25:03Z</time>
      </trkpt>
      <trkpt lat="45.85516" lon="4.71143">
        <ele>209.22</ele>
        <time>2014-01-25T13:25:15Z</time>
      </trkpt>
      <trkpt lat="45.85518" lon="4.71137">
        <ele>209.7</ele>
        <time>2014-01-25T13:25:20Z</time>
      </trkpt>
      <trkpt lat="45.85518" lon="4.71135">
        <ele>209.22</ele>
        <time>2014-01-25T13:25:21Z</time>
      </trkpt>
      <trkpt lat="45.85518" lon="4.71133">
        <ele>209.22</ele>
        <time>2014-01-25T13:25:22Z</time>
      </trkpt>
      <trkpt lat="45.85519" lon="4.71114">
        <ele>211.15</ele>
        <time>2014-01-25T13:25:32Z</time>
      </trkpt>
      <trkpt lat="45.85519" lon="4.71108">
        <ele>211.15</ele>
        <time>2014-01-25T13:25:35Z</time>
      </trkpt>
      <trkpt lat="45.85519" lon="4.71107">
        <ele>211.63</ele>
        <time>2014-01-25T13:25:36Z</time>
      </trkpt>
      <trkpt lat="45.85519" lon="4.71095">
        <ele>212.11</ele>
        <time>2014-01-25T13:25:41Z</time>
      </trkpt>
      <trkpt lat="45.85518" lon="4.7107">
        <ele>213.07</ele>
        <time>2014-01-25T13:25:52Z</time>
      </trkpt>
      <trkpt lat="45.85518" lon="4.71046">
        <ele>214.03</ele>
        <time>2014-01-25T13:26:02Z</time>
      </trkpt>
      <trkpt lat="45.85517" lon="4.71041">
        <ele>214.03</ele>
        <time>2014-01-25T13:26:04Z</time>
      </trkpt>
      <trkpt lat="45.85516" lon="4.71039">
        <ele>214.51</ele>
        <time>2014-01-25T13:26:05Z</time>
      </trkpt>
      <trkpt lat="45.85515" lon="4.71037">
        <ele>214.03</ele>
        <time>2014-01-25T13:26:06Z</time>
      </trkpt>
      <trkpt lat="45.85514" lon="4.71036">
        <ele>214.51</ele>
        <time>2014-01-25T13:26:07Z</time>
      </trkpt>
      <trkpt lat="45.85513" lon="4.71035">
        <ele>214.51</ele>
        <time>2014-01-25T13:26:08Z</time>
      </trkpt>
      <trkpt lat="45.85509" lon="4.71031">
        <ele>214.99</ele>
        <time>2014-01-25T13:26:11Z</time>
      </trkpt>
      <trkpt lat="45.85508" lon="4.7103">
        <ele>214.99</ele>
        <time>2014-01-25T13:26:12Z</time>
      </trkpt>
      <trkpt lat="45.85506" lon="4.71029">
        <ele>214.99</ele>
        <time>2014-01-25T13:26:13Z</time>
      </trkpt>
      <trkpt lat="45.85505" lon="4.71027">
        <ele>214.99</ele>
        <time>2014-01-25T13:26:14Z</time>
      </trkpt>
      <trkpt lat="45.85504" lon="4.71026">
        <ele>214.99</ele>
        <time>2014-01-25T13:26:15Z</time>
      </trkpt>
      <trkpt lat="45.85502" lon="4.71025">
        <ele>214.99</ele>
        <time>2014-01-25T13:26:16Z</time>
      </trkpt>
      <trkpt lat="45.85501" lon="4.71023">
        <ele>215.47</ele>
        <time>2014-01-25T13:26:17Z</time>
      </trkpt>
      <trkpt lat="45.855" lon="4.71022">
        <ele>214.99</ele>
        <time>2014-01-25T13:26:18Z</time>
      </trkpt>
      <trkpt lat="45.85499" lon="4.7102">
        <ele>215.47</ele>
        <time>2014-01-25T13:26:19Z</time>
      </trkpt>
      <trkpt lat="45.85498" lon="4.71018">
        <ele>215.95</ele>
        <time>2014-01-25T13:26:20Z</time>
      </trkpt>
      <trkpt lat="45.85497" lon="4.71016">
        <ele>215.95</ele>
        <time>2014-01-25T13:26:21Z</time>
      </trkpt>
      <trkpt lat="45.85496" lon="4.71014">
        <ele>215.95</ele>
        <time>2014-01-25T13:26:22Z</time>
      </trkpt>
      <trkpt lat="45.85496" lon="4.71011">
        <ele>215.95</ele>
        <time>2014-01-25T13:26:23Z</time>
      </trkpt>
      <trkpt lat="45.85496" lon="4.71008">
        <ele>215.47</ele>
        <time>2014-01-25T13:26:24Z</time>
      </trkpt>
      <trkpt lat="45.85498" lon="4.70978">
        <ele>216.43</ele>
        <time>2014-01-25T13:26:35Z</time>
      </trkpt>
      <trkpt lat="45.855" lon="4.70949">
        <ele>216.91</ele>
        <time>2014-01-25T13:26:46Z</time>
      </trkpt>
      <trkpt lat="45.85497" lon="4.70938">
        <ele>216.43</ele>
        <time>2014-01-25T13:26:50Z</time>
      </trkpt>
      <trkpt lat="45.85495" lon="4.70937">
        <ele>216.91</ele>
        <time>2014-01-25T13:26:51Z</time>
      </trkpt>
      <trkpt lat="45.85493" lon="4.70935">
        <ele>216.43</ele>
        <time>2014-01-25T13:26:52Z</time>
      </trkpt>
      <trkpt lat="45.8549" lon="4.7093">
        <ele>216.91</ele>
        <time>2014-01-25T13:26:55Z</time>
      </trkpt>
      <trkpt lat="45.8549" lon="4.70926">
        <ele>216.43</ele>
        <time>2014-01-25T13:26:56Z</time>
      </trkpt>
      <trkpt lat="45.85487" lon="4.70893">
        <ele>217.4</ele>
        <time>2014-01-25T13:27:06Z</time>
      </trkpt>
      <trkpt lat="45.85473" lon="4.70853">
        <ele>217.4</ele>
        <time>2014-01-25T13:27:17Z</time>
      </trkpt>
      <trkpt lat="45.85463" lon="4.70804">
        <ele>216.43</ele>
        <time>2014-01-25T13:27:28Z</time>
      </trkpt>
      <trkpt lat="45.85452" lon="4.70758">
        <ele>215.47</ele>
        <time>2014-01-25T13:27:37Z</time>
      </trkpt>
      <trkpt lat="45.85431" lon="4.7068">
        <ele>212.59</ele>
        <time>2014-01-25T13:27:48Z</time>
      </trkpt>
      <trkpt lat="45.85427" lon="4.70663">
        <ele>212.11</ele>
        <time>2014-01-25T13:27:50Z</time>
      </trkpt>
      <trkpt lat="45.85425" lon="4.70655">
        <ele>211.15</ele>
        <time>2014-01-25T13:27:51Z</time>
      </trkpt>
      <trkpt lat="45.85424" lon="4.70646">
        <ele>210.67</ele>
        <time>2014-01-25T13:27:52Z</time>
      </trkpt>
      <trkpt lat="45.85423" lon="4.70638">
        <ele>209.7</ele>
        <time>2014-01-25T13:27:53Z</time>
      </trkpt>
      <trkpt lat="45.85423" lon="4.7063">
        <ele>208.74</ele>
        <time>2014-01-25T13:27:54Z</time>
      </trkpt>
      <trkpt lat="45.85424" lon="4.70622">
        <ele>208.26</ele>
        <time>2014-01-25T13:27:55Z</time>
      </trkpt>
      <trkpt lat="45.85426" lon="4.70615">
        <ele>207.78</ele>
        <time>2014-01-25T13:27:56Z</time>
      </trkpt>
      <trkpt lat="45.8543" lon="4.7061">
        <ele>207.3</ele>
        <time>2014-01-25T13:27:57Z</time>
      </trkpt>
      <trkpt lat="45.85434" lon="4.70607">
        <ele>206.82</ele>
        <time>2014-01-25T13:27:58Z</time>
      </trkpt>
      <trkpt lat="45.85439" lon="4.70605">
        <ele>205.86</ele>
        <time>2014-01-25T13:27:59Z</time>
      </trkpt>
      <trkpt lat="45.85445" lon="4.70605">
        <ele>204.9</ele>
        <time>2014-01-25T13:28:00Z</time>
      </trkpt>
      <trkpt lat="45.85451" lon="4.70605">
        <ele>203.46</ele>
        <time>2014-01-25T13:28:01Z</time>
      </trkpt>
      <trkpt lat="45.85457" lon="4.70607">
        <ele>202.49</ele>
        <time>2014-01-25T13:28:02Z</time>
      </trkpt>
      <trkpt lat="45.85464" lon="4.70609">
        <ele>202.01</ele>
        <time>2014-01-25T13:28:03Z</time>
      </trkpt>
      <trkpt lat="45.85471" lon="4.70612">
        <ele>201.53</ele>
        <time>2014-01-25T13:28:04Z</time>
      </trkpt>
      <trkpt lat="45.85478" lon="4.70616">
        <ele>200.57</ele>
        <time>2014-01-25T13:28:05Z</time>
      </trkpt>
      <trkpt lat="45.85526" lon="4.70647">
        <ele>197.21</ele>
        <time>2014-01-25T13:28:12Z</time>
      </trkpt>
      <trkpt lat="45.8554" lon="4.7066">
        <ele>196.25</ele>
        <time>2014-01-25T13:28:15Z</time>
      </trkpt>
      <trkpt lat="45.85544" lon="4.70665">
        <ele>196.25</ele>
        <time>2014-01-25T13:28:16Z</time>
      </trkpt>
      <trkpt lat="45.85548" lon="4.70668">
        <ele>195.28</ele>
        <time>2014-01-25T13:28:17Z</time>
      </trkpt>
      <trkpt lat="45.85552" lon="4.70669">
        <ele>194.8</ele>
        <time>2014-01-25T13:28:18Z</time>
      </trkpt>
      <trkpt lat="45.85555" lon="4.70668">
        <ele>194.8</ele>
        <time>2014-01-25T13:28:19Z</time>
      </trkpt>
      <trkpt lat="45.85556" lon="4.70665">
        <ele>194.8</ele>
        <time>2014-01-25T13:28:20Z</time>
      </trkpt>
      <trkpt lat="45.85557" lon="4.7066">
        <ele>194.8</ele>
        <time>2014-01-25T13:28:21Z</time>
      </trkpt>
      <trkpt lat="45.85557" lon="4.70655">
        <ele>193.84</ele>
        <time>2014-01-25T13:28:22Z</time>
      </trkpt>
      <trkpt lat="45.85556" lon="4.70649">
        <ele>194.32</ele>
        <time>2014-01-25T13:28:23Z</time>
      </trkpt>
      <trkpt lat="45.85548" lon="4.70575">
        <ele>192.88</ele>
        <time>2014-01-25T13:28:33Z</time>
      </trkpt>
      <trkpt lat="45.85537" lon="4.70522">
        <ele>192.4</ele>
        <time>2014-01-25T13:28:40Z</time>
      </trkpt>
      <trkpt lat="45.85536" lon="4.70515">
        <ele>191.92</ele>
        <time>2014-01-25T13:28:41Z</time>
      </trkpt>
      <trkpt lat="45.85519" lon="4.70431">
        <ele>191.92</ele>
        <time>2014-01-25T13:28:53Z</time>
      </trkpt>
      <trkpt lat="45.85499" lon="4.70365">
        <ele>191.92</ele>
        <time>2014-01-25T13:29:03Z</time>
      </trkpt>
      <trkpt lat="45.85496" lon="4.70358">
        <ele>191.92</ele>
        <time>2014-01-25T13:29:04Z</time>
      </trkpt>
      <trkpt lat="45.85494" lon="4.70352">
        <ele>192.4</ele>
        <time>2014-01-25T13:29:05Z</time>
      </trkpt>
      <trkpt lat="45.85492" lon="4.70345">
        <ele>191.92</ele>
        <time>2014-01-25T13:29:06Z</time>
      </trkpt>
      <trkpt lat="45.85474" lon="4.70303">
        <ele>192.4</ele>
        <time>2014-01-25T13:29:13Z</time>
      </trkpt>
      <trkpt lat="45.85471" lon="4.70298">
        <ele>192.4</ele>
        <time>2014-01-25T13:29:14Z</time>
      </trkpt>
      <trkpt lat="45.85458" lon="4.70281">
        <ele>192.88</ele>
        <time>2014-01-25T13:29:18Z</time>
      </trkpt>
      <trkpt lat="45.85454" lon="4.70277">
        <ele>192.4</ele>
        <time>2014-01-25T13:29:19Z</time>
      </trkpt>
      <trkpt lat="45.8545" lon="4.70274">
        <ele>192.88</ele>
        <time>2014-01-25T13:29:20Z</time>
      </trkpt>
      <trkpt lat="45.85443" lon="4.70267">
        <ele>192.4</ele>
        <time>2014-01-25T13:29:22Z</time>
      </trkpt>
      <trkpt lat="45.85399" lon="4.70233">
        <ele>194.32</ele>
        <time>2014-01-25T13:29:34Z</time>
      </trkpt>
      <trkpt lat="45.85391" lon="4.7023">
        <ele>193.36</ele>
        <time>2014-01-25T13:29:36Z</time>
      </trkpt>
      <trkpt lat="45.85384" lon="4.70223">
        <ele>193.84</ele>
        <time>2014-01-25T13:29:38Z</time>
      </trkpt>
      <trkpt lat="45.8538" lon="4.70218">
        <ele>193.84</ele>
        <time>2014-01-25T13:29:39Z</time>
      </trkpt>
      <trkpt lat="45.85377" lon="4.70212">
        <ele>193.84</ele>
        <time>2014-01-25T13:29:40Z</time>
      </trkpt>
      <trkpt lat="45.85375" lon="4.70206">
        <ele>193.36</ele>
        <time>2014-01-25T13:29:41Z</time>
      </trkpt>
      <trkpt lat="45.85373" lon="4.702">
        <ele>193.36</ele>
        <time>2014-01-25T13:29:42Z</time>
      </trkpt>
      <trkpt lat="45.85371" lon="4.70193">
        <ele>193.36</ele>
        <time>2014-01-25T13:29:43Z</time>
      </trkpt>
      <trkpt lat="45.85348" lon="4.70104">
        <ele>193.36</ele>
        <time>2014-01-25T13:29:56Z</time>
      </trkpt>
      <trkpt lat="45.85339" lon="4.70065">
        <ele>193.36</ele>
        <time>2014-01-25T13:30:02Z</time>
      </trkpt>
      <trkpt lat="45.85338" lon="4.70058">
        <ele>192.88</ele>
        <time>2014-01-25T13:30:03Z</time>
      </trkpt>
      <trkpt lat="45.85322" lon="4.69982">
        <ele>194.32</ele>
        <time>2014-01-25T13:30:15Z</time>
      </trkpt>
      <trkpt lat="45.85298" lon="4.69926">
        <ele>195.28</ele>
        <time>2014-01-25T13:30:25Z</time>
      </trkpt>
      <trkpt lat="45.85296" lon="4.6992">
        <ele>195.28</ele>
        <time>2014-01-25T13:30:26Z</time>
      </trkpt>
      <trkpt lat="45.85284" lon="4.69894">
        <ele>196.73</ele>
        <time>2014-01-25T13:30:31Z</time>
      </trkpt>
      <trkpt lat="45.85282" lon="4.69889">
        <ele>196.73</ele>
        <time>2014-01-25T13:30:32Z</time>
      </trkpt>
      <trkpt lat="45.85266" lon="4.69823">
        <ele>197.21</ele>
        <time>2014-01-25T13:30:44Z</time>
      </trkpt>
      <trkpt lat="45.85264" lon="4.69818">
        <ele>197.21</ele>
        <time>2014-01-25T13:30:45Z</time>
      </trkpt>
      <trkpt lat="45.85261" lon="4.69813">
        <ele>197.21</ele>
        <time>2014-01-25T13:30:46Z</time>
      </trkpt>
      <trkpt lat="45.85258" lon="4.69808">
        <ele>197.21</ele>
        <time>2014-01-25T13:30:47Z</time>
      </trkpt>
      <trkpt lat="45.85254" lon="4.69804">
        <ele>197.69</ele>
        <time>2014-01-25T13:30:48Z</time>
      </trkpt>
      <trkpt lat="45.8525" lon="4.698">
        <ele>197.69</ele>
        <time>2014-01-25T13:30:49Z</time>
      </trkpt>
      <trkpt lat="45.85246" lon="4.69797">
        <ele>197.21</ele>
        <time>2014-01-25T13:30:50Z</time>
      </trkpt>
      <trkpt lat="45.85203" lon="4.69773">
        <ele>199.13</ele>
        <time>2014-01-25T13:31:01Z</time>
      </trkpt>
      <trkpt lat="45.85183" lon="4.69745">
        <ele>200.09</ele>
        <time>2014-01-25T13:31:09Z</time>
      </trkpt>
      <trkpt lat="45.85164" lon="4.69701">
        <ele>201.05</ele>
        <time>2014-01-25T13:31:19Z</time>
      </trkpt>
      <trkpt lat="45.85158" lon="4.69659">
        <ele>203.46</ele>
        <time>2014-01-25T13:31:29Z</time>
      </trkpt>
      <trkpt lat="45.8516" lon="4.69614">
        <ele>203.94</ele>
        <time>2014-01-25T13:31:39Z</time>
      </trkpt>
      <trkpt lat="45.85164" lon="4.69545">
        <ele>201.53</ele>
        <time>2014-01-25T13:31:49Z</time>
      </trkpt>
      <trkpt lat="45.85175" lon="4.6944">
        <ele>200.09</ele>
        <time>2014-01-25T13:32:02Z</time>
      </trkpt>
      <trkpt lat="45.8519" lon="4.69373">
        <ele>198.65</ele>
        <time>2014-01-25T13:32:10Z</time>
      </trkpt>
      <trkpt lat="45.85216" lon="4.69302">
        <ele>197.69</ele>
        <time>2014-01-25T13:32:21Z</time>
      </trkpt>
      <trkpt lat="45.85216" lon="4.69298">
        <ele>198.17</ele>
        <time>2014-01-25T13:32:22Z</time>
      </trkpt>
      <trkpt lat="45.85214" lon="4.69294">
        <ele>197.69</ele>
        <time>2014-01-25T13:32:23Z</time>
      </trkpt>
      <trkpt lat="45.85211" lon="4.69293">
        <ele>197.69</ele>
        <time>2014-01-25T13:32:24Z</time>
      </trkpt>
      <trkpt lat="45.85208" lon="4.6929">
        <ele>198.17</ele>
        <time>2014-01-25T13:32:25Z</time>
      </trkpt>
      <trkpt lat="45.85204" lon="4.69288">
        <ele>197.69</ele>
        <time>2014-01-25T13:32:26Z</time>
      </trkpt>
      <trkpt lat="45.85187" lon="4.69276">
        <ele>200.09</ele>
        <time>2014-01-25T13:32:33Z</time>
      </trkpt>
      <trkpt lat="45.85181" lon="4.69265">
        <ele>201.05</ele>
        <time>2014-01-25T13:32:37Z</time>
      </trkpt>
      <trkpt lat="45.85178" lon="4.69259">
        <ele>200.57</ele>
        <time>2014-01-25T13:32:39Z</time>
      </trkpt>
      <trkpt lat="45.85178" lon="4.69254">
        <ele>200.57</ele>
        <time>2014-01-25T13:32:40Z</time>
      </trkpt>
      <trkpt lat="45.85179" lon="4.69212">
        <ele>200.09</ele>
        <time>2014-01-25T13:32:49Z</time>
      </trkpt>
      <trkpt lat="45.85179" lon="4.69205">
        <ele>200.09</ele>
        <time>2014-01-25T13:32:57Z</time>
      </trkpt>
      <trkpt lat="45.85179" lon="4.69205">
        <ele>200.09</ele>
        <time>2014-01-25T13:33:24Z</time>
      </trkpt>
      <trkpt lat="45.85178" lon="4.69199">
        <ele>200.09</ele>
        <time>2014-01-25T13:33:38Z</time>
      </trkpt>
      <trkpt lat="45.85177" lon="4.69198">
        <ele>199.61</ele>
        <time>2014-01-25T13:33:39Z</time>
      </trkpt>
      <trkpt lat="45.85176" lon="4.69197">
        <ele>199.61</ele>
        <time>2014-01-25T13:33:40Z</time>
      </trkpt>
      <trkpt lat="45.85174" lon="4.69197">
        <ele>200.09</ele>
        <time>2014-01-25T13:33:41Z</time>
      </trkpt>
      <trkpt lat="45.85172" lon="4.69197">
        <ele>200.09</ele>
        <time>2014-01-25T13:33:42Z</time>
      </trkpt>
      <trkpt lat="45.8517" lon="4.69197">
        <ele>200.09</ele>
        <time>2014-01-25T13:33:43Z</time>
      </trkpt>
      <trkpt lat="45.85168" lon="4.69197">
        <ele>200.09</ele>
        <time>2014-01-25T13:33:44Z</time>
      </trkpt>
      <trkpt lat="45.85164" lon="4.69198">
        <ele>200.57</ele>
        <time>2014-01-25T13:33:46Z</time>
      </trkpt>
      <trkpt lat="45.85163" lon="4.69199">
        <ele>201.05</ele>
        <time>2014-01-25T13:33:47Z</time>
      </trkpt>
      <trkpt lat="45.85161" lon="4.69201">
        <ele>201.05</ele>
        <time>2014-01-25T13:33:48Z</time>
      </trkpt>
      <trkpt lat="45.8516" lon="4.69203">
        <ele>201.53</ele>
        <time>2014-01-25T13:33:49Z</time>
      </trkpt>
      <trkpt lat="45.85159" lon="4.69204">
        <ele>202.01</ele>
        <time>2014-01-25T13:33:50Z</time>
      </trkpt>
      <trkpt lat="45.85147" lon="4.69219">
        <ele>204.42</ele>
        <time>2014-01-25T13:34:01Z</time>
      </trkpt>
      <trkpt lat="45.85138" lon="4.69232">
        <ele>205.86</ele>
        <time>2014-01-25T13:34:11Z</time>
      </trkpt>
      <trkpt lat="45.85127" lon="4.69249">
        <ele>208.74</ele>
        <time>2014-01-25T13:34:23Z</time>
      </trkpt>
      <trkpt lat="45.85127" lon="4.69251">
        <ele>208.74</ele>
        <time>2014-01-25T13:34:24Z</time>
      </trkpt>
      <trkpt lat="45.85126" lon="4.69253">
        <ele>209.22</ele>
        <time>2014-01-25T13:34:25Z</time>
      </trkpt>
      <trkpt lat="45.85125" lon="4.69255">
        <ele>209.22</ele>
        <time>2014-01-25T13:34:26Z</time>
      </trkpt>
      <trkpt lat="45.85125" lon="4.69256">
        <ele>209.22</ele>
        <time>2014-01-25T13:34:27Z</time>
      </trkpt>
      <trkpt lat="45.85124" lon="4.69258">
        <ele>209.22</ele>
        <time>2014-01-25T13:34:28Z</time>
      </trkpt>
      <trkpt lat="45.85124" lon="4.6926">
        <ele>209.7</ele>
        <time>2014-01-25T13:34:29Z</time>
      </trkpt>
      <trkpt lat="45.85123" lon="4.69261">
        <ele>210.19</ele>
        <time>2014-01-25T13:34:30Z</time>
      </trkpt>
      <trkpt lat="45.85123" lon="4.69263">
        <ele>210.19</ele>
        <time>2014-01-25T13:34:31Z</time>
      </trkpt>
      <trkpt lat="45.85123" lon="4.69264">
        <ele>210.67</ele>
        <time>2014-01-25T13:34:32Z</time>
      </trkpt>
      <trkpt lat="45.85122" lon="4.69266">
        <ele>210.67</ele>
        <time>2014-01-25T13:34:33Z</time>
      </trkpt>
      <trkpt lat="45.85122" lon="4.69268">
        <ele>210.67</ele>
        <time>2014-01-25T13:34:34Z</time>
      </trkpt>
      <trkpt lat="45.85121" lon="4.6927">
        <ele>210.67</ele>
        <time>2014-01-25T13:34:35Z</time>
      </trkpt>
      <trkpt lat="45.85114" lon="4.69295">
        <ele>212.59</ele>
        <time>2014-01-25T13:34:48Z</time>
      </trkpt>
      <trkpt lat="45.85099" lon="4.69305">
        <ele>214.03</ele>
        <time>2014-01-25T13:34:59Z</time>
      </trkpt>
      <trkpt lat="45.85082" lon="4.69324">
        <ele>215.47</ele>
        <time>2014-01-25T13:35:11Z</time>
      </trkpt>
      <trkpt lat="45.85064" lon="4.69339">
        <ele>216.91</ele>
        <time>2014-01-25T13:35:23Z</time>
      </trkpt>
      <trkpt lat="45.85045" lon="4.6935">
        <ele>218.36</ele>
        <time>2014-01-25T13:35:35Z</time>
      </trkpt>
      <trkpt lat="45.85023" lon="4.69356">
        <ele>219.8</ele>
        <time>2014-01-25T13:35:48Z</time>
      </trkpt>
      <trkpt lat="45.85011" lon="4.69358">
        <ele>220.28</ele>
        <time>2014-01-25T13:35:55Z</time>
      </trkpt>
      <trkpt lat="45.8501" lon="4.69356">
        <ele>220.76</ele>
        <time>2014-01-25T13:35:56Z</time>
      </trkpt>
      <trkpt lat="45.85009" lon="4.69354">
        <ele>221.24</ele>
        <time>2014-01-25T13:35:57Z</time>
      </trkpt>
      <trkpt lat="45.85007" lon="4.69325">
        <ele>220.76</ele>
        <time>2014-01-25T13:36:07Z</time>
      </trkpt>
      <trkpt lat="45.85004" lon="4.69258">
        <ele>218.84</ele>
        <time>2014-01-25T13:36:17Z</time>
      </trkpt>
      <trkpt lat="45.84978" lon="4.69165">
        <ele>216.91</ele>
        <time>2014-01-25T13:36:29Z</time>
      </trkpt>
      <trkpt lat="45.8494" lon="4.69044">
        <ele>213.07</ele>
        <time>2014-01-25T13:36:43Z</time>
      </trkpt>
      <trkpt lat="45.84904" lon="4.68924">
        <ele>210.19</ele>
        <time>2014-01-25T13:36:56Z</time>
      </trkpt>
      <trkpt lat="45.84901" lon="4.68908">
        <ele>209.7</ele>
        <time>2014-01-25T13:36:58Z</time>
      </trkpt>
      <trkpt lat="45.84899" lon="4.6889">
        <ele>209.22</ele>
        <time>2014-01-25T13:37:02Z</time>
      </trkpt>
      <trkpt lat="45.84898" lon="4.68889">
        <ele>209.22</ele>
        <time>2014-01-25T13:37:03Z</time>
      </trkpt>
      <trkpt lat="45.84899" lon="4.68885">
        <ele>209.7</ele>
        <time>2014-01-25T13:37:10Z</time>
      </trkpt>
      <trkpt lat="45.84899" lon="4.68883">
        <ele>209.7</ele>
        <time>2014-01-25T13:37:11Z</time>
      </trkpt>
      <trkpt lat="45.84901" lon="4.68882">
        <ele>209.7</ele>
        <time>2014-01-25T13:37:12Z</time>
      </trkpt>
      <trkpt lat="45.84903" lon="4.6888">
        <ele>210.19</ele>
        <time>2014-01-25T13:37:13Z</time>
      </trkpt>
      <trkpt lat="45.84905" lon="4.68879">
        <ele>210.19</ele>
        <time>2014-01-25T13:37:14Z</time>
      </trkpt>
      <trkpt lat="45.8494" lon="4.68849">
        <ele>209.7</ele>
        <time>2014-01-25T13:37:24Z</time>
      </trkpt>
      <trkpt lat="45.84992" lon="4.68792">
        <ele>210.19</ele>
        <time>2014-01-25T13:37:39Z</time>
      </trkpt>
      <trkpt lat="45.84995" lon="4.68787">
        <ele>209.7</ele>
        <time>2014-01-25T13:37:40Z</time>
      </trkpt>
      <trkpt lat="45.85022" lon="4.68729">
        <ele>211.63</ele>
        <time>2014-01-25T13:37:52Z</time>
      </trkpt>
      <trkpt lat="45.8504" lon="4.68681">
        <ele>213.55</ele>
        <time>2014-01-25T13:38:04Z</time>
      </trkpt>
      <trkpt lat="45.8504" lon="4.68677">
        <ele>213.07</ele>
        <time>2014-01-25T13:38:05Z</time>
      </trkpt>
      <trkpt lat="45.85038" lon="4.68674">
        <ele>213.55</ele>
        <time>2014-01-25T13:38:06Z</time>
      </trkpt>
      <trkpt lat="45.85037" lon="4.68672">
        <ele>213.55</ele>
        <time>2014-01-25T13:38:07Z</time>
      </trkpt>
      <trkpt lat="45.85035" lon="4.6867">
        <ele>213.55</ele>
        <time>2014-01-25T13:38:08Z</time>
      </trkpt>
      <trkpt lat="45.85033" lon="4.6867">
        <ele>214.03</ele>
        <time>2014-01-25T13:38:09Z</time>
      </trkpt>
      <trkpt lat="45.85031" lon="4.6867">
        <ele>214.03</ele>
        <time>2014-01-25T13:38:10Z</time>
      </trkpt>
      <trkpt lat="45.85029" lon="4.68671">
        <ele>214.03</ele>
        <time>2014-01-25T13:38:11Z</time>
      </trkpt>
      <trkpt lat="45.85014" lon="4.68669">
        <ele>215.47</ele>
        <time>2014-01-25T13:38:20Z</time>
      </trkpt>
      <trkpt lat="45.84986" lon="4.68665">
        <ele>216.43</ele>
        <time>2014-01-25T13:38:32Z</time>
      </trkpt>
      <trkpt lat="45.84955" lon="4.68665">
        <ele>214.99</ele>
        <time>2014-01-25T13:38:40Z</time>
      </trkpt>
      <trkpt lat="45.84889" lon="4.68667">
        <ele>211.63</ele>
        <time>2014-01-25T13:38:51Z</time>
      </trkpt>
      <trkpt lat="45.84873" lon="4.68669">
        <ele>210.67</ele>
        <time>2014-01-25T13:38:53Z</time>
      </trkpt>
      <trkpt lat="45.84794" lon="4.68697">
        <ele>208.74</ele>
        <time>2014-01-25T13:39:04Z</time>
      </trkpt>
      <trkpt lat="45.8476" lon="4.68706">
        <ele>211.15</ele>
        <time>2014-01-25T13:39:11Z</time>
      </trkpt>
      <trkpt lat="45.84749" lon="4.6872">
        <ele>212.59</ele>
        <time>2014-01-25T13:39:16Z</time>
      </trkpt>
      <trkpt lat="45.84745" lon="4.68731">
        <ele>214.03</ele>
        <time>2014-01-25T13:39:19Z</time>
      </trkpt>
      <trkpt lat="45.84723" lon="4.68767">
        <ele>215.47</ele>
        <time>2014-01-25T13:39:31Z</time>
      </trkpt>
      <trkpt lat="45.847" lon="4.68787">
        <ele>217.4</ele>
        <time>2014-01-25T13:39:42Z</time>
      </trkpt>
      <trkpt lat="45.84683" lon="4.68771">
        <ele>219.32</ele>
        <time>2014-01-25T13:39:52Z</time>
      </trkpt>
      <trkpt lat="45.84667" lon="4.68757">
        <ele>221.72</ele>
        <time>2014-01-25T13:40:03Z</time>
      </trkpt>
      <trkpt lat="45.8465" lon="4.68747">
        <ele>224.61</ele>
        <time>2014-01-25T13:40:16Z</time>
      </trkpt>
      <trkpt lat="45.84635" lon="4.68735">
        <ele>226.53</ele>
        <time>2014-01-25T13:40:29Z</time>
      </trkpt>
      <trkpt lat="45.84621" lon="4.68717">
        <ele>229.89</ele>
        <time>2014-01-25T13:40:43Z</time>
      </trkpt>
      <trkpt lat="45.84612" lon="4.68705">
        <ele>231.81</ele>
        <time>2014-01-25T13:40:53Z</time>
      </trkpt>
      <trkpt lat="45.84611" lon="4.68704">
        <ele>231.33</ele>
        <time>2014-01-25T13:40:54Z</time>
      </trkpt>
      <trkpt lat="45.8461" lon="4.68703">
        <ele>232.78</ele>
        <time>2014-01-25T13:40:55Z</time>
      </trkpt>
      <trkpt lat="45.84609" lon="4.68702">
        <ele>232.78</ele>
        <time>2014-01-25T13:40:56Z</time>
      </trkpt>
      <trkpt lat="45.84603" lon="4.68685">
        <ele>234.22</ele>
        <time>2014-01-25T13:41:07Z</time>
      </trkpt>
      <trkpt lat="45.84594" lon="4.68668">
        <ele>237.58</ele>
        <time>2014-01-25T13:41:20Z</time>
      </trkpt>
      <trkpt lat="45.84589" lon="4.68663">
        <ele>238.54</ele>
        <time>2014-01-25T13:41:25Z</time>
      </trkpt>
      <trkpt lat="45.8458" lon="4.68656">
        <ele>239.51</ele>
        <time>2014-01-25T13:41:34Z</time>
      </trkpt>
      <trkpt lat="45.84578" lon="4.68655">
        <ele>239.99</ele>
        <time>2014-01-25T13:41:35Z</time>
      </trkpt>
      <trkpt lat="45.84564" lon="4.68644">
        <ele>241.43</ele>
        <time>2014-01-25T13:41:46Z</time>
      </trkpt>
      <trkpt lat="45.84557" lon="4.68639">
        <ele>241.91</ele>
        <time>2014-01-25T13:41:51Z</time>
      </trkpt>
      <trkpt lat="45.84556" lon="4.68637">
        <ele>241.91</ele>
        <time>2014-01-25T13:41:52Z</time>
      </trkpt>
      <trkpt lat="45.84555" lon="4.68636">
        <ele>241.91</ele>
        <time>2014-01-25T13:41:53Z</time>
      </trkpt>
      <trkpt lat="45.84553" lon="4.68635">
        <ele>242.39</ele>
        <time>2014-01-25T13:41:54Z</time>
      </trkpt>
      <trkpt lat="45.84552" lon="4.68633">
        <ele>242.39</ele>
        <time>2014-01-25T13:41:55Z</time>
      </trkpt>
      <trkpt lat="45.84551" lon="4.68632">
        <ele>242.39</ele>
        <time>2014-01-25T13:41:56Z</time>
      </trkpt>
      <trkpt lat="45.84537" lon="4.68612">
        <ele>243.35</ele>
        <time>2014-01-25T13:42:08Z</time>
      </trkpt>
      <trkpt lat="45.84531" lon="4.68608">
        <ele>243.35</ele>
        <time>2014-01-25T13:42:12Z</time>
      </trkpt>
      <trkpt lat="45.84529" lon="4.68607">
        <ele>243.35</ele>
        <time>2014-01-25T13:42:13Z</time>
      </trkpt>
      <trkpt lat="45.84514" lon="4.68595">
        <ele>243.83</ele>
        <time>2014-01-25T13:42:24Z</time>
      </trkpt>
      <trkpt lat="45.8451" lon="4.68594">
        <ele>244.31</ele>
        <time>2014-01-25T13:42:27Z</time>
      </trkpt>
      <trkpt lat="45.84509" lon="4.68595">
        <ele>244.79</ele>
        <time>2014-01-25T13:42:28Z</time>
      </trkpt>
      <trkpt lat="45.84503" lon="4.68608">
        <ele>244.79</ele>
        <time>2014-01-25T13:42:35Z</time>
      </trkpt>
      <trkpt lat="45.84502" lon="4.68611">
        <ele>245.27</ele>
        <time>2014-01-25T13:42:36Z</time>
      </trkpt>
      <trkpt lat="45.84501" lon="4.68613">
        <ele>245.27</ele>
        <time>2014-01-25T13:42:37Z</time>
      </trkpt>
      <trkpt lat="45.84501" lon="4.68616">
        <ele>245.27</ele>
        <time>2014-01-25T13:42:38Z</time>
      </trkpt>
      <trkpt lat="45.845" lon="4.6862">
        <ele>245.27</ele>
        <time>2014-01-25T13:42:39Z</time>
      </trkpt>
      <trkpt lat="45.84487" lon="4.68647">
        <ele>245.27</ele>
        <time>2014-01-25T13:42:50Z</time>
      </trkpt>
      <trkpt lat="45.84464" lon="4.68648">
        <ele>245.75</ele>
        <time>2014-01-25T13:43:01Z</time>
      </trkpt>
      <trkpt lat="45.84437" lon="4.68638">
        <ele>246.23</ele>
        <time>2014-01-25T13:43:14Z</time>
      </trkpt>
      <trkpt lat="45.84416" lon="4.68632">
        <ele>246.72</ele>
        <time>2014-01-25T13:43:24Z</time>
      </trkpt>
      <trkpt lat="45.84387" lon="4.6862">
        <ele>248.16</ele>
        <time>2014-01-25T13:43:38Z</time>
      </trkpt>
      <trkpt lat="45.84364" lon="4.68616">
        <ele>248.64</ele>
        <time>2014-01-25T13:43:49Z</time>
      </trkpt>
      <trkpt lat="45.84341" lon="4.68614">
        <ele>249.6</ele>
        <time>2014-01-25T13:43:59Z</time>
      </trkpt>
      <trkpt lat="45.84314" lon="4.68611">
        <ele>250.56</ele>
        <time>2014-01-25T13:44:10Z</time>
      </trkpt>
      <trkpt lat="45.84288" lon="4.68608">
        <ele>252</ele>
        <time>2014-01-25T13:44:22Z</time>
      </trkpt>
      <trkpt lat="45.8426" lon="4.68598">
        <ele>254.41</ele>
        <time>2014-01-25T13:44:36Z</time>
      </trkpt>
      <trkpt lat="45.84244" lon="4.68585">
        <ele>256.33</ele>
        <time>2014-01-25T13:44:47Z</time>
      </trkpt>
      <trkpt lat="45.84226" lon="4.68571">
        <ele>258.73</ele>
        <time>2014-01-25T13:44:59Z</time>
      </trkpt>
      <trkpt lat="45.84212" lon="4.68559">
        <ele>260.17</ele>
        <time>2014-01-25T13:45:10Z</time>
      </trkpt>
      <trkpt lat="45.84198" lon="4.68547">
        <ele>261.62</ele>
        <time>2014-01-25T13:45:20Z</time>
      </trkpt>
      <trkpt lat="45.84182" lon="4.68535">
        <ele>263.54</ele>
        <time>2014-01-25T13:45:31Z</time>
      </trkpt>
      <trkpt lat="45.84166" lon="4.68523">
        <ele>265.46</ele>
        <time>2014-01-25T13:45:42Z</time>
      </trkpt>
      <trkpt lat="45.84151" lon="4.68511">
        <ele>266.42</ele>
        <time>2014-01-25T13:45:52Z</time>
      </trkpt>
      <trkpt lat="45.84137" lon="4.68498">
        <ele>267.38</ele>
        <time>2014-01-25T13:46:02Z</time>
      </trkpt>
      <trkpt lat="45.84136" lon="4.68497">
        <ele>267.38</ele>
        <time>2014-01-25T13:46:03Z</time>
      </trkpt>
      <trkpt lat="45.84134" lon="4.68495">
        <ele>267.86</ele>
        <time>2014-01-25T13:46:04Z</time>
      </trkpt>
      <trkpt lat="45.84132" lon="4.68494">
        <ele>267.38</ele>
        <time>2014-01-25T13:46:05Z</time>
      </trkpt>
      <trkpt lat="45.8413" lon="4.68493">
        <ele>267.38</ele>
        <time>2014-01-25T13:46:06Z</time>
      </trkpt>
      <trkpt lat="45.84129" lon="4.68492">
        <ele>267.86</ele>
        <time>2014-01-25T13:46:07Z</time>
      </trkpt>
      <trkpt lat="45.84127" lon="4.68491">
        <ele>267.86</ele>
        <time>2014-01-25T13:46:08Z</time>
      </trkpt>
      <trkpt lat="45.84126" lon="4.6849">
        <ele>267.86</ele>
        <time>2014-01-25T13:46:09Z</time>
      </trkpt>
      <trkpt lat="45.84106" lon="4.68485">
        <ele>268.35</ele>
        <time>2014-01-25T13:46:19Z</time>
      </trkpt>
      <trkpt lat="45.84087" lon="4.68482">
        <ele>268.35</ele>
        <time>2014-01-25T13:46:28Z</time>
      </trkpt>
      <trkpt lat="45.84062" lon="4.68478">
        <ele>269.31</ele>
        <time>2014-01-25T13:46:40Z</time>
      </trkpt>
      <trkpt lat="45.84034" lon="4.68474">
        <ele>269.79</ele>
        <time>2014-01-25T13:46:53Z</time>
      </trkpt>
      <trkpt lat="45.8401" lon="4.68474">
        <ele>270.27</ele>
        <time>2014-01-25T13:47:03Z</time>
      </trkpt>
      <trkpt lat="45.83979" lon="4.68473">
        <ele>271.71</ele>
        <time>2014-01-25T13:47:16Z</time>
      </trkpt>
      <trkpt lat="45.8395" lon="4.68473">
        <ele>272.19</ele>
        <time>2014-01-25T13:47:28Z</time>
      </trkpt>
      <trkpt lat="45.83927" lon="4.68474">
        <ele>272.19</ele>
        <time>2014-01-25T13:47:38Z</time>
      </trkpt>
      <trkpt lat="45.83899" lon="4.68475">
        <ele>273.15</ele>
        <time>2014-01-25T13:47:49Z</time>
      </trkpt>
      <trkpt lat="45.83864" lon="4.68475">
        <ele>273.63</ele>
        <time>2014-01-25T13:48:03Z</time>
      </trkpt>
      <trkpt lat="45.83836" lon="4.68475">
        <ele>274.11</ele>
        <time>2014-01-25T13:48:14Z</time>
      </trkpt>
      <trkpt lat="45.83805" lon="4.68478">
        <ele>275.07</ele>
        <time>2014-01-25T13:48:26Z</time>
      </trkpt>
      <trkpt lat="45.8378" lon="4.68479">
        <ele>275.56</ele>
        <time>2014-01-25T13:48:37Z</time>
      </trkpt>
      <trkpt lat="45.8375" lon="4.68478">
        <ele>274.11</ele>
        <time>2014-01-25T13:48:46Z</time>
      </trkpt>
      <trkpt lat="45.83718" lon="4.68468">
        <ele>273.15</ele>
        <time>2014-01-25T13:48:53Z</time>
      </trkpt>
      <trkpt lat="45.83713" lon="4.68465">
        <ele>272.67</ele>
        <time>2014-01-25T13:48:54Z</time>
      </trkpt>
      <trkpt lat="45.83708" lon="4.68462">
        <ele>272.67</ele>
        <time>2014-01-25T13:48:55Z</time>
      </trkpt>
      <trkpt lat="45.83662" lon="4.68407">
        <ele>271.23</ele>
        <time>2014-01-25T13:49:06Z</time>
      </trkpt>
      <trkpt lat="45.8363" lon="4.68348">
        <ele>276.52</ele>
        <time>2014-01-25T13:49:17Z</time>
      </trkpt>
      <trkpt lat="45.83627" lon="4.68343">
        <ele>270.75</ele>
        <time>2014-01-25T13:49:18Z</time>
      </trkpt>
      <trkpt lat="45.8361" lon="4.68312">
        <ele>270.27</ele>
        <time>2014-01-25T13:49:24Z</time>
      </trkpt>
      <trkpt lat="45.83595" lon="4.68294">
        <ele>270.75</ele>
        <time>2014-01-25T13:49:29Z</time>
      </trkpt>
      <trkpt lat="45.8358" lon="4.68317">
        <ele>270.75</ele>
        <time>2014-01-25T13:49:36Z</time>
      </trkpt>
      <trkpt lat="45.8358" lon="4.68329">
        <ele>270.27</ele>
        <time>2014-01-25T13:49:38Z</time>
      </trkpt>
      <trkpt lat="45.8358" lon="4.68363">
        <ele>269.79</ele>
        <time>2014-01-25T13:49:43Z</time>
      </trkpt>
      <trkpt lat="45.83578" lon="4.68376">
        <ele>268.83</ele>
        <time>2014-01-25T13:49:45Z</time>
      </trkpt>
      <trkpt lat="45.83576" lon="4.68382">
        <ele>268.83</ele>
        <time>2014-01-25T13:49:46Z</time>
      </trkpt>
      <trkpt lat="45.83573" lon="4.68387">
        <ele>268.83</ele>
        <time>2014-01-25T13:49:47Z</time>
      </trkpt>
      <trkpt lat="45.8357" lon="4.68392">
        <ele>269.79</ele>
        <time>2014-01-25T13:49:48Z</time>
      </trkpt>
      <trkpt lat="45.83567" lon="4.68397">
        <ele>269.79</ele>
        <time>2014-01-25T13:49:49Z</time>
      </trkpt>
      <trkpt lat="45.83538" lon="4.68434">
        <ele>269.79</ele>
        <time>2014-01-25T13:49:58Z</time>
      </trkpt>
      <trkpt lat="45.83499" lon="4.68462">
        <ele>270.75</ele>
        <time>2014-01-25T13:50:10Z</time>
      </trkpt>
      <trkpt lat="45.83463" lon="4.68485">
        <ele>272.67</ele>
        <time>2014-01-25T13:50:22Z</time>
      </trkpt>
      <trkpt lat="45.83428" lon="4.68507">
        <ele>274.11</ele>
        <time>2014-01-25T13:50:35Z</time>
      </trkpt>
      <trkpt lat="45.83395" lon="4.68526">
        <ele>276.52</ele>
        <time>2014-01-25T13:50:48Z</time>
      </trkpt>
      <trkpt lat="45.83361" lon="4.68543">
        <ele>278.44</ele>
        <time>2014-01-25T13:51:01Z</time>
      </trkpt>
      <trkpt lat="45.83336" lon="4.68536">
        <ele>278.92</ele>
        <time>2014-01-25T13:51:11Z</time>
      </trkpt>
      <trkpt lat="45.83308" lon="4.68533">
        <ele>277.96</ele>
        <time>2014-01-25T13:51:21Z</time>
      </trkpt>
      <trkpt lat="45.83303" lon="4.68536">
        <ele>277.96</ele>
        <time>2014-01-25T13:51:24Z</time>
      </trkpt>
      <trkpt lat="45.83293" lon="4.6853">
        <ele>279.4</ele>
        <time>2014-01-25T13:51:29Z</time>
      </trkpt>
      <trkpt lat="45.83271" lon="4.68507">
        <ele>281.32</ele>
        <time>2014-01-25T13:51:43Z</time>
      </trkpt>
      <trkpt lat="45.83252" lon="4.68488">
        <ele>283.25</ele>
        <time>2014-01-25T13:51:55Z</time>
      </trkpt>
      <trkpt lat="45.83236" lon="4.68472">
        <ele>285.17</ele>
        <time>2014-01-25T13:52:05Z</time>
      </trkpt>
      <trkpt lat="45.83216" lon="4.68451">
        <ele>287.09</ele>
        <time>2014-01-25T13:52:18Z</time>
      </trkpt>
      <trkpt lat="45.83201" lon="4.68426">
        <ele>288.53</ele>
        <time>2014-01-25T13:52:31Z</time>
      </trkpt>
      <trkpt lat="45.83186" lon="4.68394">
        <ele>290.94</ele>
        <time>2014-01-25T13:52:46Z</time>
      </trkpt>
      <trkpt lat="45.83174" lon="4.68372">
        <ele>291.9</ele>
        <time>2014-01-25T13:52:56Z</time>
      </trkpt>
      <trkpt lat="45.83157" lon="4.68337">
        <ele>293.34</ele>
        <time>2014-01-25T13:53:10Z</time>
      </trkpt>
      <trkpt lat="45.83141" lon="4.68307">
        <ele>294.3</ele>
        <time>2014-01-25T13:53:22Z</time>
      </trkpt>
      <trkpt lat="45.83126" lon="4.68276">
        <ele>295.26</ele>
        <time>2014-01-25T13:53:35Z</time>
      </trkpt>
      <trkpt lat="45.83113" lon="4.68245">
        <ele>295.74</ele>
        <time>2014-01-25T13:53:47Z</time>
      </trkpt>
      <trkpt lat="45.83103" lon="4.68207">
        <ele>297.18</ele>
        <time>2014-01-25T13:53:59Z</time>
      </trkpt>
      <trkpt lat="45.83094" lon="4.68168">
        <ele>296.7</ele>
        <time>2014-01-25T13:54:11Z</time>
      </trkpt>
      <trkpt lat="45.83088" lon="4.68125">
        <ele>296.22</ele>
        <time>2014-01-25T13:54:23Z</time>
      </trkpt>
      <trkpt lat="45.83087" lon="4.68121">
        <ele>296.22</ele>
        <time>2014-01-25T13:54:31Z</time>
      </trkpt>
      <trkpt lat="45.83087" lon="4.68121">
        <ele>295.74</ele>
        <time>2014-01-25T13:54:48Z</time>
      </trkpt>
      <trkpt lat="45.83087" lon="4.68121">
        <ele>296.22</ele>
        <time>2014-01-25T13:55:11Z</time>
      </trkpt>
      <trkpt lat="45.83087" lon="4.68121">
        <ele>296.22</ele>
        <time>2014-01-25T13:55:35Z</time>
      </trkpt>
      <trkpt lat="45.83087" lon="4.68119">
        <ele>295.74</ele>
        <time>2014-01-25T13:55:47Z</time>
      </trkpt>
      <trkpt lat="45.83087" lon="4.68119">
        <ele>295.26</ele>
        <time>2014-01-25T13:56:12Z</time>
      </trkpt>
      <trkpt lat="45.83087" lon="4.68119">
        <ele>295.74</ele>
        <time>2014-01-25T13:56:36Z</time>
      </trkpt>
      <trkpt lat="45.83087" lon="4.68111">
        <ele>295.26</ele>
        <time>2014-01-25T13:56:58Z</time>
      </trkpt>
      <trkpt lat="45.83084" lon="4.68073">
        <ele>294.78</ele>
        <time>2014-01-25T13:57:08Z</time>
      </trkpt>
      <trkpt lat="45.83079" lon="4.68019">
        <ele>294.3</ele>
        <time>2014-01-25T13:57:19Z</time>
      </trkpt>
      <trkpt lat="45.83071" lon="4.67965">
        <ele>293.34</ele>
        <time>2014-01-25T13:57:29Z</time>
      </trkpt>
      <trkpt lat="45.8306" lon="4.67917">
        <ele>290.94</ele>
        <time>2014-01-25T13:57:36Z</time>
      </trkpt>
      <trkpt lat="45.83046" lon="4.67855">
        <ele>289.97</ele>
        <time>2014-01-25T13:57:46Z</time>
      </trkpt>
      <trkpt lat="45.83029" lon="4.67777">
        <ele>286.13</ele>
        <time>2014-01-25T13:57:56Z</time>
      </trkpt>
      <trkpt lat="45.83014" lon="4.67687">
        <ele>283.25</ele>
        <time>2014-01-25T13:58:07Z</time>
      </trkpt>
      <trkpt lat="45.83013" lon="4.67617">
        <ele>283.73</ele>
        <time>2014-01-25T13:58:17Z</time>
      </trkpt>
      <trkpt lat="45.83013" lon="4.67604">
        <ele>283.73</ele>
        <time>2014-01-25T13:58:19Z</time>
      </trkpt>
      <trkpt lat="45.83012" lon="4.67597">
        <ele>283.25</ele>
        <time>2014-01-25T13:58:20Z</time>
      </trkpt>
      <trkpt lat="45.8301" lon="4.67591">
        <ele>283.73</ele>
        <time>2014-01-25T13:58:21Z</time>
      </trkpt>
      <trkpt lat="45.83008" lon="4.67586">
        <ele>283.73</ele>
        <time>2014-01-25T13:58:22Z</time>
      </trkpt>
      <trkpt lat="45.83005" lon="4.67581">
        <ele>284.21</ele>
        <time>2014-01-25T13:58:23Z</time>
      </trkpt>
      <trkpt lat="45.83001" lon="4.67577">
        <ele>284.21</ele>
        <time>2014-01-25T13:58:24Z</time>
      </trkpt>
      <trkpt lat="45.82997" lon="4.67575">
        <ele>284.21</ele>
        <time>2014-01-25T13:58:25Z</time>
      </trkpt>
      <trkpt lat="45.82993" lon="4.67573">
        <ele>284.69</ele>
        <time>2014-01-25T13:58:26Z</time>
      </trkpt>
      <trkpt lat="45.82961" lon="4.67563">
        <ele>286.13</ele>
        <time>2014-01-25T13:58:35Z</time>
      </trkpt>
      <trkpt lat="45.82925" lon="4.67549">
        <ele>288.05</ele>
        <time>2014-01-25T13:58:47Z</time>
      </trkpt>
      <trkpt lat="45.82894" lon="4.67521">
        <ele>289.97</ele>
        <time>2014-01-25T13:59:00Z</time>
      </trkpt>
      <trkpt lat="45.82871" lon="4.67494">
        <ele>290.94</ele>
        <time>2014-01-25T13:59:10Z</time>
      </trkpt>
      <trkpt lat="45.82841" lon="4.67454">
        <ele>292.38</ele>
        <time>2014-01-25T13:59:24Z</time>
      </trkpt>
      <trkpt lat="45.82811" lon="4.67416">
        <ele>292.86</ele>
        <time>2014-01-25T13:59:37Z</time>
      </trkpt>
      <trkpt lat="45.8278" lon="4.67376">
        <ele>293.82</ele>
        <time>2014-01-25T13:59:50Z</time>
      </trkpt>
      <trkpt lat="45.8275" lon="4.67335">
        <ele>294.78</ele>
        <time>2014-01-25T14:00:03Z</time>
      </trkpt>
      <trkpt lat="45.82714" lon="4.6729">
        <ele>294.78</ele>
        <time>2014-01-25T14:00:16Z</time>
      </trkpt>
      <trkpt lat="45.82677" lon="4.67242">
        <ele>295.74</ele>
        <time>2014-01-25T14:00:30Z</time>
      </trkpt>
      <trkpt lat="45.82642" lon="4.67201">
        <ele>297.18</ele>
        <time>2014-01-25T14:00:44Z</time>
      </trkpt>
      <trkpt lat="45.82625" lon="4.67174">
        <ele>298.15</ele>
        <time>2014-01-25T14:00:53Z</time>
      </trkpt>
      <trkpt lat="45.82593" lon="4.67157">
        <ele>299.59</ele>
        <time>2014-01-25T14:01:04Z</time>
      </trkpt>
      <trkpt lat="45.82561" lon="4.67142">
        <ele>300.55</ele>
        <time>2014-01-25T14:01:16Z</time>
      </trkpt>
      <trkpt lat="45.82527" lon="4.67128">
        <ele>302.95</ele>
        <time>2014-01-25T14:01:30Z</time>
      </trkpt>
      <trkpt lat="45.82507" lon="4.67121">
        <ele>303.91</ele>
        <time>2014-01-25T14:01:38Z</time>
      </trkpt>
      <trkpt lat="45.82472" lon="4.67106">
        <ele>304.39</ele>
        <time>2014-01-25T14:01:51Z</time>
      </trkpt>
      <trkpt lat="45.82453" lon="4.67104">
        <ele>303.91</ele>
        <time>2014-01-25T14:02:01Z</time>
      </trkpt>
      <trkpt lat="45.82448" lon="4.67104">
        <ele>303.91</ele>
        <time>2014-01-25T14:02:04Z</time>
      </trkpt>
      <trkpt lat="45.82446" lon="4.67101">
        <ele>303.91</ele>
        <time>2014-01-25T14:02:10Z</time>
      </trkpt>
      <trkpt lat="45.82444" lon="4.67101">
        <ele>303.43</ele>
        <time>2014-01-25T14:02:11Z</time>
      </trkpt>
      <trkpt lat="45.82443" lon="4.67101">
        <ele>303.43</ele>
        <time>2014-01-25T14:02:12Z</time>
      </trkpt>
      <trkpt lat="45.82441" lon="4.671">
        <ele>303.43</ele>
        <time>2014-01-25T14:02:13Z</time>
      </trkpt>
      <trkpt lat="45.82438" lon="4.67099">
        <ele>302.95</ele>
        <time>2014-01-25T14:02:14Z</time>
      </trkpt>
      <trkpt lat="45.82435" lon="4.67097">
        <ele>302.95</ele>
        <time>2014-01-25T14:02:15Z</time>
      </trkpt>
      <trkpt lat="45.82432" lon="4.67095">
        <ele>302.95</ele>
        <time>2014-01-25T14:02:16Z</time>
      </trkpt>
      <trkpt lat="45.82425" lon="4.67085">
        <ele>302.95</ele>
        <time>2014-01-25T14:02:20Z</time>
      </trkpt>
      <trkpt lat="45.82424" lon="4.67082">
        <ele>302.95</ele>
        <time>2014-01-25T14:02:21Z</time>
      </trkpt>
      <trkpt lat="45.82424" lon="4.6708">
        <ele>302.95</ele>
        <time>2014-01-25T14:02:22Z</time>
      </trkpt>
      <trkpt lat="45.82424" lon="4.67077">
        <ele>302.47</ele>
        <time>2014-01-25T14:02:23Z</time>
      </trkpt>
      <trkpt lat="45.82423" lon="4.67074">
        <ele>303.91</ele>
        <time>2014-01-25T14:02:30Z</time>
      </trkpt>
      <trkpt lat="45.82424" lon="4.6707">
        <ele>303.43</ele>
        <time>2014-01-25T14:02:32Z</time>
      </trkpt>
      <trkpt lat="45.82424" lon="4.67068">
        <ele>303.43</ele>
        <time>2014-01-25T14:02:33Z</time>
      </trkpt>
      <trkpt lat="45.82424" lon="4.67066">
        <ele>303.43</ele>
        <time>2014-01-25T14:02:34Z</time>
      </trkpt>
      <trkpt lat="45.82434" lon="4.67038">
        <ele>303.43</ele>
        <time>2014-01-25T14:02:46Z</time>
      </trkpt>
      <trkpt lat="45.82435" lon="4.67036">
        <ele>303.43</ele>
        <time>2014-01-25T14:02:47Z</time>
      </trkpt>
      <trkpt lat="45.82435" lon="4.67022">
        <ele>302.95</ele>
        <time>2014-01-25T14:02:51Z</time>
      </trkpt>
      <trkpt lat="45.82412" lon="4.66983">
        <ele>301.51</ele>
        <time>2014-01-25T14:03:00Z</time>
      </trkpt>
      <trkpt lat="45.82375" lon="4.66918">
        <ele>299.11</ele>
        <time>2014-01-25T14:03:11Z</time>
      </trkpt>
      <trkpt lat="45.82353" lon="4.6689">
        <ele>297.67</ele>
        <time>2014-01-25T14:03:16Z</time>
      </trkpt>
      <trkpt lat="45.82336" lon="4.66876">
        <ele>297.18</ele>
        <time>2014-01-25T14:03:20Z</time>
      </trkpt>
      <trkpt lat="45.82332" lon="4.66874">
        <ele>295.74</ele>
        <time>2014-01-25T14:03:21Z</time>
      </trkpt>
      <trkpt lat="45.82329" lon="4.66872">
        <ele>295.74</ele>
        <time>2014-01-25T14:03:22Z</time>
      </trkpt>
      <trkpt lat="45.82327" lon="4.66869">
        <ele>296.22</ele>
        <time>2014-01-25T14:03:23Z</time>
      </trkpt>
      <trkpt lat="45.82326" lon="4.66867">
        <ele>295.74</ele>
        <time>2014-01-25T14:03:24Z</time>
      </trkpt>
      <trkpt lat="45.82325" lon="4.66864">
        <ele>295.26</ele>
        <time>2014-01-25T14:03:25Z</time>
      </trkpt>
      <trkpt lat="45.82325" lon="4.66861">
        <ele>295.74</ele>
        <time>2014-01-25T14:03:26Z</time>
      </trkpt>
      <trkpt lat="45.82323" lon="4.66859">
        <ele>295.74</ele>
        <time>2014-01-25T14:03:27Z</time>
      </trkpt>
      <trkpt lat="45.8232" lon="4.66857">
        <ele>295.74</ele>
        <time>2014-01-25T14:03:28Z</time>
      </trkpt>
      <trkpt lat="45.82317" lon="4.66856">
        <ele>295.26</ele>
        <time>2014-01-25T14:03:29Z</time>
      </trkpt>
      <trkpt lat="45.82313" lon="4.66856">
        <ele>295.74</ele>
        <time>2014-01-25T14:03:30Z</time>
      </trkpt>
      <trkpt lat="45.82309" lon="4.66856">
        <ele>295.74</ele>
        <time>2014-01-25T14:03:31Z</time>
      </trkpt>
      <trkpt lat="45.82305" lon="4.66857">
        <ele>295.74</ele>
        <time>2014-01-25T14:03:32Z</time>
      </trkpt>
      <trkpt lat="45.82253" lon="4.66861">
        <ele>294.3</ele>
        <time>2014-01-25T14:03:42Z</time>
      </trkpt>
      <trkpt lat="45.82167" lon="4.66873">
        <ele>292.38</ele>
        <time>2014-01-25T14:03:55Z</time>
      </trkpt>
      <trkpt lat="45.82161" lon="4.66872">
        <ele>292.38</ele>
        <time>2014-01-25T14:03:56Z</time>
      </trkpt>
      <trkpt lat="45.82154" lon="4.66869">
        <ele>292.38</ele>
        <time>2014-01-25T14:03:57Z</time>
      </trkpt>
      <trkpt lat="45.82149" lon="4.66865">
        <ele>292.38</ele>
        <time>2014-01-25T14:03:58Z</time>
      </trkpt>
      <trkpt lat="45.82144" lon="4.66861">
        <ele>292.38</ele>
        <time>2014-01-25T14:03:59Z</time>
      </trkpt>
      <trkpt lat="45.82138" lon="4.66858">
        <ele>293.34</ele>
        <time>2014-01-25T14:04:00Z</time>
      </trkpt>
      <trkpt lat="45.82133" lon="4.66856">
        <ele>292.86</ele>
        <time>2014-01-25T14:04:01Z</time>
      </trkpt>
      <trkpt lat="45.82128" lon="4.66852">
        <ele>292.38</ele>
        <time>2014-01-25T14:04:02Z</time>
      </trkpt>
      <trkpt lat="45.82125" lon="4.66847">
        <ele>292.86</ele>
        <time>2014-01-25T14:04:03Z</time>
      </trkpt>
      <trkpt lat="45.8211" lon="4.66826">
        <ele>293.82</ele>
        <time>2014-01-25T14:04:07Z</time>
      </trkpt>
      <trkpt lat="45.82105" lon="4.66822">
        <ele>293.34</ele>
        <time>2014-01-25T14:04:08Z</time>
      </trkpt>
      <trkpt lat="45.82101" lon="4.66817">
        <ele>293.82</ele>
        <time>2014-01-25T14:04:09Z</time>
      </trkpt>
      <trkpt lat="45.82094" lon="4.66806">
        <ele>294.78</ele>
        <time>2014-01-25T14:04:11Z</time>
      </trkpt>
      <trkpt lat="45.8209" lon="4.66802">
        <ele>294.3</ele>
        <time>2014-01-25T14:04:12Z</time>
      </trkpt>
      <trkpt lat="45.82087" lon="4.66797">
        <ele>294.78</ele>
        <time>2014-01-25T14:04:13Z</time>
      </trkpt>
      <trkpt lat="45.82086" lon="4.66792">
        <ele>295.26</ele>
        <time>2014-01-25T14:04:14Z</time>
      </trkpt>
      <trkpt lat="45.82087" lon="4.66787">
        <ele>295.26</ele>
        <time>2014-01-25T14:04:15Z</time>
      </trkpt>
      <trkpt lat="45.8209" lon="4.66785">
        <ele>295.74</ele>
        <time>2014-01-25T14:04:16Z</time>
      </trkpt>
      <trkpt lat="45.82094" lon="4.66785">
        <ele>295.74</ele>
        <time>2014-01-25T14:04:17Z</time>
      </trkpt>
      <trkpt lat="45.82098" lon="4.66787">
        <ele>296.22</ele>
        <time>2014-01-25T14:04:18Z</time>
      </trkpt>
      <trkpt lat="45.82101" lon="4.66789">
        <ele>296.22</ele>
        <time>2014-01-25T14:04:19Z</time>
      </trkpt>
      <trkpt lat="45.82105" lon="4.66791">
        <ele>296.7</ele>
        <time>2014-01-25T14:04:20Z</time>
      </trkpt>
      <trkpt lat="45.82108" lon="4.66791">
        <ele>297.18</ele>
        <time>2014-01-25T14:04:21Z</time>
      </trkpt>
      <trkpt lat="45.82112" lon="4.6679">
        <ele>296.7</ele>
        <time>2014-01-25T14:04:22Z</time>
      </trkpt>
      <trkpt lat="45.82115" lon="4.66787">
        <ele>296.7</ele>
        <time>2014-01-25T14:04:23Z</time>
      </trkpt>
      <trkpt lat="45.82118" lon="4.66782">
        <ele>296.7</ele>
        <time>2014-01-25T14:04:24Z</time>
      </trkpt>
      <trkpt lat="45.8212" lon="4.66778">
        <ele>296.7</ele>
        <time>2014-01-25T14:04:25Z</time>
      </trkpt>
      <trkpt lat="45.82123" lon="4.66774">
        <ele>297.18</ele>
        <time>2014-01-25T14:04:26Z</time>
      </trkpt>
      <trkpt lat="45.82145" lon="4.66731">
        <ele>298.63</ele>
        <time>2014-01-25T14:04:37Z</time>
      </trkpt>
      <trkpt lat="45.82155" lon="4.66701">
        <ele>299.59</ele>
        <time>2014-01-25T14:04:45Z</time>
      </trkpt>
      <trkpt lat="45.82153" lon="4.66697">
        <ele>300.07</ele>
        <time>2014-01-25T14:04:46Z</time>
      </trkpt>
      <trkpt lat="45.8214" lon="4.66667">
        <ele>302.95</ele>
        <time>2014-01-25T14:04:57Z</time>
      </trkpt>
      <trkpt lat="45.82139" lon="4.66637">
        <ele>303.91</ele>
        <time>2014-01-25T14:05:06Z</time>
      </trkpt>
      <trkpt lat="45.82138" lon="4.66617">
        <ele>304.39</ele>
        <time>2014-01-25T14:05:14Z</time>
      </trkpt>
      <trkpt lat="45.82136" lon="4.66575">
        <ele>305.84</ele>
        <time>2014-01-25T14:05:27Z</time>
      </trkpt>
      <trkpt lat="45.82138" lon="4.66546">
        <ele>306.8</ele>
        <time>2014-01-25T14:05:36Z</time>
      </trkpt>
      <trkpt lat="45.82141" lon="4.66519">
        <ele>307.28</ele>
        <time>2014-01-25T14:05:45Z</time>
      </trkpt>
      <trkpt lat="45.82144" lon="4.66469">
        <ele>306.8</ele>
        <time>2014-01-25T14:05:56Z</time>
      </trkpt>
      <trkpt lat="45.82145" lon="4.66412">
        <ele>307.28</ele>
        <time>2014-01-25T14:06:07Z</time>
      </trkpt>
      <trkpt lat="45.82147" lon="4.66366">
        <ele>308.72</ele>
        <time>2014-01-25T14:06:18Z</time>
      </trkpt>
      <trkpt lat="45.82149" lon="4.66336">
        <ele>309.2</ele>
        <time>2014-01-25T14:06:26Z</time>
      </trkpt>
      <trkpt lat="45.82153" lon="4.66298">
        <ele>310.16</ele>
        <time>2014-01-25T14:06:36Z</time>
      </trkpt>
      <trkpt lat="45.8215" lon="4.66258">
        <ele>313.05</ele>
        <time>2014-01-25T14:06:48Z</time>
      </trkpt>
      <trkpt lat="45.82146" lon="4.66226">
        <ele>314.97</ele>
        <time>2014-01-25T14:06:58Z</time>
      </trkpt>
      <trkpt lat="45.82144" lon="4.66208">
        <ele>314.97</ele>
        <time>2014-01-25T14:07:04Z</time>
      </trkpt>
      <trkpt lat="45.82144" lon="4.66205">
        <ele>315.45</ele>
        <time>2014-01-25T14:07:05Z</time>
      </trkpt>
      <trkpt lat="45.82139" lon="4.66169">
        <ele>317.85</ele>
        <time>2014-01-25T14:07:17Z</time>
      </trkpt>
      <trkpt lat="45.82132" lon="4.66129">
        <ele>318.33</ele>
        <time>2014-01-25T14:07:30Z</time>
      </trkpt>
      <trkpt lat="45.82125" lon="4.66107">
        <ele>317.37</ele>
        <time>2014-01-25T14:07:40Z</time>
      </trkpt>
      <trkpt lat="45.82125" lon="4.66107">
        <ele>317.37</ele>
        <time>2014-01-25T14:08:02Z</time>
      </trkpt>
      <trkpt lat="45.82124" lon="4.66105">
        <ele>316.89</ele>
        <time>2014-01-25T14:08:06Z</time>
      </trkpt>
      <trkpt lat="45.82124" lon="4.66103">
        <ele>317.37</ele>
        <time>2014-01-25T14:08:07Z</time>
      </trkpt>
      <trkpt lat="45.82118" lon="4.66063">
        <ele>315.45</ele>
        <time>2014-01-25T14:08:15Z</time>
      </trkpt>
      <trkpt lat="45.82111" lon="4.66022">
        <ele>312.09</ele>
        <time>2014-01-25T14:08:21Z</time>
      </trkpt>
      <trkpt lat="45.82108" lon="4.65996">
        <ele>310.64</ele>
        <time>2014-01-25T14:08:24Z</time>
      </trkpt>
      <trkpt lat="45.82104" lon="4.65963">
        <ele>306.8</ele>
        <time>2014-01-25T14:08:27Z</time>
      </trkpt>
      <trkpt lat="45.82101" lon="4.65918">
        <ele>303.43</ele>
        <time>2014-01-25T14:08:31Z</time>
      </trkpt>
      <trkpt lat="45.82099" lon="4.65907">
        <ele>302.47</ele>
        <time>2014-01-25T14:08:32Z</time>
      </trkpt>
      <trkpt lat="45.82082" lon="4.65841">
        <ele>299.59</ele>
        <time>2014-01-25T14:08:38Z</time>
      </trkpt>
      <trkpt lat="45.8208" lon="4.65828">
        <ele>299.59</ele>
        <time>2014-01-25T14:08:39Z</time>
      </trkpt>
      <trkpt lat="45.82073" lon="4.65745">
        <ele>298.15</ele>
        <time>2014-01-25T14:08:47Z</time>
      </trkpt>
      <trkpt lat="45.82073" lon="4.65739">
        <ele>298.63</ele>
        <time>2014-01-25T14:08:48Z</time>
      </trkpt>
      <trkpt lat="45.82073" lon="4.65734">
        <ele>298.15</ele>
        <time>2014-01-25T14:08:49Z</time>
      </trkpt>
      <trkpt lat="45.82073" lon="4.6573">
        <ele>298.15</ele>
        <time>2014-01-25T14:08:50Z</time>
      </trkpt>
      <trkpt lat="45.82074" lon="4.65726">
        <ele>297.67</ele>
        <time>2014-01-25T14:08:51Z</time>
      </trkpt>
      <trkpt lat="45.82075" lon="4.65723">
        <ele>298.15</ele>
        <time>2014-01-25T14:08:52Z</time>
      </trkpt>
      <trkpt lat="45.82076" lon="4.6572">
        <ele>298.15</ele>
        <time>2014-01-25T14:08:53Z</time>
      </trkpt>
      <trkpt lat="45.82078" lon="4.65718">
        <ele>297.67</ele>
        <time>2014-01-25T14:08:54Z</time>
      </trkpt>
      <trkpt lat="45.8208" lon="4.65717">
        <ele>297.18</ele>
        <time>2014-01-25T14:08:55Z</time>
      </trkpt>
      <trkpt lat="45.82081" lon="4.65715">
        <ele>297.18</ele>
        <time>2014-01-25T14:08:56Z</time>
      </trkpt>
      <trkpt lat="45.82082" lon="4.65714">
        <ele>297.18</ele>
        <time>2014-01-25T14:09:05Z</time>
      </trkpt>
      <trkpt lat="45.82082" lon="4.65713">
        <ele>296.7</ele>
        <time>2014-01-25T14:09:13Z</time>
      </trkpt>
      <trkpt lat="45.82099" lon="4.65702">
        <ele>296.22</ele>
        <time>2014-01-25T14:09:20Z</time>
      </trkpt>
      <trkpt lat="45.82105" lon="4.65699">
        <ele>295.74</ele>
        <time>2014-01-25T14:09:22Z</time>
      </trkpt>
      <trkpt lat="45.82139" lon="4.65694">
        <ele>295.26</ele>
        <time>2014-01-25T14:09:30Z</time>
      </trkpt>
      <trkpt lat="45.8219" lon="4.65689">
        <ele>291.42</ele>
        <time>2014-01-25T14:09:39Z</time>
      </trkpt>
      <trkpt lat="45.82223" lon="4.65688">
        <ele>289.97</ele>
        <time>2014-01-25T14:09:44Z</time>
      </trkpt>
      <trkpt lat="45.8223" lon="4.65685">
        <ele>289.01</ele>
        <time>2014-01-25T14:09:45Z</time>
      </trkpt>
      <trkpt lat="45.82237" lon="4.6568">
        <ele>288.05</ele>
        <time>2014-01-25T14:09:46Z</time>
      </trkpt>
      <trkpt lat="45.82245" lon="4.65675">
        <ele>286.13</ele>
        <time>2014-01-25T14:09:47Z</time>
      </trkpt>
      <trkpt lat="45.82253" lon="4.65668">
        <ele>285.17</ele>
        <time>2014-01-25T14:09:48Z</time>
      </trkpt>
      <trkpt lat="45.82282" lon="4.65641">
        <ele>281.32</ele>
        <time>2014-01-25T14:09:52Z</time>
      </trkpt>
      <trkpt lat="45.82289" lon="4.65635">
        <ele>280.84</ele>
        <time>2014-01-25T14:09:53Z</time>
      </trkpt>
      <trkpt lat="45.82297" lon="4.65632">
        <ele>280.36</ele>
        <time>2014-01-25T14:09:54Z</time>
      </trkpt>
      <trkpt lat="45.82314" lon="4.65627">
        <ele>279.4</ele>
        <time>2014-01-25T14:09:56Z</time>
      </trkpt>
      <trkpt lat="45.82342" lon="4.65621">
        <ele>281.8</ele>
        <time>2014-01-25T14:10:00Z</time>
      </trkpt>
      <trkpt lat="45.82357" lon="4.65613">
        <ele>284.69</ele>
        <time>2014-01-25T14:10:04Z</time>
      </trkpt>
      <trkpt lat="45.82373" lon="4.65601">
        <ele>287.09</ele>
        <time>2014-01-25T14:10:13Z</time>
      </trkpt>
      <trkpt lat="45.82391" lon="4.65587">
        <ele>290.46</ele>
        <time>2014-01-25T14:10:24Z</time>
      </trkpt>
      <trkpt lat="45.82392" lon="4.65585">
        <ele>290.94</ele>
        <time>2014-01-25T14:10:25Z</time>
      </trkpt>
      <trkpt lat="45.82402" lon="4.65577">
        <ele>292.38</ele>
        <time>2014-01-25T14:10:32Z</time>
      </trkpt>
      <trkpt lat="45.82416" lon="4.65565">
        <ele>294.78</ele>
        <time>2014-01-25T14:10:42Z</time>
      </trkpt>
      <trkpt lat="45.82432" lon="4.65545">
        <ele>297.18</ele>
        <time>2014-01-25T14:10:56Z</time>
      </trkpt>
      <trkpt lat="45.8244" lon="4.65524">
        <ele>298.63</ele>
        <time>2014-01-25T14:11:08Z</time>
      </trkpt>
      <trkpt lat="45.82444" lon="4.65502">
        <ele>300.07</ele>
        <time>2014-01-25T14:11:20Z</time>
      </trkpt>
      <trkpt lat="45.82443" lon="4.65499">
        <ele>300.07</ele>
        <time>2014-01-25T14:11:21Z</time>
      </trkpt>
      <trkpt lat="45.82443" lon="4.65498">
        <ele>300.55</ele>
        <time>2014-01-25T14:11:22Z</time>
      </trkpt>
      <trkpt lat="45.82443" lon="4.65496">
        <ele>300.55</ele>
        <time>2014-01-25T14:11:23Z</time>
      </trkpt>
      <trkpt lat="45.82443" lon="4.65485">
        <ele>301.03</ele>
        <time>2014-01-25T14:11:29Z</time>
      </trkpt>
      <trkpt lat="45.82439" lon="4.65469">
        <ele>302.95</ele>
        <time>2014-01-25T14:11:39Z</time>
      </trkpt>
      <trkpt lat="45.82439" lon="4.65467">
        <ele>302.47</ele>
        <time>2014-01-25T14:11:40Z</time>
      </trkpt>
      <trkpt lat="45.82432" lon="4.65452">
        <ele>303.91</ele>
        <time>2014-01-25T14:11:50Z</time>
      </trkpt>
      <trkpt lat="45.8242" lon="4.65436">
        <ele>305.84</ele>
        <time>2014-01-25T14:12:00Z</time>
      </trkpt>
      <trkpt lat="45.82403" lon="4.65424">
        <ele>306.8</ele>
        <time>2014-01-25T14:12:11Z</time>
      </trkpt>
      <trkpt lat="45.82395" lon="4.65421">
        <ele>307.28</ele>
        <time>2014-01-25T14:12:16Z</time>
      </trkpt>
      <trkpt lat="45.82393" lon="4.6542">
        <ele>307.28</ele>
        <time>2014-01-25T14:12:17Z</time>
      </trkpt>
      <trkpt lat="45.82391" lon="4.65419">
        <ele>307.28</ele>
        <time>2014-01-25T14:12:18Z</time>
      </trkpt>
      <trkpt lat="45.82387" lon="4.65418">
        <ele>307.76</ele>
        <time>2014-01-25T14:12:21Z</time>
      </trkpt>
      <trkpt lat="45.82386" lon="4.65419">
        <ele>307.76</ele>
        <time>2014-01-25T14:12:22Z</time>
      </trkpt>
      <trkpt lat="45.82384" lon="4.65418">
        <ele>308.24</ele>
        <time>2014-01-25T14:12:23Z</time>
      </trkpt>
      <trkpt lat="45.82382" lon="4.65418">
        <ele>308.24</ele>
        <time>2014-01-25T14:12:24Z</time>
      </trkpt>
      <trkpt lat="45.8238" lon="4.65419">
        <ele>308.24</ele>
        <time>2014-01-25T14:12:25Z</time>
      </trkpt>
      <trkpt lat="45.82379" lon="4.65419">
        <ele>308.24</ele>
        <time>2014-01-25T14:12:26Z</time>
      </trkpt>
      <trkpt lat="45.82377" lon="4.65419">
        <ele>308.24</ele>
        <time>2014-01-25T14:12:27Z</time>
      </trkpt>
      <trkpt lat="45.82375" lon="4.65419">
        <ele>308.24</ele>
        <time>2014-01-25T14:12:28Z</time>
      </trkpt>
      <trkpt lat="45.82354" lon="4.65425">
        <ele>309.68</ele>
        <time>2014-01-25T14:12:41Z</time>
      </trkpt>
      <trkpt lat="45.82334" lon="4.65427">
        <ele>309.68</ele>
        <time>2014-01-25T14:12:53Z</time>
      </trkpt>
      <trkpt lat="45.82315" lon="4.65423">
        <ele>311.6</ele>
        <time>2014-01-25T14:13:05Z</time>
      </trkpt>
      <trkpt lat="45.82293" lon="4.65418">
        <ele>313.05</ele>
        <time>2014-01-25T14:13:18Z</time>
      </trkpt>
      <trkpt lat="45.82273" lon="4.65412">
        <ele>314.01</ele>
        <time>2014-01-25T14:13:30Z</time>
      </trkpt>
      <trkpt lat="45.82252" lon="4.65405">
        <ele>314.49</ele>
        <time>2014-01-25T14:13:42Z</time>
      </trkpt>
      <trkpt lat="45.82229" lon="4.65391">
        <ele>316.41</ele>
        <time>2014-01-25T14:13:56Z</time>
      </trkpt>
      <trkpt lat="45.82223" lon="4.65367">
        <ele>318.33</ele>
        <time>2014-01-25T14:14:06Z</time>
      </trkpt>
      <trkpt lat="45.82234" lon="4.65338">
        <ele>320.26</ele>
        <time>2014-01-25T14:14:18Z</time>
      </trkpt>
      <trkpt lat="45.82249" lon="4.65301">
        <ele>321.7</ele>
        <time>2014-01-25T14:14:33Z</time>
      </trkpt>
      <trkpt lat="45.82264" lon="4.65268">
        <ele>323.62</ele>
        <time>2014-01-25T14:14:47Z</time>
      </trkpt>
      <trkpt lat="45.82279" lon="4.65239">
        <ele>324.1</ele>
        <time>2014-01-25T14:14:59Z</time>
      </trkpt>
      <trkpt lat="45.82297" lon="4.65204">
        <ele>324.58</ele>
        <time>2014-01-25T14:15:11Z</time>
      </trkpt>
      <trkpt lat="45.82313" lon="4.65174">
        <ele>325.06</ele>
        <time>2014-01-25T14:15:21Z</time>
      </trkpt>
      <trkpt lat="45.82337" lon="4.65134">
        <ele>325.06</ele>
        <time>2014-01-25T14:15:32Z</time>
      </trkpt>
      <trkpt lat="45.82342" lon="4.65127">
        <ele>324.58</ele>
        <time>2014-01-25T14:15:34Z</time>
      </trkpt>
      <trkpt lat="45.82346" lon="4.65122">
        <ele>324.58</ele>
        <time>2014-01-25T14:15:35Z</time>
      </trkpt>
      <trkpt lat="45.82366" lon="4.651">
        <ele>323.14</ele>
        <time>2014-01-25T14:15:40Z</time>
      </trkpt>
      <trkpt lat="45.8237" lon="4.65094">
        <ele>322.18</ele>
        <time>2014-01-25T14:15:41Z</time>
      </trkpt>
      <trkpt lat="45.82404" lon="4.65021">
        <ele>321.22</ele>
        <time>2014-01-25T14:15:53Z</time>
      </trkpt>
      <trkpt lat="45.82411" lon="4.65003">
        <ele>321.22</ele>
        <time>2014-01-25T14:16:00Z</time>
      </trkpt>
      <trkpt lat="45.82411" lon="4.65003">
        <ele>321.22</ele>
        <time>2014-01-25T14:16:29Z</time>
      </trkpt>
      <trkpt lat="45.82413" lon="4.65003">
        <ele>320.74</ele>
        <time>2014-01-25T14:16:44Z</time>
      </trkpt>
      <trkpt lat="45.82413" lon="4.65003">
        <ele>321.22</ele>
        <time>2014-01-25T14:17:08Z</time>
      </trkpt>
      <trkpt lat="45.82413" lon="4.65003">
        <ele>320.74</ele>
        <time>2014-01-25T14:17:33Z</time>
      </trkpt>
      <trkpt lat="45.82413" lon="4.65003">
        <ele>320.26</ele>
        <time>2014-01-25T14:17:49Z</time>
      </trkpt>
      <trkpt lat="45.82413" lon="4.65003">
        <ele>320.26</ele>
        <time>2014-01-25T14:18:05Z</time>
      </trkpt>
      <trkpt lat="45.82413" lon="4.65003">
        <ele>320.26</ele>
        <time>2014-01-25T14:18:09Z</time>
      </trkpt>
      <trkpt lat="45.82414" lon="4.65001">
        <ele>319.78</ele>
        <time>2014-01-25T14:18:10Z</time>
      </trkpt>
      <trkpt lat="45.82416" lon="4.64999">
        <ele>320.26</ele>
        <time>2014-01-25T14:18:11Z</time>
      </trkpt>
      <trkpt lat="45.82418" lon="4.64996">
        <ele>319.3</ele>
        <time>2014-01-25T14:18:12Z</time>
      </trkpt>
      <trkpt lat="45.8242" lon="4.64993">
        <ele>318.81</ele>
        <time>2014-01-25T14:18:13Z</time>
      </trkpt>
      <trkpt lat="45.82423" lon="4.6499">
        <ele>318.81</ele>
        <time>2014-01-25T14:18:14Z</time>
      </trkpt>
      <trkpt lat="45.82438" lon="4.64965">
        <ele>317.37</ele>
        <time>2014-01-25T14:18:22Z</time>
      </trkpt>
      <trkpt lat="45.82444" lon="4.64949">
        <ele>317.37</ele>
        <time>2014-01-25T14:18:30Z</time>
      </trkpt>
      <trkpt lat="45.82447" lon="4.6494">
        <ele>316.89</ele>
        <time>2014-01-25T14:18:33Z</time>
      </trkpt>
      <trkpt lat="45.82447" lon="4.64937">
        <ele>316.41</ele>
        <time>2014-01-25T14:18:34Z</time>
      </trkpt>
      <trkpt lat="45.82448" lon="4.64934">
        <ele>316.41</ele>
        <time>2014-01-25T14:18:35Z</time>
      </trkpt>
      <trkpt lat="45.8246" lon="4.64907">
        <ele>313.53</ele>
        <time>2014-01-25T14:18:44Z</time>
      </trkpt>
      <trkpt lat="45.82462" lon="4.64903">
        <ele>313.05</ele>
        <time>2014-01-25T14:18:45Z</time>
      </trkpt>
      <trkpt lat="45.82465" lon="4.64896">
        <ele>312.09</ele>
        <time>2014-01-25T14:18:47Z</time>
      </trkpt>
      <trkpt lat="45.82467" lon="4.64892">
        <ele>312.09</ele>
        <time>2014-01-25T14:18:48Z</time>
      </trkpt>
      <trkpt lat="45.82469" lon="4.64889">
        <ele>312.09</ele>
        <time>2014-01-25T14:18:49Z</time>
      </trkpt>
      <trkpt lat="45.82486" lon="4.64864">
        <ele>309.2</ele>
        <time>2014-01-25T14:18:57Z</time>
      </trkpt>
      <trkpt lat="45.82491" lon="4.6486">
        <ele>307.76</ele>
        <time>2014-01-25T14:19:05Z</time>
      </trkpt>
      <trkpt lat="45.82491" lon="4.6486">
        <ele>307.28</ele>
        <time>2014-01-25T14:19:09Z</time>
      </trkpt>
      <trkpt lat="45.82498" lon="4.64848">
        <ele>306.32</ele>
        <time>2014-01-25T14:19:15Z</time>
      </trkpt>
      <trkpt lat="45.82509" lon="4.64836">
        <ele>304.39</ele>
        <time>2014-01-25T14:19:25Z</time>
      </trkpt>
      <trkpt lat="45.82511" lon="4.64831">
        <ele>303.43</ele>
        <time>2014-01-25T14:19:28Z</time>
      </trkpt>
      <trkpt lat="45.82514" lon="4.64829">
        <ele>303.43</ele>
        <time>2014-01-25T14:19:29Z</time>
      </trkpt>
      <trkpt lat="45.82515" lon="4.64827">
        <ele>302.95</ele>
        <time>2014-01-25T14:19:30Z</time>
      </trkpt>
      <trkpt lat="45.82517" lon="4.64825">
        <ele>302.95</ele>
        <time>2014-01-25T14:19:31Z</time>
      </trkpt>
      <trkpt lat="45.82518" lon="4.64823">
        <ele>302.47</ele>
        <time>2014-01-25T14:19:32Z</time>
      </trkpt>
      <trkpt lat="45.8252" lon="4.64821">
        <ele>302.47</ele>
        <time>2014-01-25T14:19:33Z</time>
      </trkpt>
      <trkpt lat="45.82522" lon="4.64818">
        <ele>301.99</ele>
        <time>2014-01-25T14:19:43Z</time>
      </trkpt>
      <trkpt lat="45.82522" lon="4.64818">
        <ele>301.51</ele>
        <time>2014-01-25T14:19:58Z</time>
      </trkpt>
      <trkpt lat="45.82522" lon="4.64816">
        <ele>301.03</ele>
        <time>2014-01-25T14:20:15Z</time>
      </trkpt>
      <trkpt lat="45.82525" lon="4.64813">
        <ele>300.07</ele>
        <time>2014-01-25T14:20:34Z</time>
      </trkpt>
      <trkpt lat="45.82527" lon="4.64809">
        <ele>300.55</ele>
        <time>2014-01-25T14:20:45Z</time>
      </trkpt>
      <trkpt lat="45.8253" lon="4.64806">
        <ele>300.55</ele>
        <time>2014-01-25T14:20:58Z</time>
      </trkpt>
      <trkpt lat="45.8253" lon="4.64806">
        <ele>300.55</ele>
        <time>2014-01-25T14:21:15Z</time>
      </trkpt>
      <trkpt lat="45.82536" lon="4.64797">
        <ele>300.55</ele>
        <time>2014-01-25T14:21:30Z</time>
      </trkpt>
      <trkpt lat="45.82544" lon="4.64784">
        <ele>301.03</ele>
        <time>2014-01-25T14:21:38Z</time>
      </trkpt>
      <trkpt lat="45.82547" lon="4.6478">
        <ele>300.55</ele>
        <time>2014-01-25T14:21:41Z</time>
      </trkpt>
      <trkpt lat="45.82548" lon="4.64779">
        <ele>301.03</ele>
        <time>2014-01-25T14:21:42Z</time>
      </trkpt>
      <trkpt lat="45.8255" lon="4.64777">
        <ele>301.51</ele>
        <time>2014-01-25T14:21:43Z</time>
      </trkpt>
      <trkpt lat="45.82551" lon="4.64774">
        <ele>301.51</ele>
        <time>2014-01-25T14:21:44Z</time>
      </trkpt>
      <trkpt lat="45.82553" lon="4.64773">
        <ele>301.51</ele>
        <time>2014-01-25T14:21:45Z</time>
      </trkpt>
      <trkpt lat="45.82554" lon="4.64771">
        <ele>301.03</ele>
        <time>2014-01-25T14:21:53Z</time>
      </trkpt>
      <trkpt lat="45.82554" lon="4.64771">
        <ele>301.03</ele>
        <time>2014-01-25T14:22:03Z</time>
      </trkpt>
      <trkpt lat="45.82564" lon="4.64766">
        <ele>302.95</ele>
        <time>2014-01-25T14:22:13Z</time>
      </trkpt>
      <trkpt lat="45.82566" lon="4.64763">
        <ele>303.91</ele>
        <time>2014-01-25T14:22:22Z</time>
      </trkpt>
      <trkpt lat="45.82579" lon="4.64741">
        <ele>304.39</ele>
        <time>2014-01-25T14:22:33Z</time>
      </trkpt>
      <trkpt lat="45.82581" lon="4.64729">
        <ele>304.88</ele>
        <time>2014-01-25T14:22:38Z</time>
      </trkpt>
      <trkpt lat="45.82581" lon="4.64726">
        <ele>304.39</ele>
        <time>2014-01-25T14:22:39Z</time>
      </trkpt>
      <trkpt lat="45.82581" lon="4.64724">
        <ele>304.39</ele>
        <time>2014-01-25T14:22:40Z</time>
      </trkpt>
      <trkpt lat="45.82581" lon="4.64722">
        <ele>304.39</ele>
        <time>2014-01-25T14:22:41Z</time>
      </trkpt>
      <trkpt lat="45.82581" lon="4.64719">
        <ele>304.39</ele>
        <time>2014-01-25T14:22:42Z</time>
      </trkpt>
      <trkpt lat="45.82581" lon="4.64716">
        <ele>304.88</ele>
        <time>2014-01-25T14:22:43Z</time>
      </trkpt>
      <trkpt lat="45.82582" lon="4.64714">
        <ele>304.88</ele>
        <time>2014-01-25T14:22:44Z</time>
      </trkpt>
      <trkpt lat="45.82582" lon="4.64711">
        <ele>305.36</ele>
        <time>2014-01-25T14:22:45Z</time>
      </trkpt>
      <trkpt lat="45.82582" lon="4.64708">
        <ele>304.88</ele>
        <time>2014-01-25T14:22:46Z</time>
      </trkpt>
      <trkpt lat="45.82583" lon="4.64704">
        <ele>304.39</ele>
        <time>2014-01-25T14:22:47Z</time>
      </trkpt>
      <trkpt lat="45.82584" lon="4.64698">
        <ele>305.84</ele>
        <time>2014-01-25T14:22:50Z</time>
      </trkpt>
      <trkpt lat="45.82585" lon="4.64695">
        <ele>305.36</ele>
        <time>2014-01-25T14:22:51Z</time>
      </trkpt>
      <trkpt lat="45.82592" lon="4.64669">
        <ele>306.32</ele>
        <time>2014-01-25T14:23:01Z</time>
      </trkpt>
      <trkpt lat="45.82599" lon="4.64646">
        <ele>308.72</ele>
        <time>2014-01-25T14:23:11Z</time>
      </trkpt>
      <trkpt lat="45.82605" lon="4.64628">
        <ele>309.2</ele>
        <time>2014-01-25T14:23:18Z</time>
      </trkpt>
      <trkpt lat="45.82606" lon="4.64626">
        <ele>309.2</ele>
        <time>2014-01-25T14:23:19Z</time>
      </trkpt>
      <trkpt lat="45.82607" lon="4.64624">
        <ele>309.2</ele>
        <time>2014-01-25T14:23:20Z</time>
      </trkpt>
      <trkpt lat="45.82608" lon="4.64621">
        <ele>308.72</ele>
        <time>2014-01-25T14:23:21Z</time>
      </trkpt>
      <trkpt lat="45.82609" lon="4.64619">
        <ele>309.2</ele>
        <time>2014-01-25T14:23:22Z</time>
      </trkpt>
      <trkpt lat="45.8261" lon="4.64617">
        <ele>309.2</ele>
        <time>2014-01-25T14:23:23Z</time>
      </trkpt>
      <trkpt lat="45.8261" lon="4.64614">
        <ele>308.72</ele>
        <time>2014-01-25T14:23:24Z</time>
      </trkpt>
      <trkpt lat="45.82611" lon="4.64611">
        <ele>309.2</ele>
        <time>2014-01-25T14:23:25Z</time>
      </trkpt>
      <trkpt lat="45.82612" lon="4.64609">
        <ele>309.2</ele>
        <time>2014-01-25T14:23:26Z</time>
      </trkpt>
      <trkpt lat="45.82618" lon="4.64599">
        <ele>310.16</ele>
        <time>2014-01-25T14:23:32Z</time>
      </trkpt>
      <trkpt lat="45.82619" lon="4.64596">
        <ele>310.64</ele>
        <time>2014-01-25T14:23:33Z</time>
      </trkpt>
      <trkpt lat="45.8262" lon="4.64594">
        <ele>310.64</ele>
        <time>2014-01-25T14:23:34Z</time>
      </trkpt>
      <trkpt lat="45.82622" lon="4.64592">
        <ele>310.64</ele>
        <time>2014-01-25T14:23:35Z</time>
      </trkpt>
      <trkpt lat="45.82623" lon="4.64589">
        <ele>311.12</ele>
        <time>2014-01-25T14:23:36Z</time>
      </trkpt>
      <trkpt lat="45.82624" lon="4.64587">
        <ele>311.12</ele>
        <time>2014-01-25T14:23:37Z</time>
      </trkpt>
      <trkpt lat="45.82625" lon="4.64585">
        <ele>311.6</ele>
        <time>2014-01-25T14:23:38Z</time>
      </trkpt>
      <trkpt lat="45.82627" lon="4.64584">
        <ele>311.6</ele>
        <time>2014-01-25T14:23:39Z</time>
      </trkpt>
      <trkpt lat="45.82628" lon="4.64582">
        <ele>311.6</ele>
        <time>2014-01-25T14:23:40Z</time>
      </trkpt>
      <trkpt lat="45.82629" lon="4.6458">
        <ele>311.6</ele>
        <time>2014-01-25T14:23:41Z</time>
      </trkpt>
      <trkpt lat="45.82639" lon="4.64565">
        <ele>312.57</ele>
        <time>2014-01-25T14:23:50Z</time>
      </trkpt>
      <trkpt lat="45.82645" lon="4.64556">
        <ele>313.05</ele>
        <time>2014-01-25T14:23:58Z</time>
      </trkpt>
      <trkpt lat="45.82646" lon="4.64555">
        <ele>313.53</ele>
        <time>2014-01-25T14:23:59Z</time>
      </trkpt>
      <trkpt lat="45.82647" lon="4.64553">
        <ele>313.53</ele>
        <time>2014-01-25T14:24:00Z</time>
      </trkpt>
      <trkpt lat="45.82648" lon="4.64551">
        <ele>313.53</ele>
        <time>2014-01-25T14:24:01Z</time>
      </trkpt>
      <trkpt lat="45.82654" lon="4.64545">
        <ele>314.01</ele>
        <time>2014-01-25T14:24:11Z</time>
      </trkpt>
      <trkpt lat="45.82654" lon="4.64545">
        <ele>313.53</ele>
        <time>2014-01-25T14:24:25Z</time>
      </trkpt>
      <trkpt lat="45.82654" lon="4.64545">
        <ele>313.53</ele>
        <time>2014-01-25T14:24:37Z</time>
      </trkpt>
      <trkpt lat="45.82656" lon="4.64539">
        <ele>314.49</ele>
        <time>2014-01-25T14:24:45Z</time>
      </trkpt>
      <trkpt lat="45.8266" lon="4.64531">
        <ele>315.45</ele>
        <time>2014-01-25T14:24:55Z</time>
      </trkpt>
      <trkpt lat="45.82664" lon="4.6452">
        <ele>315.93</ele>
        <time>2014-01-25T14:25:05Z</time>
      </trkpt>
      <trkpt lat="45.8267" lon="4.6451">
        <ele>316.41</ele>
        <time>2014-01-25T14:25:14Z</time>
      </trkpt>
      <trkpt lat="45.82676" lon="4.64495">
        <ele>317.37</ele>
        <time>2014-01-25T14:25:25Z</time>
      </trkpt>
      <trkpt lat="45.82678" lon="4.64493">
        <ele>317.85</ele>
        <time>2014-01-25T14:25:39Z</time>
      </trkpt>
      <trkpt lat="45.8268" lon="4.64489">
        <ele>317.37</ele>
        <time>2014-01-25T14:25:47Z</time>
      </trkpt>
      <trkpt lat="45.82682" lon="4.64484">
        <ele>317.85</ele>
        <time>2014-01-25T14:25:50Z</time>
      </trkpt>
      <trkpt lat="45.82683" lon="4.64482">
        <ele>317.85</ele>
        <time>2014-01-25T14:25:51Z</time>
      </trkpt>
      <trkpt lat="45.82693" lon="4.6447">
        <ele>317.85</ele>
        <time>2014-01-25T14:25:59Z</time>
      </trkpt>
      <trkpt lat="45.82695" lon="4.64469">
        <ele>318.33</ele>
        <time>2014-01-25T14:26:00Z</time>
      </trkpt>
      <trkpt lat="45.82696" lon="4.64468">
        <ele>318.33</ele>
        <time>2014-01-25T14:26:01Z</time>
      </trkpt>
      <trkpt lat="45.82697" lon="4.64467">
        <ele>317.85</ele>
        <time>2014-01-25T14:26:02Z</time>
      </trkpt>
      <trkpt lat="45.82699" lon="4.64466">
        <ele>317.85</ele>
        <time>2014-01-25T14:26:03Z</time>
      </trkpt>
      <trkpt lat="45.82706" lon="4.64456">
        <ele>319.3</ele>
        <time>2014-01-25T14:26:09Z</time>
      </trkpt>
      <trkpt lat="45.82707" lon="4.64455">
        <ele>318.81</ele>
        <time>2014-01-25T14:26:10Z</time>
      </trkpt>
      <trkpt lat="45.82709" lon="4.64454">
        <ele>319.3</ele>
        <time>2014-01-25T14:26:11Z</time>
      </trkpt>
      <trkpt lat="45.82711" lon="4.64453">
        <ele>319.78</ele>
        <time>2014-01-25T14:26:12Z</time>
      </trkpt>
      <trkpt lat="45.82726" lon="4.64436">
        <ele>321.22</ele>
        <time>2014-01-25T14:26:22Z</time>
      </trkpt>
      <trkpt lat="45.82728" lon="4.64435">
        <ele>320.74</ele>
        <time>2014-01-25T14:26:23Z</time>
      </trkpt>
      <trkpt lat="45.82729" lon="4.64434">
        <ele>320.74</ele>
        <time>2014-01-25T14:26:24Z</time>
      </trkpt>
      <trkpt lat="45.82745" lon="4.64415">
        <ele>322.66</ele>
        <time>2014-01-25T14:26:34Z</time>
      </trkpt>
      <trkpt lat="45.82759" lon="4.644">
        <ele>323.14</ele>
        <time>2014-01-25T14:26:43Z</time>
      </trkpt>
      <trkpt lat="45.82769" lon="4.64388">
        <ele>324.58</ele>
        <time>2014-01-25T14:26:50Z</time>
      </trkpt>
      <trkpt lat="45.8277" lon="4.64387">
        <ele>325.06</ele>
        <time>2014-01-25T14:26:51Z</time>
      </trkpt>
      <trkpt lat="45.82771" lon="4.64385">
        <ele>325.06</ele>
        <time>2014-01-25T14:26:52Z</time>
      </trkpt>
      <trkpt lat="45.82772" lon="4.64383">
        <ele>325.06</ele>
        <time>2014-01-25T14:26:53Z</time>
      </trkpt>
      <trkpt lat="45.82774" lon="4.64382">
        <ele>324.58</ele>
        <time>2014-01-25T14:26:54Z</time>
      </trkpt>
      <trkpt lat="45.82775" lon="4.64381">
        <ele>325.54</ele>
        <time>2014-01-25T14:26:55Z</time>
      </trkpt>
      <trkpt lat="45.82776" lon="4.64379">
        <ele>326.02</ele>
        <time>2014-01-25T14:26:56Z</time>
      </trkpt>
      <trkpt lat="45.82777" lon="4.64377">
        <ele>325.54</ele>
        <time>2014-01-25T14:26:57Z</time>
      </trkpt>
      <trkpt lat="45.8279" lon="4.6436">
        <ele>327.47</ele>
        <time>2014-01-25T14:27:08Z</time>
      </trkpt>
      <trkpt lat="45.82804" lon="4.64345">
        <ele>329.39</ele>
        <time>2014-01-25T14:27:20Z</time>
      </trkpt>
      <trkpt lat="45.82812" lon="4.64339">
        <ele>330.83</ele>
        <time>2014-01-25T14:27:26Z</time>
      </trkpt>
      <trkpt lat="45.82813" lon="4.64339">
        <ele>330.83</ele>
        <time>2014-01-25T14:27:27Z</time>
      </trkpt>
      <trkpt lat="45.82813" lon="4.64336">
        <ele>331.31</ele>
        <time>2014-01-25T14:27:28Z</time>
      </trkpt>
      <trkpt lat="45.82814" lon="4.64333">
        <ele>330.83</ele>
        <time>2014-01-25T14:27:29Z</time>
      </trkpt>
      <trkpt lat="45.82814" lon="4.64331">
        <ele>330.83</ele>
        <time>2014-01-25T14:27:30Z</time>
      </trkpt>
      <trkpt lat="45.82814" lon="4.64328">
        <ele>330.83</ele>
        <time>2014-01-25T14:27:31Z</time>
      </trkpt>
      <trkpt lat="45.82814" lon="4.64325">
        <ele>330.83</ele>
        <time>2014-01-25T14:27:32Z</time>
      </trkpt>
      <trkpt lat="45.82814" lon="4.64323">
        <ele>331.79</ele>
        <time>2014-01-25T14:27:33Z</time>
      </trkpt>
      <trkpt lat="45.82814" lon="4.6432">
        <ele>331.79</ele>
        <time>2014-01-25T14:27:34Z</time>
      </trkpt>
      <trkpt lat="45.82813" lon="4.64318">
        <ele>330.83</ele>
        <time>2014-01-25T14:27:35Z</time>
      </trkpt>
      <trkpt lat="45.82814" lon="4.64316">
        <ele>331.79</ele>
        <time>2014-01-25T14:27:36Z</time>
      </trkpt>
      <trkpt lat="45.82815" lon="4.64314">
        <ele>331.31</ele>
        <time>2014-01-25T14:27:37Z</time>
      </trkpt>
      <trkpt lat="45.82816" lon="4.64313">
        <ele>331.31</ele>
        <time>2014-01-25T14:27:38Z</time>
      </trkpt>
      <trkpt lat="45.82817" lon="4.64311">
        <ele>331.79</ele>
        <time>2014-01-25T14:27:39Z</time>
      </trkpt>
      <trkpt lat="45.82819" lon="4.64309">
        <ele>332.27</ele>
        <time>2014-01-25T14:27:41Z</time>
      </trkpt>
      <trkpt lat="45.82824" lon="4.64307">
        <ele>332.75</ele>
        <time>2014-01-25T14:27:45Z</time>
      </trkpt>
      <trkpt lat="45.82839" lon="4.64289">
        <ele>334.2</ele>
        <time>2014-01-25T14:28:00Z</time>
      </trkpt>
      <trkpt lat="45.82841" lon="4.64287">
        <ele>334.2</ele>
        <time>2014-01-25T14:28:02Z</time>
      </trkpt>
      <trkpt lat="45.82842" lon="4.64286">
        <ele>334.2</ele>
        <time>2014-01-25T14:28:03Z</time>
      </trkpt>
      <trkpt lat="45.82843" lon="4.64285">
        <ele>335.16</ele>
        <time>2014-01-25T14:28:04Z</time>
      </trkpt>
      <trkpt lat="45.82844" lon="4.64284">
        <ele>334.68</ele>
        <time>2014-01-25T14:28:05Z</time>
      </trkpt>
      <trkpt lat="45.82855" lon="4.64271">
        <ele>336.12</ele>
        <time>2014-01-25T14:28:17Z</time>
      </trkpt>
      <trkpt lat="45.82867" lon="4.64257">
        <ele>337.08</ele>
        <time>2014-01-25T14:28:31Z</time>
      </trkpt>
      <trkpt lat="45.82872" lon="4.64251">
        <ele>338.04</ele>
        <time>2014-01-25T14:28:41Z</time>
      </trkpt>
      <trkpt lat="45.82872" lon="4.64251">
        <ele>325.06</ele>
        <time>2014-01-25T14:29:01Z</time>
      </trkpt>
      <trkpt lat="45.82872" lon="4.64251">
        <ele>339.48</ele>
        <time>2014-01-25T14:29:02Z</time>
      </trkpt>
      <trkpt lat="45.82871" lon="4.64249">
        <ele>337.56</ele>
        <time>2014-01-25T14:29:23Z</time>
      </trkpt>
      <trkpt lat="45.82872" lon="4.64246">
        <ele>337.56</ele>
        <time>2014-01-25T14:29:31Z</time>
      </trkpt>
      <trkpt lat="45.82875" lon="4.64242">
        <ele>338.04</ele>
        <time>2014-01-25T14:29:43Z</time>
      </trkpt>
      <trkpt lat="45.82878" lon="4.6424">
        <ele>338.52</ele>
        <time>2014-01-25T14:29:50Z</time>
      </trkpt>
      <trkpt lat="45.82887" lon="4.64229">
        <ele>339.96</ele>
        <time>2014-01-25T14:30:00Z</time>
      </trkpt>
      <trkpt lat="45.8289" lon="4.64226">
        <ele>339.96</ele>
        <time>2014-01-25T14:30:03Z</time>
      </trkpt>
      <trkpt lat="45.82891" lon="4.64225">
        <ele>339.96</ele>
        <time>2014-01-25T14:30:04Z</time>
      </trkpt>
      <trkpt lat="45.82891" lon="4.64224">
        <ele>339.96</ele>
        <time>2014-01-25T14:30:05Z</time>
      </trkpt>
      <trkpt lat="45.82892" lon="4.64223">
        <ele>340.44</ele>
        <time>2014-01-25T14:30:06Z</time>
      </trkpt>
      <trkpt lat="45.82893" lon="4.64222">
        <ele>340.44</ele>
        <time>2014-01-25T14:30:07Z</time>
      </trkpt>
      <trkpt lat="45.82894" lon="4.64221">
        <ele>340.92</ele>
        <time>2014-01-25T14:30:08Z</time>
      </trkpt>
      <trkpt lat="45.82908" lon="4.64205">
        <ele>342.37</ele>
        <time>2014-01-25T14:30:21Z</time>
      </trkpt>
      <trkpt lat="45.82922" lon="4.6419">
        <ele>343.81</ele>
        <time>2014-01-25T14:30:34Z</time>
      </trkpt>
      <trkpt lat="45.82936" lon="4.64179">
        <ele>345.25</ele>
        <time>2014-01-25T14:30:46Z</time>
      </trkpt>
      <trkpt lat="45.82951" lon="4.64167">
        <ele>346.21</ele>
        <time>2014-01-25T14:30:59Z</time>
      </trkpt>
      <trkpt lat="45.82966" lon="4.64158">
        <ele>348.13</ele>
        <time>2014-01-25T14:31:11Z</time>
      </trkpt>
      <trkpt lat="45.82972" lon="4.64154">
        <ele>348.62</ele>
        <time>2014-01-25T14:31:16Z</time>
      </trkpt>
      <trkpt lat="45.82973" lon="4.64154">
        <ele>349.1</ele>
        <time>2014-01-25T14:31:17Z</time>
      </trkpt>
      <trkpt lat="45.82974" lon="4.64153">
        <ele>348.62</ele>
        <time>2014-01-25T14:31:28Z</time>
      </trkpt>
      <trkpt lat="45.82974" lon="4.64153">
        <ele>349.1</ele>
        <time>2014-01-25T14:31:46Z</time>
      </trkpt>
      <trkpt lat="45.82974" lon="4.64153">
        <ele>349.1</ele>
        <time>2014-01-25T14:32:00Z</time>
      </trkpt>
      <trkpt lat="45.82974" lon="4.64153">
        <ele>349.58</ele>
        <time>2014-01-25T14:32:25Z</time>
      </trkpt>
      <trkpt lat="45.82974" lon="4.64153">
        <ele>349.58</ele>
        <time>2014-01-25T14:32:47Z</time>
      </trkpt>
      <trkpt lat="45.82974" lon="4.64153">
        <ele>350.06</ele>
        <time>2014-01-25T14:33:07Z</time>
      </trkpt>
      <trkpt lat="45.82974" lon="4.64153">
        <ele>350.06</ele>
        <time>2014-01-25T14:33:27Z</time>
      </trkpt>
      <trkpt lat="45.82974" lon="4.64153">
        <ele>350.54</ele>
        <time>2014-01-25T14:33:49Z</time>
      </trkpt>
      <trkpt lat="45.82974" lon="4.64153">
        <ele>350.06</ele>
        <time>2014-01-25T14:34:11Z</time>
      </trkpt>
      <trkpt lat="45.82974" lon="4.64153">
        <ele>350.06</ele>
        <time>2014-01-25T14:34:38Z</time>
      </trkpt>
      <trkpt lat="45.82974" lon="4.64153">
        <ele>350.06</ele>
        <time>2014-01-25T14:35:01Z</time>
      </trkpt>
      <trkpt lat="45.82974" lon="4.64153">
        <ele>350.06</ele>
        <time>2014-01-25T14:35:24Z</time>
      </trkpt>
      <trkpt lat="45.82974" lon="4.64153">
        <ele>350.06</ele>
        <time>2014-01-25T14:35:50Z</time>
      </trkpt>
      <trkpt lat="45.82974" lon="4.64153">
        <ele>350.06</ele>
        <time>2014-01-25T14:36:11Z</time>
      </trkpt>
      <trkpt lat="45.82976" lon="4.64152">
        <ele>350.54</ele>
        <time>2014-01-25T14:36:35Z</time>
      </trkpt>
      <trkpt lat="45.82977" lon="4.64152">
        <ele>350.54</ele>
        <time>2014-01-25T14:36:36Z</time>
      </trkpt>
      <trkpt lat="45.82995" lon="4.64146">
        <ele>351.02</ele>
        <time>2014-01-25T14:36:47Z</time>
      </trkpt>
      <trkpt lat="45.83013" lon="4.64138">
        <ele>352.46</ele>
        <time>2014-01-25T14:36:59Z</time>
      </trkpt>
      <trkpt lat="45.83032" lon="4.64128">
        <ele>353.9</ele>
        <time>2014-01-25T14:37:11Z</time>
      </trkpt>
      <trkpt lat="45.83048" lon="4.64116">
        <ele>353.9</ele>
        <time>2014-01-25T14:37:22Z</time>
      </trkpt>
      <trkpt lat="45.83066" lon="4.64101">
        <ele>355.34</ele>
        <time>2014-01-25T14:37:35Z</time>
      </trkpt>
      <trkpt lat="45.83083" lon="4.64092">
        <ele>356.79</ele>
        <time>2014-01-25T14:37:47Z</time>
      </trkpt>
      <trkpt lat="45.83096" lon="4.64081">
        <ele>356.79</ele>
        <time>2014-01-25T14:37:58Z</time>
      </trkpt>
      <trkpt lat="45.83112" lon="4.6407">
        <ele>357.27</ele>
        <time>2014-01-25T14:38:10Z</time>
      </trkpt>
      <trkpt lat="45.83129" lon="4.6406">
        <ele>357.75</ele>
        <time>2014-01-25T14:38:22Z</time>
      </trkpt>
      <trkpt lat="45.83149" lon="4.64047">
        <ele>358.71</ele>
        <time>2014-01-25T14:38:36Z</time>
      </trkpt>
      <trkpt lat="45.83164" lon="4.64034">
        <ele>359.67</ele>
        <time>2014-01-25T14:38:47Z</time>
      </trkpt>
      <trkpt lat="45.83181" lon="4.64022">
        <ele>360.15</ele>
        <time>2014-01-25T14:38:59Z</time>
      </trkpt>
      <trkpt lat="45.83193" lon="4.64017">
        <ele>361.11</ele>
        <time>2014-01-25T14:39:07Z</time>
      </trkpt>
      <trkpt lat="45.83197" lon="4.64013">
        <ele>361.59</ele>
        <time>2014-01-25T14:39:10Z</time>
      </trkpt>
      <trkpt lat="45.8321" lon="4.63984">
        <ele>363.04</ele>
        <time>2014-01-25T14:39:23Z</time>
      </trkpt>
      <trkpt lat="45.83222" lon="4.63953">
        <ele>364.48</ele>
        <time>2014-01-25T14:39:37Z</time>
      </trkpt>
      <trkpt lat="45.83231" lon="4.63925">
        <ele>366.4</ele>
        <time>2014-01-25T14:39:49Z</time>
      </trkpt>
      <trkpt lat="45.83241" lon="4.63902">
        <ele>366.88</ele>
        <time>2014-01-25T14:39:59Z</time>
      </trkpt>
      <trkpt lat="45.83251" lon="4.63871">
        <ele>366.88</ele>
        <time>2014-01-25T14:40:11Z</time>
      </trkpt>
      <trkpt lat="45.8325" lon="4.63868">
        <ele>366.88</ele>
        <time>2014-01-25T14:40:12Z</time>
      </trkpt>
      <trkpt lat="45.83249" lon="4.63865">
        <ele>366.88</ele>
        <time>2014-01-25T14:40:13Z</time>
      </trkpt>
      <trkpt lat="45.83247" lon="4.63862">
        <ele>366.88</ele>
        <time>2014-01-25T14:40:14Z</time>
      </trkpt>
      <trkpt lat="45.83227" lon="4.63847">
        <ele>367.36</ele>
        <time>2014-01-25T14:40:24Z</time>
      </trkpt>
      <trkpt lat="45.83213" lon="4.63836">
        <ele>368.8</ele>
        <time>2014-01-25T14:40:32Z</time>
      </trkpt>
      <trkpt lat="45.83211" lon="4.63835">
        <ele>368.8</ele>
        <time>2014-01-25T14:40:33Z</time>
      </trkpt>
      <trkpt lat="45.83207" lon="4.63833">
        <ele>368.32</ele>
        <time>2014-01-25T14:40:35Z</time>
      </trkpt>
      <trkpt lat="45.83206" lon="4.63832">
        <ele>368.8</ele>
        <time>2014-01-25T14:40:36Z</time>
      </trkpt>
      <trkpt lat="45.83204" lon="4.6383">
        <ele>369.28</ele>
        <time>2014-01-25T14:40:37Z</time>
      </trkpt>
      <trkpt lat="45.83182" lon="4.63819">
        <ele>370.24</ele>
        <time>2014-01-25T14:40:49Z</time>
      </trkpt>
      <trkpt lat="45.83169" lon="4.63808">
        <ele>371.21</ele>
        <time>2014-01-25T14:40:57Z</time>
      </trkpt>
      <trkpt lat="45.83152" lon="4.63795">
        <ele>372.65</ele>
        <time>2014-01-25T14:41:08Z</time>
      </trkpt>
      <trkpt lat="45.83145" lon="4.6379">
        <ele>372.65</ele>
        <time>2014-01-25T14:41:12Z</time>
      </trkpt>
      <trkpt lat="45.83143" lon="4.63789">
        <ele>373.13</ele>
        <time>2014-01-25T14:41:13Z</time>
      </trkpt>
      <trkpt lat="45.83142" lon="4.63788">
        <ele>372.65</ele>
        <time>2014-01-25T14:41:14Z</time>
      </trkpt>
      <trkpt lat="45.83119" lon="4.63774">
        <ele>374.09</ele>
        <time>2014-01-25T14:41:27Z</time>
      </trkpt>
      <trkpt lat="45.83098" lon="4.63763">
        <ele>376.01</ele>
        <time>2014-01-25T14:41:39Z</time>
      </trkpt>
      <trkpt lat="45.8308" lon="4.63751">
        <ele>376.97</ele>
        <time>2014-01-25T14:41:50Z</time>
      </trkpt>
      <trkpt lat="45.83069" lon="4.63741">
        <ele>377.45</ele>
        <time>2014-01-25T14:41:58Z</time>
      </trkpt>
      <trkpt lat="45.83055" lon="4.63728">
        <ele>378.9</ele>
        <time>2014-01-25T14:42:08Z</time>
      </trkpt>
      <trkpt lat="45.83036" lon="4.63715">
        <ele>379.38</ele>
        <time>2014-01-25T14:42:20Z</time>
      </trkpt>
      <trkpt lat="45.8302" lon="4.63702">
        <ele>380.34</ele>
        <time>2014-01-25T14:42:30Z</time>
      </trkpt>
      <trkpt lat="45.83003" lon="4.6369">
        <ele>380.82</ele>
        <time>2014-01-25T14:42:41Z</time>
      </trkpt>
      <trkpt lat="45.82987" lon="4.63678">
        <ele>381.3</ele>
        <time>2014-01-25T14:42:51Z</time>
      </trkpt>
      <trkpt lat="45.82969" lon="4.63663">
        <ele>382.26</ele>
        <time>2014-01-25T14:43:03Z</time>
      </trkpt>
      <trkpt lat="45.82952" lon="4.63649">
        <ele>382.26</ele>
        <time>2014-01-25T14:43:14Z</time>
      </trkpt>
      <trkpt lat="45.82937" lon="4.63637">
        <ele>382.74</ele>
        <time>2014-01-25T14:43:23Z</time>
      </trkpt>
      <trkpt lat="45.82912" lon="4.63624">
        <ele>382.26</ele>
        <time>2014-01-25T14:43:34Z</time>
      </trkpt>
      <trkpt lat="45.82887" lon="4.63615">
        <ele>381.78</ele>
        <time>2014-01-25T14:43:44Z</time>
      </trkpt>
      <trkpt lat="45.82864" lon="4.63608">
        <ele>381.3</ele>
        <time>2014-01-25T14:43:54Z</time>
      </trkpt>
      <trkpt lat="45.82841" lon="4.63602">
        <ele>380.82</ele>
        <time>2014-01-25T14:44:03Z</time>
      </trkpt>
      <trkpt lat="45.82807" lon="4.63593">
        <ele>380.34</ele>
        <time>2014-01-25T14:44:17Z</time>
      </trkpt>
      <trkpt lat="45.82775" lon="4.63584">
        <ele>378.42</ele>
        <time>2014-01-25T14:44:28Z</time>
      </trkpt>
      <trkpt lat="45.82737" lon="4.63576">
        <ele>376.01</ele>
        <time>2014-01-25T14:44:38Z</time>
      </trkpt>
      <trkpt lat="45.82721" lon="4.6357">
        <ele>374.57</ele>
        <time>2014-01-25T14:44:42Z</time>
      </trkpt>
      <trkpt lat="45.82716" lon="4.63568">
        <ele>374.57</ele>
        <time>2014-01-25T14:44:43Z</time>
      </trkpt>
      <trkpt lat="45.82712" lon="4.63567">
        <ele>374.57</ele>
        <time>2014-01-25T14:44:44Z</time>
      </trkpt>
      <trkpt lat="45.82708" lon="4.63566">
        <ele>373.61</ele>
        <time>2014-01-25T14:44:45Z</time>
      </trkpt>
      <trkpt lat="45.82704" lon="4.63565">
        <ele>373.61</ele>
        <time>2014-01-25T14:44:46Z</time>
      </trkpt>
      <trkpt lat="45.82676" lon="4.63561">
        <ele>371.69</ele>
        <time>2014-01-25T14:44:55Z</time>
      </trkpt>
      <trkpt lat="45.82663" lon="4.63555">
        <ele>370.73</ele>
        <time>2014-01-25T14:45:02Z</time>
      </trkpt>
      <trkpt lat="45.82663" lon="4.63555">
        <ele>370.24</ele>
        <time>2014-01-25T14:45:16Z</time>
      </trkpt>
      <trkpt lat="45.82662" lon="4.63555">
        <ele>370.24</ele>
        <time>2014-01-25T14:45:26Z</time>
      </trkpt>
      <trkpt lat="45.82661" lon="4.63554">
        <ele>369.76</ele>
        <time>2014-01-25T14:45:27Z</time>
      </trkpt>
      <trkpt lat="45.82659" lon="4.63553">
        <ele>369.76</ele>
        <time>2014-01-25T14:45:28Z</time>
      </trkpt>
      <trkpt lat="45.82657" lon="4.63552">
        <ele>370.24</ele>
        <time>2014-01-25T14:45:29Z</time>
      </trkpt>
      <trkpt lat="45.82655" lon="4.63551">
        <ele>369.28</ele>
        <time>2014-01-25T14:45:30Z</time>
      </trkpt>
      <trkpt lat="45.82653" lon="4.63549">
        <ele>369.76</ele>
        <time>2014-01-25T14:45:31Z</time>
      </trkpt>
      <trkpt lat="45.82651" lon="4.63547">
        <ele>369.76</ele>
        <time>2014-01-25T14:45:32Z</time>
      </trkpt>
      <trkpt lat="45.82649" lon="4.63545">
        <ele>368.8</ele>
        <time>2014-01-25T14:45:33Z</time>
      </trkpt>
      <trkpt lat="45.82647" lon="4.63544">
        <ele>369.28</ele>
        <time>2014-01-25T14:45:34Z</time>
      </trkpt>
      <trkpt lat="45.82645" lon="4.63542">
        <ele>369.28</ele>
        <time>2014-01-25T14:45:35Z</time>
      </trkpt>
      <trkpt lat="45.82643" lon="4.6354">
        <ele>368.8</ele>
        <time>2014-01-25T14:45:36Z</time>
      </trkpt>
      <trkpt lat="45.82618" lon="4.63522">
        <ele>367.36</ele>
        <time>2014-01-25T14:45:45Z</time>
      </trkpt>
      <trkpt lat="45.82581" lon="4.63494">
        <ele>364.96</ele>
        <time>2014-01-25T14:45:56Z</time>
      </trkpt>
      <trkpt lat="45.82545" lon="4.63471">
        <ele>364</ele>
        <time>2014-01-25T14:46:06Z</time>
      </trkpt>
      <trkpt lat="45.82509" lon="4.63447">
        <ele>363.04</ele>
        <time>2014-01-25T14:46:17Z</time>
      </trkpt>
      <trkpt lat="45.82489" lon="4.63433">
        <ele>362.07</ele>
        <time>2014-01-25T14:46:27Z</time>
      </trkpt>
      <trkpt lat="45.82489" lon="4.63433">
        <ele>362.07</ele>
        <time>2014-01-25T14:46:40Z</time>
      </trkpt>
      <trkpt lat="45.82489" lon="4.63431">
        <ele>362.07</ele>
        <time>2014-01-25T14:46:54Z</time>
      </trkpt>
      <trkpt lat="45.82492" lon="4.63426">
        <ele>361.59</ele>
        <time>2014-01-25T14:46:56Z</time>
      </trkpt>
      <trkpt lat="45.82494" lon="4.63424">
        <ele>362.07</ele>
        <time>2014-01-25T14:46:57Z</time>
      </trkpt>
      <trkpt lat="45.82496" lon="4.6342">
        <ele>361.59</ele>
        <time>2014-01-25T14:46:58Z</time>
      </trkpt>
      <trkpt lat="45.82501" lon="4.63407">
        <ele>360.15</ele>
        <time>2014-01-25T14:47:01Z</time>
      </trkpt>
      <trkpt lat="45.82517" lon="4.63371">
        <ele>357.27</ele>
        <time>2014-01-25T14:47:08Z</time>
      </trkpt>
      <trkpt lat="45.82522" lon="4.63359">
        <ele>356.31</ele>
        <time>2014-01-25T14:47:10Z</time>
      </trkpt>
      <trkpt lat="45.82533" lon="4.63327">
        <ele>352.94</ele>
        <time>2014-01-25T14:47:14Z</time>
      </trkpt>
      <trkpt lat="45.82545" lon="4.63288">
        <ele>349.58</ele>
        <time>2014-01-25T14:47:19Z</time>
      </trkpt>
      <trkpt lat="45.82553" lon="4.63256">
        <ele>346.69</ele>
        <time>2014-01-25T14:47:23Z</time>
      </trkpt>
      <trkpt lat="45.82555" lon="4.63248">
        <ele>345.73</ele>
        <time>2014-01-25T14:47:24Z</time>
      </trkpt>
      <trkpt lat="45.82557" lon="4.63239">
        <ele>344.77</ele>
        <time>2014-01-25T14:47:25Z</time>
      </trkpt>
      <trkpt lat="45.82557" lon="4.63231">
        <ele>344.77</ele>
        <time>2014-01-25T14:47:26Z</time>
      </trkpt>
      <trkpt lat="45.82558" lon="4.63222">
        <ele>343.81</ele>
        <time>2014-01-25T14:47:27Z</time>
      </trkpt>
      <trkpt lat="45.82557" lon="4.63214">
        <ele>342.85</ele>
        <time>2014-01-25T14:47:28Z</time>
      </trkpt>
      <trkpt lat="45.82557" lon="4.63204">
        <ele>341.89</ele>
        <time>2014-01-25T14:47:29Z</time>
      </trkpt>
      <trkpt lat="45.82556" lon="4.63195">
        <ele>340.44</ele>
        <time>2014-01-25T14:47:30Z</time>
      </trkpt>
      <trkpt lat="45.82556" lon="4.63186">
        <ele>339.48</ele>
        <time>2014-01-25T14:47:31Z</time>
      </trkpt>
      <trkpt lat="45.82556" lon="4.63148">
        <ele>335.16</ele>
        <time>2014-01-25T14:47:35Z</time>
      </trkpt>
      <trkpt lat="45.82556" lon="4.63121">
        <ele>331.79</ele>
        <time>2014-01-25T14:47:38Z</time>
      </trkpt>
      <trkpt lat="45.82556" lon="4.63083">
        <ele>328.91</ele>
        <time>2014-01-25T14:47:42Z</time>
      </trkpt>
      <trkpt lat="45.82558" lon="4.63072">
        <ele>327.47</ele>
        <time>2014-01-25T14:47:43Z</time>
      </trkpt>
      <trkpt lat="45.82563" lon="4.63046">
        <ele>323.14</ele>
        <time>2014-01-25T14:47:45Z</time>
      </trkpt>
      <trkpt lat="45.8257" lon="4.63016">
        <ele>319.78</ele>
        <time>2014-01-25T14:47:47Z</time>
      </trkpt>
      <trkpt lat="45.82577" lon="4.62983">
        <ele>315.93</ele>
        <time>2014-01-25T14:47:49Z</time>
      </trkpt>
      <trkpt lat="45.82582" lon="4.62949">
        <ele>312.09</ele>
        <time>2014-01-25T14:47:51Z</time>
      </trkpt>
      <trkpt lat="45.82583" lon="4.62932">
        <ele>312.09</ele>
        <time>2014-01-25T14:47:52Z</time>
      </trkpt>
      <trkpt lat="45.82585" lon="4.62902">
        <ele>312.09</ele>
        <time>2014-01-25T14:47:54Z</time>
      </trkpt>
      <trkpt lat="45.82588" lon="4.62889">
        <ele>313.05</ele>
        <time>2014-01-25T14:47:55Z</time>
      </trkpt>
      <trkpt lat="45.8259" lon="4.62879">
        <ele>313.53</ele>
        <time>2014-01-25T14:47:56Z</time>
      </trkpt>
      <trkpt lat="45.82597" lon="4.62846">
        <ele>316.89</ele>
        <time>2014-01-25T14:48:00Z</time>
      </trkpt>
      <trkpt lat="45.82599" lon="4.62841">
        <ele>317.37</ele>
        <time>2014-01-25T14:48:01Z</time>
      </trkpt>
      <trkpt lat="45.82601" lon="4.62835">
        <ele>317.37</ele>
        <time>2014-01-25T14:48:02Z</time>
      </trkpt>
      <trkpt lat="45.82602" lon="4.6283">
        <ele>318.33</ele>
        <time>2014-01-25T14:48:03Z</time>
      </trkpt>
      <trkpt lat="45.82602" lon="4.62825">
        <ele>318.33</ele>
        <time>2014-01-25T14:48:04Z</time>
      </trkpt>
      <trkpt lat="45.82603" lon="4.6282">
        <ele>318.81</ele>
        <time>2014-01-25T14:48:05Z</time>
      </trkpt>
      <trkpt lat="45.82597" lon="4.62796">
        <ele>321.22</ele>
        <time>2014-01-25T14:48:12Z</time>
      </trkpt>
      <trkpt lat="45.8259" lon="4.6278">
        <ele>322.66</ele>
        <time>2014-01-25T14:48:19Z</time>
      </trkpt>
      <trkpt lat="45.82589" lon="4.62777">
        <ele>322.66</ele>
        <time>2014-01-25T14:48:20Z</time>
      </trkpt>
      <trkpt lat="45.82588" lon="4.62775">
        <ele>323.14</ele>
        <time>2014-01-25T14:48:21Z</time>
      </trkpt>
      <trkpt lat="45.82587" lon="4.62772">
        <ele>323.14</ele>
        <time>2014-01-25T14:48:22Z</time>
      </trkpt>
      <trkpt lat="45.82586" lon="4.62769">
        <ele>323.62</ele>
        <time>2014-01-25T14:48:23Z</time>
      </trkpt>
      <trkpt lat="45.82585" lon="4.62766">
        <ele>323.14</ele>
        <time>2014-01-25T14:48:24Z</time>
      </trkpt>
      <trkpt lat="45.82584" lon="4.62763">
        <ele>323.62</ele>
        <time>2014-01-25T14:48:25Z</time>
      </trkpt>
      <trkpt lat="45.82583" lon="4.6276">
        <ele>323.62</ele>
        <time>2014-01-25T14:48:26Z</time>
      </trkpt>
      <trkpt lat="45.82582" lon="4.62758">
        <ele>324.1</ele>
        <time>2014-01-25T14:48:27Z</time>
      </trkpt>
      <trkpt lat="45.82569" lon="4.62722">
        <ele>324.58</ele>
        <time>2014-01-25T14:48:40Z</time>
      </trkpt>
      <trkpt lat="45.82557" lon="4.62689">
        <ele>324.58</ele>
        <time>2014-01-25T14:48:51Z</time>
      </trkpt>
      <trkpt lat="45.82555" lon="4.62685">
        <ele>324.58</ele>
        <time>2014-01-25T14:48:59Z</time>
      </trkpt>
      <trkpt lat="45.82555" lon="4.62685">
        <ele>324.58</ele>
        <time>2014-01-25T14:49:06Z</time>
      </trkpt>
      <trkpt lat="45.82555" lon="4.62683">
        <ele>324.58</ele>
        <time>2014-01-25T14:49:07Z</time>
      </trkpt>
      <trkpt lat="45.82556" lon="4.62681">
        <ele>324.58</ele>
        <time>2014-01-25T14:49:08Z</time>
      </trkpt>
      <trkpt lat="45.82557" lon="4.6267">
        <ele>323.14</ele>
        <time>2014-01-25T14:49:14Z</time>
      </trkpt>
      <trkpt lat="45.8257" lon="4.62637">
        <ele>320.74</ele>
        <time>2014-01-25T14:49:20Z</time>
      </trkpt>
      <trkpt lat="45.8258" lon="4.62609">
        <ele>319.3</ele>
        <time>2014-01-25T14:49:24Z</time>
      </trkpt>
      <trkpt lat="45.8259" lon="4.62583">
        <ele>316.89</ele>
        <time>2014-01-25T14:49:28Z</time>
      </trkpt>
      <trkpt lat="45.82591" lon="4.62577">
        <ele>315.93</ele>
        <time>2014-01-25T14:49:29Z</time>
      </trkpt>
      <trkpt lat="45.82593" lon="4.62571">
        <ele>316.41</ele>
        <time>2014-01-25T14:49:30Z</time>
      </trkpt>
      <trkpt lat="45.82593" lon="4.62565">
        <ele>315.93</ele>
        <time>2014-01-25T14:49:31Z</time>
      </trkpt>
      <trkpt lat="45.82592" lon="4.62559">
        <ele>316.41</ele>
        <time>2014-01-25T14:49:32Z</time>
      </trkpt>
      <trkpt lat="45.82589" lon="4.62555">
        <ele>315.45</ele>
        <time>2014-01-25T14:49:33Z</time>
      </trkpt>
      <trkpt lat="45.82586" lon="4.62553">
        <ele>315.93</ele>
        <time>2014-01-25T14:49:34Z</time>
      </trkpt>
      <trkpt lat="45.82583" lon="4.62551">
        <ele>315.93</ele>
        <time>2014-01-25T14:49:35Z</time>
      </trkpt>
      <trkpt lat="45.82551" lon="4.62533">
        <ele>319.3</ele>
        <time>2014-01-25T14:49:47Z</time>
      </trkpt>
      <trkpt lat="45.82523" lon="4.62518">
        <ele>320.74</ele>
        <time>2014-01-25T14:49:59Z</time>
      </trkpt>
      <trkpt lat="45.82498" lon="4.62505">
        <ele>323.14</ele>
        <time>2014-01-25T14:50:11Z</time>
      </trkpt>
      <trkpt lat="45.82469" lon="4.6249">
        <ele>326.02</ele>
        <time>2014-01-25T14:50:26Z</time>
      </trkpt>
      <trkpt lat="45.82446" lon="4.62481">
        <ele>327.47</ele>
        <time>2014-01-25T14:50:38Z</time>
      </trkpt>
      <trkpt lat="45.82419" lon="4.62469">
        <ele>328.91</ele>
        <time>2014-01-25T14:50:51Z</time>
      </trkpt>
      <trkpt lat="45.82418" lon="4.62468">
        <ele>328.91</ele>
        <time>2014-01-25T14:50:52Z</time>
      </trkpt>
      <trkpt lat="45.82416" lon="4.62467">
        <ele>328.91</ele>
        <time>2014-01-25T14:50:53Z</time>
      </trkpt>
      <trkpt lat="45.82414" lon="4.62466">
        <ele>328.91</ele>
        <time>2014-01-25T14:50:54Z</time>
      </trkpt>
      <trkpt lat="45.82413" lon="4.62464">
        <ele>329.39</ele>
        <time>2014-01-25T14:50:55Z</time>
      </trkpt>
      <trkpt lat="45.82411" lon="4.62462">
        <ele>329.39</ele>
        <time>2014-01-25T14:50:56Z</time>
      </trkpt>
      <trkpt lat="45.82409" lon="4.62461">
        <ele>329.39</ele>
        <time>2014-01-25T14:50:57Z</time>
      </trkpt>
      <trkpt lat="45.82391" lon="4.62445">
        <ele>330.35</ele>
        <time>2014-01-25T14:51:08Z</time>
      </trkpt>
      <trkpt lat="45.82366" lon="4.62434">
        <ele>332.75</ele>
        <time>2014-01-25T14:51:21Z</time>
      </trkpt>
      <trkpt lat="45.82343" lon="4.62427">
        <ele>333.71</ele>
        <time>2014-01-25T14:51:34Z</time>
      </trkpt>
      <trkpt lat="45.82338" lon="4.62425">
        <ele>333.71</ele>
        <time>2014-01-25T14:51:37Z</time>
      </trkpt>
      <trkpt lat="45.82336" lon="4.62425">
        <ele>333.71</ele>
        <time>2014-01-25T14:51:38Z</time>
      </trkpt>
      <trkpt lat="45.82334" lon="4.62425">
        <ele>333.71</ele>
        <time>2014-01-25T14:51:39Z</time>
      </trkpt>
      <trkpt lat="45.82312" lon="4.62415">
        <ele>335.64</ele>
        <time>2014-01-25T14:51:51Z</time>
      </trkpt>
      <trkpt lat="45.82294" lon="4.62393">
        <ele>336.6</ele>
        <time>2014-01-25T14:52:03Z</time>
      </trkpt>
      <trkpt lat="45.82298" lon="4.62358">
        <ele>338.52</ele>
        <time>2014-01-25T14:52:15Z</time>
      </trkpt>
      <trkpt lat="45.82311" lon="4.62317">
        <ele>339.48</ele>
        <time>2014-01-25T14:52:29Z</time>
      </trkpt>
      <trkpt lat="45.82314" lon="4.62282">
        <ele>341.89</ele>
        <time>2014-01-25T14:52:41Z</time>
      </trkpt>
      <trkpt lat="45.82305" lon="4.6225">
        <ele>342.85</ele>
        <time>2014-01-25T14:52:53Z</time>
      </trkpt>
      <trkpt lat="45.82289" lon="4.62238">
        <ele>344.29</ele>
        <time>2014-01-25T14:53:03Z</time>
      </trkpt>
      <trkpt lat="45.8227" lon="4.6224">
        <ele>345.73</ele>
        <time>2014-01-25T14:53:13Z</time>
      </trkpt>
      <trkpt lat="45.82253" lon="4.62255">
        <ele>347.65</ele>
        <time>2014-01-25T14:53:24Z</time>
      </trkpt>
      <trkpt lat="45.82242" lon="4.62263">
        <ele>348.13</ele>
        <time>2014-01-25T14:53:31Z</time>
      </trkpt>
      <trkpt lat="45.82242" lon="4.62266">
        <ele>348.13</ele>
        <time>2014-01-25T14:53:32Z</time>
      </trkpt>
      <trkpt lat="45.82242" lon="4.62275">
        <ele>348.13</ele>
        <time>2014-01-25T14:53:35Z</time>
      </trkpt>
      <trkpt lat="45.82259" lon="4.6231">
        <ele>348.13</ele>
        <time>2014-01-25T14:53:46Z</time>
      </trkpt>
      <trkpt lat="45.82259" lon="4.62344">
        <ele>348.13</ele>
        <time>2014-01-25T14:53:54Z</time>
      </trkpt>
      <trkpt lat="45.8224" lon="4.62368">
        <ele>349.1</ele>
        <time>2014-01-25T14:54:02Z</time>
      </trkpt>
      <trkpt lat="45.82217" lon="4.62392">
        <ele>350.54</ele>
        <time>2014-01-25T14:54:13Z</time>
      </trkpt>
      <trkpt lat="45.82193" lon="4.62398">
        <ele>353.9</ele>
        <time>2014-01-25T14:54:23Z</time>
      </trkpt>
      <trkpt lat="45.82191" lon="4.62398">
        <ele>353.9</ele>
        <time>2014-01-25T14:54:24Z</time>
      </trkpt>
      <trkpt lat="45.82189" lon="4.62397">
        <ele>354.38</ele>
        <time>2014-01-25T14:54:25Z</time>
      </trkpt>
      <trkpt lat="45.82187" lon="4.62396">
        <ele>353.9</ele>
        <time>2014-01-25T14:54:26Z</time>
      </trkpt>
      <trkpt lat="45.82185" lon="4.62395">
        <ele>354.38</ele>
        <time>2014-01-25T14:54:27Z</time>
      </trkpt>
      <trkpt lat="45.82183" lon="4.62394">
        <ele>354.86</ele>
        <time>2014-01-25T14:54:28Z</time>
      </trkpt>
      <trkpt lat="45.82181" lon="4.62392">
        <ele>354.86</ele>
        <time>2014-01-25T14:54:29Z</time>
      </trkpt>
      <trkpt lat="45.8218" lon="4.62391">
        <ele>355.34</ele>
        <time>2014-01-25T14:54:30Z</time>
      </trkpt>
      <trkpt lat="45.82178" lon="4.6239">
        <ele>355.34</ele>
        <time>2014-01-25T14:54:31Z</time>
      </trkpt>
      <trkpt lat="45.82176" lon="4.62389">
        <ele>355.34</ele>
        <time>2014-01-25T14:54:32Z</time>
      </trkpt>
      <trkpt lat="45.82174" lon="4.62388">
        <ele>355.83</ele>
        <time>2014-01-25T14:54:33Z</time>
      </trkpt>
      <trkpt lat="45.82172" lon="4.62386">
        <ele>356.31</ele>
        <time>2014-01-25T14:54:34Z</time>
      </trkpt>
      <trkpt lat="45.82171" lon="4.62386">
        <ele>356.31</ele>
        <time>2014-01-25T14:54:35Z</time>
      </trkpt>
      <trkpt lat="45.82153" lon="4.62376">
        <ele>358.23</ele>
        <time>2014-01-25T14:54:45Z</time>
      </trkpt>
      <trkpt lat="45.82135" lon="4.62367">
        <ele>359.19</ele>
        <time>2014-01-25T14:54:55Z</time>
      </trkpt>
      <trkpt lat="45.82105" lon="4.62357">
        <ele>360.15</ele>
        <time>2014-01-25T14:55:07Z</time>
      </trkpt>
      <trkpt lat="45.82081" lon="4.62351">
        <ele>360.63</ele>
        <time>2014-01-25T14:55:15Z</time>
      </trkpt>
      <trkpt lat="45.8206" lon="4.62342">
        <ele>361.59</ele>
        <time>2014-01-25T14:55:22Z</time>
      </trkpt>
      <trkpt lat="45.8203" lon="4.62331">
        <ele>362.55</ele>
        <time>2014-01-25T14:55:33Z</time>
      </trkpt>
      <trkpt lat="45.82011" lon="4.62325">
        <ele>363.04</ele>
        <time>2014-01-25T14:55:40Z</time>
      </trkpt>
      <trkpt lat="45.81987" lon="4.62313">
        <ele>364</ele>
        <time>2014-01-25T14:55:49Z</time>
      </trkpt>
      <trkpt lat="45.81966" lon="4.62307">
        <ele>364.48</ele>
        <time>2014-01-25T14:55:57Z</time>
      </trkpt>
      <trkpt lat="45.81952" lon="4.62302">
        <ele>364.96</ele>
        <time>2014-01-25T14:56:04Z</time>
      </trkpt>
      <trkpt lat="45.8195" lon="4.62301">
        <ele>364.48</ele>
        <time>2014-01-25T14:56:05Z</time>
      </trkpt>
      <trkpt lat="45.81949" lon="4.62301">
        <ele>364.96</ele>
        <time>2014-01-25T14:56:06Z</time>
      </trkpt>
      <trkpt lat="45.81946" lon="4.62302">
        <ele>364.48</ele>
        <time>2014-01-25T14:56:15Z</time>
      </trkpt>
      <trkpt lat="45.81946" lon="4.62302">
        <ele>364.48</ele>
        <time>2014-01-25T14:56:32Z</time>
      </trkpt>
      <trkpt lat="45.81946" lon="4.62302">
        <ele>364.48</ele>
        <time>2014-01-25T14:56:55Z</time>
      </trkpt>
      <trkpt lat="45.81946" lon="4.62302">
        <ele>364.48</ele>
        <time>2014-01-25T14:57:11Z</time>
      </trkpt>
      <trkpt lat="45.81945" lon="4.62301">
        <ele>364.48</ele>
        <time>2014-01-25T14:57:24Z</time>
      </trkpt>
      <trkpt lat="45.81942" lon="4.62297">
        <ele>364</ele>
        <time>2014-01-25T14:57:34Z</time>
      </trkpt>
      <trkpt lat="45.81941" lon="4.62294">
        <ele>363.52</ele>
        <time>2014-01-25T14:57:43Z</time>
      </trkpt>
      <trkpt lat="45.81942" lon="4.62291">
        <ele>364</ele>
        <time>2014-01-25T14:57:45Z</time>
      </trkpt>
      <trkpt lat="45.81946" lon="4.62275">
        <ele>363.52</ele>
        <time>2014-01-25T14:57:54Z</time>
      </trkpt>
      <trkpt lat="45.81946" lon="4.62275">
        <ele>364</ele>
        <time>2014-01-25T14:58:13Z</time>
      </trkpt>
      <trkpt lat="45.81946" lon="4.62273">
        <ele>364</ele>
        <time>2014-01-25T14:58:27Z</time>
      </trkpt>
      <trkpt lat="45.81946" lon="4.62273">
        <ele>364</ele>
        <time>2014-01-25T14:58:40Z</time>
      </trkpt>
      <trkpt lat="45.81947" lon="4.62273">
        <ele>364</ele>
        <time>2014-01-25T14:59:00Z</time>
      </trkpt>
      <trkpt lat="45.81947" lon="4.62273">
        <ele>363.52</ele>
        <time>2014-01-25T14:59:16Z</time>
      </trkpt>
      <trkpt lat="45.81947" lon="4.62273">
        <ele>363.52</ele>
        <time>2014-01-25T14:59:37Z</time>
      </trkpt>
      <trkpt lat="45.81947" lon="4.62273">
        <ele>363.52</ele>
        <time>2014-01-25T14:59:54Z</time>
      </trkpt>
      <trkpt lat="45.81947" lon="4.62273">
        <ele>363.52</ele>
        <time>2014-01-25T15:00:03Z</time>
      </trkpt>
      <trkpt lat="45.81947" lon="4.62273">
        <ele>363.52</ele>
        <time>2014-01-25T15:00:04Z</time>
      </trkpt>
      <trkpt lat="45.81946" lon="4.62277">
        <ele>364</ele>
        <time>2014-01-25T15:00:10Z</time>
      </trkpt>
      <trkpt lat="45.81941" lon="4.6228">
        <ele>364</ele>
        <time>2014-01-25T15:00:13Z</time>
      </trkpt>
      <trkpt lat="45.81933" lon="4.62281">
        <ele>364</ele>
        <time>2014-01-25T15:00:17Z</time>
      </trkpt>
      <trkpt lat="45.81916" lon="4.62279">
        <ele>364.96</ele>
        <time>2014-01-25T15:00:28Z</time>
      </trkpt>
      <trkpt lat="45.81898" lon="4.62274">
        <ele>365.44</ele>
        <time>2014-01-25T15:00:39Z</time>
      </trkpt>
      <trkpt lat="45.81891" lon="4.62271">
        <ele>365.92</ele>
        <time>2014-01-25T15:00:47Z</time>
      </trkpt>
      <trkpt lat="45.81876" lon="4.62263">
        <ele>365.92</ele>
        <time>2014-01-25T15:00:57Z</time>
      </trkpt>
      <trkpt lat="45.81857" lon="4.62257">
        <ele>367.36</ele>
        <time>2014-01-25T15:01:08Z</time>
      </trkpt>
      <trkpt lat="45.81839" lon="4.62248">
        <ele>367.84</ele>
        <time>2014-01-25T15:01:19Z</time>
      </trkpt>
      <trkpt lat="45.81822" lon="4.62242">
        <ele>369.28</ele>
        <time>2014-01-25T15:01:29Z</time>
      </trkpt>
      <trkpt lat="45.81806" lon="4.6223">
        <ele>370.73</ele>
        <time>2014-01-25T15:01:39Z</time>
      </trkpt>
      <trkpt lat="45.818" lon="4.62226">
        <ele>371.21</ele>
        <time>2014-01-25T15:01:43Z</time>
      </trkpt>
      <trkpt lat="45.81786" lon="4.62218">
        <ele>372.65</ele>
        <time>2014-01-25T15:01:52Z</time>
      </trkpt>
      <trkpt lat="45.81778" lon="4.62209">
        <ele>373.13</ele>
        <time>2014-01-25T15:02:00Z</time>
      </trkpt>
      <trkpt lat="45.81777" lon="4.62205">
        <ele>373.13</ele>
        <time>2014-01-25T15:02:09Z</time>
      </trkpt>
      <trkpt lat="45.81777" lon="4.62205">
        <ele>373.61</ele>
        <time>2014-01-25T15:02:24Z</time>
      </trkpt>
      <trkpt lat="45.81777" lon="4.62205">
        <ele>373.61</ele>
        <time>2014-01-25T15:02:44Z</time>
      </trkpt>
      <trkpt lat="45.81775" lon="4.622">
        <ele>373.61</ele>
        <time>2014-01-25T15:02:48Z</time>
      </trkpt>
      <trkpt lat="45.81772" lon="4.62189">
        <ele>373.61</ele>
        <time>2014-01-25T15:02:53Z</time>
      </trkpt>
      <trkpt lat="45.8177" lon="4.62168">
        <ele>373.13</ele>
        <time>2014-01-25T15:03:00Z</time>
      </trkpt>
      <trkpt lat="45.81777" lon="4.62156">
        <ele>372.17</ele>
        <time>2014-01-25T15:03:04Z</time>
      </trkpt>
      <trkpt lat="45.81783" lon="4.62146">
        <ele>371.69</ele>
        <time>2014-01-25T15:03:06Z</time>
      </trkpt>
      <trkpt lat="45.81786" lon="4.62141">
        <ele>370.73</ele>
        <time>2014-01-25T15:03:07Z</time>
      </trkpt>
      <trkpt lat="45.8179" lon="4.62136">
        <ele>370.73</ele>
        <time>2014-01-25T15:03:08Z</time>
      </trkpt>
      <trkpt lat="45.81794" lon="4.62131">
        <ele>369.76</ele>
        <time>2014-01-25T15:03:09Z</time>
      </trkpt>
      <trkpt lat="45.81797" lon="4.62126">
        <ele>369.28</ele>
        <time>2014-01-25T15:03:10Z</time>
      </trkpt>
      <trkpt lat="45.81801" lon="4.62121">
        <ele>368.8</ele>
        <time>2014-01-25T15:03:11Z</time>
      </trkpt>
      <trkpt lat="45.81805" lon="4.62117">
        <ele>369.28</ele>
        <time>2014-01-25T15:03:12Z</time>
      </trkpt>
      <trkpt lat="45.81808" lon="4.62113">
        <ele>368.8</ele>
        <time>2014-01-25T15:03:13Z</time>
      </trkpt>
      <trkpt lat="45.81812" lon="4.62109">
        <ele>369.28</ele>
        <time>2014-01-25T15:03:14Z</time>
      </trkpt>
      <trkpt lat="45.81815" lon="4.62107">
        <ele>368.8</ele>
        <time>2014-01-25T15:03:15Z</time>
      </trkpt>
      <trkpt lat="45.81844" lon="4.62086">
        <ele>367.84</ele>
        <time>2014-01-25T15:03:23Z</time>
      </trkpt>
      <trkpt lat="45.81871" lon="4.62063">
        <ele>365.44</ele>
        <time>2014-01-25T15:03:29Z</time>
      </trkpt>
      <trkpt lat="45.81875" lon="4.62059">
        <ele>365.44</ele>
        <time>2014-01-25T15:03:30Z</time>
      </trkpt>
      <trkpt lat="45.81879" lon="4.62055">
        <ele>364.48</ele>
        <time>2014-01-25T15:03:31Z</time>
      </trkpt>
      <trkpt lat="45.81907" lon="4.62022">
        <ele>361.11</ele>
        <time>2014-01-25T15:03:37Z</time>
      </trkpt>
      <trkpt lat="45.81921" lon="4.61999">
        <ele>358.23</ele>
        <time>2014-01-25T15:03:41Z</time>
      </trkpt>
      <trkpt lat="45.81931" lon="4.61979">
        <ele>354.86</ele>
        <time>2014-01-25T15:03:45Z</time>
      </trkpt>
      <trkpt lat="45.81933" lon="4.61975">
        <ele>354.38</ele>
        <time>2014-01-25T15:03:46Z</time>
      </trkpt>
      <trkpt lat="45.8194" lon="4.61961">
        <ele>351.5</ele>
        <time>2014-01-25T15:03:49Z</time>
      </trkpt>
      <trkpt lat="45.81941" lon="4.61955">
        <ele>351.5</ele>
        <time>2014-01-25T15:03:50Z</time>
      </trkpt>
      <trkpt lat="45.81943" lon="4.61949">
        <ele>350.54</ele>
        <time>2014-01-25T15:03:51Z</time>
      </trkpt>
      <trkpt lat="45.81945" lon="4.61945">
        <ele>350.06</ele>
        <time>2014-01-25T15:03:52Z</time>
      </trkpt>
      <trkpt lat="45.81947" lon="4.6194">
        <ele>349.1</ele>
        <time>2014-01-25T15:03:53Z</time>
      </trkpt>
      <trkpt lat="45.81951" lon="4.61935">
        <ele>349.1</ele>
        <time>2014-01-25T15:03:54Z</time>
      </trkpt>
      <trkpt lat="45.81954" lon="4.6193">
        <ele>347.65</ele>
        <time>2014-01-25T15:03:55Z</time>
      </trkpt>
      <trkpt lat="45.81961" lon="4.61918">
        <ele>345.25</ele>
        <time>2014-01-25T15:03:58Z</time>
      </trkpt>
      <trkpt lat="45.81963" lon="4.61916">
        <ele>344.29</ele>
        <time>2014-01-25T15:04:00Z</time>
      </trkpt>
      <trkpt lat="45.81964" lon="4.61919">
        <ele>342.85</ele>
        <time>2014-01-25T15:04:02Z</time>
      </trkpt>
      <trkpt lat="45.81967" lon="4.61928">
        <ele>341.41</ele>
        <time>2014-01-25T15:04:05Z</time>
      </trkpt>
      <trkpt lat="45.81973" lon="4.61942">
        <ele>339</ele>
        <time>2014-01-25T15:04:08Z</time>
      </trkpt>
      <trkpt lat="45.81982" lon="4.61976">
        <ele>336.12</ele>
        <time>2014-01-25T15:04:13Z</time>
      </trkpt>
      <trkpt lat="45.81983" lon="4.61982">
        <ele>335.64</ele>
        <time>2014-01-25T15:04:14Z</time>
      </trkpt>
      <trkpt lat="45.81985" lon="4.61985">
        <ele>335.16</ele>
        <time>2014-01-25T15:04:15Z</time>
      </trkpt>
      <trkpt lat="45.81985" lon="4.61989">
        <ele>334.68</ele>
        <time>2014-01-25T15:04:16Z</time>
      </trkpt>
      <trkpt lat="45.81986" lon="4.61992">
        <ele>334.68</ele>
        <time>2014-01-25T15:04:17Z</time>
      </trkpt>
      <trkpt lat="45.81986" lon="4.61995">
        <ele>333.71</ele>
        <time>2014-01-25T15:04:18Z</time>
      </trkpt>
      <trkpt lat="45.81986" lon="4.61998">
        <ele>333.71</ele>
        <time>2014-01-25T15:04:19Z</time>
      </trkpt>
      <trkpt lat="45.81987" lon="4.62001">
        <ele>332.75</ele>
        <time>2014-01-25T15:04:20Z</time>
      </trkpt>
      <trkpt lat="45.81989" lon="4.62005">
        <ele>332.27</ele>
        <time>2014-01-25T15:04:21Z</time>
      </trkpt>
      <trkpt lat="45.8199" lon="4.62008">
        <ele>332.27</ele>
        <time>2014-01-25T15:04:22Z</time>
      </trkpt>
      <trkpt lat="45.81991" lon="4.62011">
        <ele>330.83</ele>
        <time>2014-01-25T15:04:23Z</time>
      </trkpt>
      <trkpt lat="45.81992" lon="4.62015">
        <ele>330.35</ele>
        <time>2014-01-25T15:04:24Z</time>
      </trkpt>
      <trkpt lat="45.81993" lon="4.62018">
        <ele>329.87</ele>
        <time>2014-01-25T15:04:25Z</time>
      </trkpt>
      <trkpt lat="45.81996" lon="4.62026">
        <ele>329.87</ele>
        <time>2014-01-25T15:04:33Z</time>
      </trkpt>
      <trkpt lat="45.81996" lon="4.62026">
        <ele>329.39</ele>
        <time>2014-01-25T15:04:50Z</time>
      </trkpt>
      <trkpt lat="45.81996" lon="4.62027">
        <ele>328.91</ele>
        <time>2014-01-25T15:05:10Z</time>
      </trkpt>
      <trkpt lat="45.81998" lon="4.62027">
        <ele>329.39</ele>
        <time>2014-01-25T15:05:11Z</time>
      </trkpt>
      <trkpt lat="45.81999" lon="4.62026">
        <ele>328.91</ele>
        <time>2014-01-25T15:05:12Z</time>
      </trkpt>
      <trkpt lat="45.82001" lon="4.62025">
        <ele>328.91</ele>
        <time>2014-01-25T15:05:13Z</time>
      </trkpt>
      <trkpt lat="45.82003" lon="4.62023">
        <ele>328.91</ele>
        <time>2014-01-25T15:05:14Z</time>
      </trkpt>
      <trkpt lat="45.82005" lon="4.62021">
        <ele>328.43</ele>
        <time>2014-01-25T15:05:15Z</time>
      </trkpt>
      <trkpt lat="45.82006" lon="4.62018">
        <ele>327.95</ele>
        <time>2014-01-25T15:05:16Z</time>
      </trkpt>
      <trkpt lat="45.82007" lon="4.62016">
        <ele>327.95</ele>
        <time>2014-01-25T15:05:17Z</time>
      </trkpt>
      <trkpt lat="45.82008" lon="4.62014">
        <ele>327.95</ele>
        <time>2014-01-25T15:05:18Z</time>
      </trkpt>
      <trkpt lat="45.82008" lon="4.62012">
        <ele>327.95</ele>
        <time>2014-01-25T15:05:19Z</time>
      </trkpt>
      <trkpt lat="45.8201" lon="4.62011">
        <ele>327.47</ele>
        <time>2014-01-25T15:05:20Z</time>
      </trkpt>
      <trkpt lat="45.82011" lon="4.62011">
        <ele>327.47</ele>
        <time>2014-01-25T15:05:21Z</time>
      </trkpt>
      <trkpt lat="45.82012" lon="4.62012">
        <ele>327.47</ele>
        <time>2014-01-25T15:05:22Z</time>
      </trkpt>
      <trkpt lat="45.82013" lon="4.62014">
        <ele>326.99</ele>
        <time>2014-01-25T15:05:23Z</time>
      </trkpt>
      <trkpt lat="45.82012" lon="4.62017">
        <ele>326.5</ele>
        <time>2014-01-25T15:05:24Z</time>
      </trkpt>
      <trkpt lat="45.82012" lon="4.62019">
        <ele>326.99</ele>
        <time>2014-01-25T15:05:25Z</time>
      </trkpt>
      <trkpt lat="45.82012" lon="4.62022">
        <ele>326.02</ele>
        <time>2014-01-25T15:05:26Z</time>
      </trkpt>
      <trkpt lat="45.82012" lon="4.62026">
        <ele>326.5</ele>
        <time>2014-01-25T15:05:27Z</time>
      </trkpt>
      <trkpt lat="45.82012" lon="4.62029">
        <ele>325.54</ele>
        <time>2014-01-25T15:05:28Z</time>
      </trkpt>
      <trkpt lat="45.82012" lon="4.62033">
        <ele>325.54</ele>
        <time>2014-01-25T15:05:29Z</time>
      </trkpt>
      <trkpt lat="45.82003" lon="4.62059">
        <ele>326.5</ele>
        <time>2014-01-25T15:05:36Z</time>
      </trkpt>
      <trkpt lat="45.81994" lon="4.62083">
        <ele>327.95</ele>
        <time>2014-01-25T15:05:44Z</time>
      </trkpt>
      <trkpt lat="45.82003" lon="4.62107">
        <ele>328.43</ele>
        <time>2014-01-25T15:05:53Z</time>
      </trkpt>
      <trkpt lat="45.82013" lon="4.62114">
        <ele>328.91</ele>
        <time>2014-01-25T15:06:01Z</time>
      </trkpt>
      <trkpt lat="45.82013" lon="4.62114">
        <ele>328.43</ele>
        <time>2014-01-25T15:06:13Z</time>
      </trkpt>
      <trkpt lat="45.82013" lon="4.62114">
        <ele>328.91</ele>
        <time>2014-01-25T15:06:37Z</time>
      </trkpt>
      <trkpt lat="45.82013" lon="4.62114">
        <ele>328.91</ele>
        <time>2014-01-25T15:06:55Z</time>
      </trkpt>
      <trkpt lat="45.82013" lon="4.62114">
        <ele>328.91</ele>
        <time>2014-01-25T15:07:14Z</time>
      </trkpt>
      <trkpt lat="45.82014" lon="4.62114">
        <ele>328.43</ele>
        <time>2014-01-25T15:07:22Z</time>
      </trkpt>
      <trkpt lat="45.82014" lon="4.62114">
        <ele>328.91</ele>
        <time>2014-01-25T15:07:34Z</time>
      </trkpt>
      <trkpt lat="45.82016" lon="4.62114">
        <ele>328.91</ele>
        <time>2014-01-25T15:07:35Z</time>
      </trkpt>
      <trkpt lat="45.82017" lon="4.62115">
        <ele>329.39</ele>
        <time>2014-01-25T15:07:36Z</time>
      </trkpt>
      <trkpt lat="45.82018" lon="4.62116">
        <ele>328.91</ele>
        <time>2014-01-25T15:07:37Z</time>
      </trkpt>
      <trkpt lat="45.8202" lon="4.62117">
        <ele>328.91</ele>
        <time>2014-01-25T15:07:38Z</time>
      </trkpt>
      <trkpt lat="45.82021" lon="4.62118">
        <ele>329.39</ele>
        <time>2014-01-25T15:07:39Z</time>
      </trkpt>
      <trkpt lat="45.82023" lon="4.62118">
        <ele>329.39</ele>
        <time>2014-01-25T15:07:40Z</time>
      </trkpt>
      <trkpt lat="45.82025" lon="4.62118">
        <ele>329.39</ele>
        <time>2014-01-25T15:07:41Z</time>
      </trkpt>
      <trkpt lat="45.82028" lon="4.62118">
        <ele>329.39</ele>
        <time>2014-01-25T15:07:42Z</time>
      </trkpt>
      <trkpt lat="45.8203" lon="4.62119">
        <ele>329.39</ele>
        <time>2014-01-25T15:07:43Z</time>
      </trkpt>
      <trkpt lat="45.82032" lon="4.62119">
        <ele>329.87</ele>
        <time>2014-01-25T15:07:44Z</time>
      </trkpt>
      <trkpt lat="45.82034" lon="4.62119">
        <ele>329.87</ele>
        <time>2014-01-25T15:07:45Z</time>
      </trkpt>
      <trkpt lat="45.82037" lon="4.6212">
        <ele>329.87</ele>
        <time>2014-01-25T15:07:46Z</time>
      </trkpt>
      <trkpt lat="45.82039" lon="4.6212">
        <ele>330.35</ele>
        <time>2014-01-25T15:07:47Z</time>
      </trkpt>
      <trkpt lat="45.82041" lon="4.6212">
        <ele>329.87</ele>
        <time>2014-01-25T15:07:48Z</time>
      </trkpt>
      <trkpt lat="45.82049" lon="4.6212">
        <ele>330.83</ele>
        <time>2014-01-25T15:07:52Z</time>
      </trkpt>
      <trkpt lat="45.82054" lon="4.62116">
        <ele>330.83</ele>
        <time>2014-01-25T15:07:53Z</time>
      </trkpt>
      <trkpt lat="45.82057" lon="4.62115">
        <ele>330.83</ele>
        <time>2014-01-25T15:07:54Z</time>
      </trkpt>
      <trkpt lat="45.82059" lon="4.62115">
        <ele>330.83</ele>
        <time>2014-01-25T15:07:55Z</time>
      </trkpt>
      <trkpt lat="45.82061" lon="4.62115">
        <ele>330.83</ele>
        <time>2014-01-25T15:07:56Z</time>
      </trkpt>
      <trkpt lat="45.82063" lon="4.62115">
        <ele>330.83</ele>
        <time>2014-01-25T15:07:57Z</time>
      </trkpt>
      <trkpt lat="45.82064" lon="4.62114">
        <ele>331.31</ele>
        <time>2014-01-25T15:07:58Z</time>
      </trkpt>
      <trkpt lat="45.82066" lon="4.62115">
        <ele>331.79</ele>
        <time>2014-01-25T15:07:59Z</time>
      </trkpt>
      <trkpt lat="45.82068" lon="4.62115">
        <ele>331.79</ele>
        <time>2014-01-25T15:08:00Z</time>
      </trkpt>
      <trkpt lat="45.8207" lon="4.62115">
        <ele>331.79</ele>
        <time>2014-01-25T15:08:01Z</time>
      </trkpt>
      <trkpt lat="45.82072" lon="4.62115">
        <ele>331.79</ele>
        <time>2014-01-25T15:08:02Z</time>
      </trkpt>
      <trkpt lat="45.82074" lon="4.62115">
        <ele>332.27</ele>
        <time>2014-01-25T15:08:03Z</time>
      </trkpt>
      <trkpt lat="45.82099" lon="4.62111">
        <ele>335.64</ele>
        <time>2014-01-25T15:08:15Z</time>
      </trkpt>
      <trkpt lat="45.82116" lon="4.62112">
        <ele>337.56</ele>
        <time>2014-01-25T15:08:26Z</time>
      </trkpt>
      <trkpt lat="45.8213" lon="4.62118">
        <ele>339.96</ele>
        <time>2014-01-25T15:08:36Z</time>
      </trkpt>
      <trkpt lat="45.82131" lon="4.62119">
        <ele>339.96</ele>
        <time>2014-01-25T15:08:37Z</time>
      </trkpt>
      <trkpt lat="45.82148" lon="4.62129">
        <ele>342.37</ele>
        <time>2014-01-25T15:08:51Z</time>
      </trkpt>
      <trkpt lat="45.82152" lon="4.62131">
        <ele>343.33</ele>
        <time>2014-01-25T15:08:54Z</time>
      </trkpt>
      <trkpt lat="45.82153" lon="4.62132">
        <ele>343.33</ele>
        <time>2014-01-25T15:08:55Z</time>
      </trkpt>
      <trkpt lat="45.82155" lon="4.62132">
        <ele>343.81</ele>
        <time>2014-01-25T15:08:56Z</time>
      </trkpt>
      <trkpt lat="45.82156" lon="4.62133">
        <ele>343.33</ele>
        <time>2014-01-25T15:08:57Z</time>
      </trkpt>
      <trkpt lat="45.82157" lon="4.62134">
        <ele>343.81</ele>
        <time>2014-01-25T15:08:58Z</time>
      </trkpt>
      <trkpt lat="45.82164" lon="4.62139">
        <ele>344.29</ele>
        <time>2014-01-25T15:09:04Z</time>
      </trkpt>
      <trkpt lat="45.82166" lon="4.6214">
        <ele>344.77</ele>
        <time>2014-01-25T15:09:05Z</time>
      </trkpt>
      <trkpt lat="45.82167" lon="4.62141">
        <ele>344.77</ele>
        <time>2014-01-25T15:09:06Z</time>
      </trkpt>
      <trkpt lat="45.82168" lon="4.62142">
        <ele>344.77</ele>
        <time>2014-01-25T15:09:07Z</time>
      </trkpt>
      <trkpt lat="45.82169" lon="4.62143">
        <ele>344.77</ele>
        <time>2014-01-25T15:09:08Z</time>
      </trkpt>
      <trkpt lat="45.8217" lon="4.62144">
        <ele>344.77</ele>
        <time>2014-01-25T15:09:09Z</time>
      </trkpt>
      <trkpt lat="45.82187" lon="4.62172">
        <ele>346.21</ele>
        <time>2014-01-25T15:09:23Z</time>
      </trkpt>
      <trkpt lat="45.82201" lon="4.622">
        <ele>346.69</ele>
        <time>2014-01-25T15:09:36Z</time>
      </trkpt>
      <trkpt lat="45.82218" lon="4.62236">
        <ele>347.17</ele>
        <time>2014-01-25T15:09:51Z</time>
      </trkpt>
      <trkpt lat="45.82228" lon="4.62259">
        <ele>347.65</ele>
        <time>2014-01-25T15:10:00Z</time>
      </trkpt>
      <trkpt lat="45.82251" lon="4.62289">
        <ele>347.17</ele>
        <time>2014-01-25T15:10:10Z</time>
      </trkpt>
      <trkpt lat="45.82262" lon="4.62327">
        <ele>346.21</ele>
        <time>2014-01-25T15:10:18Z</time>
      </trkpt>
      <trkpt lat="45.8225" lon="4.6236">
        <ele>347.17</ele>
        <time>2014-01-25T15:10:26Z</time>
      </trkpt>
      <trkpt lat="45.82231" lon="4.62379">
        <ele>348.13</ele>
        <time>2014-01-25T15:10:35Z</time>
      </trkpt>
      <trkpt lat="45.82214" lon="4.62411">
        <ele>350.06</ele>
        <time>2014-01-25T15:10:45Z</time>
      </trkpt>
      <trkpt lat="45.82212" lon="4.62437">
        <ele>351.5</ele>
        <time>2014-01-25T15:10:53Z</time>
      </trkpt>
      <trkpt lat="45.82216" lon="4.62466">
        <ele>353.42</ele>
        <time>2014-01-25T15:11:02Z</time>
      </trkpt>
      <trkpt lat="45.82216" lon="4.62503">
        <ele>355.34</ele>
        <time>2014-01-25T15:11:15Z</time>
      </trkpt>
      <trkpt lat="45.82209" lon="4.62542">
        <ele>358.23</ele>
        <time>2014-01-25T15:11:29Z</time>
      </trkpt>
      <trkpt lat="45.82214" lon="4.62572">
        <ele>359.67</ele>
        <time>2014-01-25T15:11:40Z</time>
      </trkpt>
      <trkpt lat="45.82232" lon="4.62584">
        <ele>361.11</ele>
        <time>2014-01-25T15:11:50Z</time>
      </trkpt>
      <trkpt lat="45.82252" lon="4.62601">
        <ele>363.04</ele>
        <time>2014-01-25T15:12:01Z</time>
      </trkpt>
      <trkpt lat="45.82263" lon="4.6263">
        <ele>364.48</ele>
        <time>2014-01-25T15:12:12Z</time>
      </trkpt>
      <trkpt lat="45.82269" lon="4.62664">
        <ele>365.92</ele>
        <time>2014-01-25T15:12:24Z</time>
      </trkpt>
      <trkpt lat="45.82268" lon="4.62692">
        <ele>367.36</ele>
        <time>2014-01-25T15:12:34Z</time>
      </trkpt>
      <trkpt lat="45.82265" lon="4.62719">
        <ele>368.32</ele>
        <time>2014-01-25T15:12:44Z</time>
      </trkpt>
      <trkpt lat="45.82263" lon="4.62751">
        <ele>369.76</ele>
        <time>2014-01-25T15:12:55Z</time>
      </trkpt>
      <trkpt lat="45.82259" lon="4.62778">
        <ele>370.73</ele>
        <time>2014-01-25T15:13:05Z</time>
      </trkpt>
      <trkpt lat="45.82254" lon="4.62814">
        <ele>372.65</ele>
        <time>2014-01-25T15:13:17Z</time>
      </trkpt>
      <trkpt lat="45.82251" lon="4.62846">
        <ele>374.09</ele>
        <time>2014-01-25T15:13:28Z</time>
      </trkpt>
      <trkpt lat="45.82244" lon="4.62878">
        <ele>375.05</ele>
        <time>2014-01-25T15:13:40Z</time>
      </trkpt>
      <trkpt lat="45.82237" lon="4.62918">
        <ele>375.05</ele>
        <time>2014-01-25T15:13:50Z</time>
      </trkpt>
      <trkpt lat="45.82232" lon="4.62958">
        <ele>374.57</ele>
        <time>2014-01-25T15:14:00Z</time>
      </trkpt>
      <trkpt lat="45.82222" lon="4.63014">
        <ele>372.65</ele>
        <time>2014-01-25T15:14:11Z</time>
      </trkpt>
      <trkpt lat="45.82212" lon="4.63085">
        <ele>371.21</ele>
        <time>2014-01-25T15:14:21Z</time>
      </trkpt>
      <trkpt lat="45.82205" lon="4.63127">
        <ele>370.73</ele>
        <time>2014-01-25T15:14:27Z</time>
      </trkpt>
      <trkpt lat="45.82203" lon="4.63132">
        <ele>369.76</ele>
        <time>2014-01-25T15:14:28Z</time>
      </trkpt>
      <trkpt lat="45.82199" lon="4.63137">
        <ele>369.76</ele>
        <time>2014-01-25T15:14:29Z</time>
      </trkpt>
      <trkpt lat="45.82181" lon="4.63165">
        <ele>371.21</ele>
        <time>2014-01-25T15:14:37Z</time>
      </trkpt>
      <trkpt lat="45.82176" lon="4.63169">
        <ele>372.17</ele>
        <time>2014-01-25T15:14:44Z</time>
      </trkpt>
      <trkpt lat="45.82176" lon="4.63169">
        <ele>372.17</ele>
        <time>2014-01-25T15:14:57Z</time>
      </trkpt>
      <trkpt lat="45.82172" lon="4.63171">
        <ele>372.65</ele>
        <time>2014-01-25T15:15:16Z</time>
      </trkpt>
      <trkpt lat="45.82171" lon="4.63171">
        <ele>372.65</ele>
        <time>2014-01-25T15:15:17Z</time>
      </trkpt>
      <trkpt lat="45.8217" lon="4.63171">
        <ele>372.65</ele>
        <time>2014-01-25T15:15:18Z</time>
      </trkpt>
      <trkpt lat="45.82162" lon="4.63167">
        <ele>374.57</ele>
        <time>2014-01-25T15:15:26Z</time>
      </trkpt>
      <trkpt lat="45.82161" lon="4.63165">
        <ele>373.61</ele>
        <time>2014-01-25T15:15:27Z</time>
      </trkpt>
      <trkpt lat="45.8216" lon="4.63165">
        <ele>374.57</ele>
        <time>2014-01-25T15:15:28Z</time>
      </trkpt>
      <trkpt lat="45.82159" lon="4.63164">
        <ele>374.57</ele>
        <time>2014-01-25T15:15:29Z</time>
      </trkpt>
      <trkpt lat="45.82158" lon="4.63163">
        <ele>374.57</ele>
        <time>2014-01-25T15:15:30Z</time>
      </trkpt>
      <trkpt lat="45.82157" lon="4.63162">
        <ele>375.05</ele>
        <time>2014-01-25T15:15:31Z</time>
      </trkpt>
      <trkpt lat="45.82155" lon="4.63159">
        <ele>375.53</ele>
        <time>2014-01-25T15:15:34Z</time>
      </trkpt>
      <trkpt lat="45.82154" lon="4.63158">
        <ele>376.01</ele>
        <time>2014-01-25T15:15:35Z</time>
      </trkpt>
      <trkpt lat="45.82153" lon="4.63158">
        <ele>376.01</ele>
        <time>2014-01-25T15:15:36Z</time>
      </trkpt>
      <trkpt lat="45.82152" lon="4.63157">
        <ele>376.49</ele>
        <time>2014-01-25T15:15:37Z</time>
      </trkpt>
      <trkpt lat="45.82151" lon="4.63156">
        <ele>376.97</ele>
        <time>2014-01-25T15:15:38Z</time>
      </trkpt>
      <trkpt lat="45.8215" lon="4.63155">
        <ele>376.97</ele>
        <time>2014-01-25T15:15:39Z</time>
      </trkpt>
      <trkpt lat="45.82148" lon="4.63154">
        <ele>376.97</ele>
        <time>2014-01-25T15:15:40Z</time>
      </trkpt>
      <trkpt lat="45.82141" lon="4.63147">
        <ele>378.9</ele>
        <time>2014-01-25T15:15:51Z</time>
      </trkpt>
      <trkpt lat="45.82141" lon="4.63147">
        <ele>379.38</ele>
        <time>2014-01-25T15:16:04Z</time>
      </trkpt>
      <trkpt lat="45.82138" lon="4.63145">
        <ele>379.86</ele>
        <time>2014-01-25T15:16:13Z</time>
      </trkpt>
      <trkpt lat="45.82132" lon="4.63141">
        <ele>380.82</ele>
        <time>2014-01-25T15:16:22Z</time>
      </trkpt>
      <trkpt lat="45.82125" lon="4.63134">
        <ele>383.22</ele>
        <time>2014-01-25T15:16:34Z</time>
      </trkpt>
      <trkpt lat="45.82123" lon="4.63131">
        <ele>383.7</ele>
        <time>2014-01-25T15:16:44Z</time>
      </trkpt>
      <trkpt lat="45.82119" lon="4.63125">
        <ele>384.18</ele>
        <time>2014-01-25T15:16:55Z</time>
      </trkpt>
      <trkpt lat="45.82112" lon="4.63119">
        <ele>386.11</ele>
        <time>2014-01-25T15:17:05Z</time>
      </trkpt>
      <trkpt lat="45.82108" lon="4.63115">
        <ele>387.07</ele>
        <time>2014-01-25T15:17:16Z</time>
      </trkpt>
      <trkpt lat="45.82104" lon="4.6311">
        <ele>388.03</ele>
        <time>2014-01-25T15:17:33Z</time>
      </trkpt>
      <trkpt lat="45.82096" lon="4.63104">
        <ele>389.95</ele>
        <time>2014-01-25T15:17:46Z</time>
      </trkpt>
      <trkpt lat="45.82088" lon="4.63099">
        <ele>391.87</ele>
        <time>2014-01-25T15:17:58Z</time>
      </trkpt>
      <trkpt lat="45.8208" lon="4.63092">
        <ele>392.84</ele>
        <time>2014-01-25T15:18:09Z</time>
      </trkpt>
      <trkpt lat="45.82078" lon="4.6309">
        <ele>394.28</ele>
        <time>2014-01-25T15:18:19Z</time>
      </trkpt>
      <trkpt lat="45.82077" lon="4.63088">
        <ele>394.28</ele>
        <time>2014-01-25T15:18:21Z</time>
      </trkpt>
      <trkpt lat="45.8207" lon="4.63082">
        <ele>395.24</ele>
        <time>2014-01-25T15:18:31Z</time>
      </trkpt>
      <trkpt lat="45.8206" lon="4.63074">
        <ele>397.16</ele>
        <time>2014-01-25T15:18:44Z</time>
      </trkpt>
      <trkpt lat="45.82053" lon="4.63073">
        <ele>398.6</ele>
        <time>2014-01-25T15:18:53Z</time>
      </trkpt>
      <trkpt lat="45.82045" lon="4.63073">
        <ele>400.05</ele>
        <time>2014-01-25T15:19:03Z</time>
      </trkpt>
      <trkpt lat="45.82041" lon="4.63077">
        <ele>400.53</ele>
        <time>2014-01-25T15:19:13Z</time>
      </trkpt>
      <trkpt lat="45.8204" lon="4.63077">
        <ele>400.05</ele>
        <time>2014-01-25T15:19:14Z</time>
      </trkpt>
      <trkpt lat="45.82026" lon="4.63095">
        <ele>400.53</ele>
        <time>2014-01-25T15:19:27Z</time>
      </trkpt>
      <trkpt lat="45.82016" lon="4.63108">
        <ele>400.53</ele>
        <time>2014-01-25T15:19:35Z</time>
      </trkpt>
      <trkpt lat="45.82014" lon="4.6311">
        <ele>400.53</ele>
        <time>2014-01-25T15:19:46Z</time>
      </trkpt>
      <trkpt lat="45.82014" lon="4.6311">
        <ele>400.53</ele>
        <time>2014-01-25T15:20:10Z</time>
      </trkpt>
      <trkpt lat="45.82014" lon="4.6311">
        <ele>400.53</ele>
        <time>2014-01-25T15:20:29Z</time>
      </trkpt>
      <trkpt lat="45.82014" lon="4.6311">
        <ele>401.01</ele>
        <time>2014-01-25T15:20:56Z</time>
      </trkpt>
      <trkpt lat="45.82014" lon="4.63111">
        <ele>400.53</ele>
        <time>2014-01-25T15:21:22Z</time>
      </trkpt>
      <trkpt lat="45.82014" lon="4.6311">
        <ele>400.05</ele>
        <time>2014-01-25T15:21:51Z</time>
      </trkpt>
      <trkpt lat="45.82014" lon="4.6311">
        <ele>400.53</ele>
        <time>2014-01-25T15:22:15Z</time>
      </trkpt>
      <trkpt lat="45.82013" lon="4.63111">
        <ele>400.53</ele>
        <time>2014-01-25T15:22:27Z</time>
      </trkpt>
      <trkpt lat="45.82012" lon="4.63112">
        <ele>400.05</ele>
        <time>2014-01-25T15:22:31Z</time>
      </trkpt>
      <trkpt lat="45.81999" lon="4.63135">
        <ele>399.57</ele>
        <time>2014-01-25T15:22:42Z</time>
      </trkpt>
      <trkpt lat="45.81983" lon="4.63149">
        <ele>398.12</ele>
        <time>2014-01-25T15:22:50Z</time>
      </trkpt>
      <trkpt lat="45.81973" lon="4.63137">
        <ele>401.01</ele>
        <time>2014-01-25T15:23:00Z</time>
      </trkpt>
      <trkpt lat="45.81963" lon="4.63121">
        <ele>404.37</ele>
        <time>2014-01-25T15:23:12Z</time>
      </trkpt>
      <trkpt lat="45.81957" lon="4.63111">
        <ele>406.29</ele>
        <time>2014-01-25T15:23:21Z</time>
      </trkpt>
      <trkpt lat="45.81947" lon="4.6309">
        <ele>410.14</ele>
        <time>2014-01-25T15:23:36Z</time>
      </trkpt>
      <trkpt lat="45.81945" lon="4.63086">
        <ele>410.62</ele>
        <time>2014-01-25T15:23:39Z</time>
      </trkpt>
      <trkpt lat="45.81938" lon="4.63072">
        <ele>412.54</ele>
        <time>2014-01-25T15:23:50Z</time>
      </trkpt>
      <trkpt lat="45.81928" lon="4.63055">
        <ele>414.47</ele>
        <time>2014-01-25T15:24:03Z</time>
      </trkpt>
      <trkpt lat="45.81916" lon="4.63044">
        <ele>416.39</ele>
        <time>2014-01-25T15:24:14Z</time>
      </trkpt>
      <trkpt lat="45.81898" lon="4.63037">
        <ele>417.83</ele>
        <time>2014-01-25T15:24:27Z</time>
      </trkpt>
      <trkpt lat="45.81883" lon="4.63027">
        <ele>419.27</ele>
        <time>2014-01-25T15:24:39Z</time>
      </trkpt>
      <trkpt lat="45.81867" lon="4.63014">
        <ele>419.75</ele>
        <time>2014-01-25T15:24:53Z</time>
      </trkpt>
      <trkpt lat="45.8185" lon="4.63005">
        <ele>420.23</ele>
        <time>2014-01-25T15:25:05Z</time>
      </trkpt>
      <trkpt lat="45.81846" lon="4.63003">
        <ele>419.75</ele>
        <time>2014-01-25T15:25:07Z</time>
      </trkpt>
      <trkpt lat="45.81826" lon="4.63011">
        <ele>420.71</ele>
        <time>2014-01-25T15:25:19Z</time>
      </trkpt>
      <trkpt lat="45.81804" lon="4.63024">
        <ele>420.71</ele>
        <time>2014-01-25T15:25:32Z</time>
      </trkpt>
      <trkpt lat="45.81783" lon="4.63042">
        <ele>421.68</ele>
        <time>2014-01-25T15:25:45Z</time>
      </trkpt>
      <trkpt lat="45.81765" lon="4.63056">
        <ele>421.19</ele>
        <time>2014-01-25T15:25:56Z</time>
      </trkpt>
      <trkpt lat="45.81739" lon="4.63054">
        <ele>420.71</ele>
        <time>2014-01-25T15:26:07Z</time>
      </trkpt>
      <trkpt lat="45.81715" lon="4.6304">
        <ele>419.27</ele>
        <time>2014-01-25T15:26:17Z</time>
      </trkpt>
      <trkpt lat="45.81686" lon="4.63039">
        <ele>417.83</ele>
        <time>2014-01-25T15:26:27Z</time>
      </trkpt>
      <trkpt lat="45.81664" lon="4.63039">
        <ele>415.43</ele>
        <time>2014-01-25T15:26:32Z</time>
      </trkpt>
      <trkpt lat="45.8166" lon="4.63038">
        <ele>414.95</ele>
        <time>2014-01-25T15:26:33Z</time>
      </trkpt>
      <trkpt lat="45.81656" lon="4.63038">
        <ele>413.98</ele>
        <time>2014-01-25T15:26:34Z</time>
      </trkpt>
      <trkpt lat="45.81652" lon="4.63037">
        <ele>413.5</ele>
        <time>2014-01-25T15:26:35Z</time>
      </trkpt>
      <trkpt lat="45.81632" lon="4.63038">
        <ele>410.62</ele>
        <time>2014-01-25T15:26:41Z</time>
      </trkpt>
      <trkpt lat="45.8163" lon="4.63042">
        <ele>410.62</ele>
        <time>2014-01-25T15:26:42Z</time>
      </trkpt>
      <trkpt lat="45.81629" lon="4.63046">
        <ele>410.62</ele>
        <time>2014-01-25T15:26:43Z</time>
      </trkpt>
      <trkpt lat="45.81629" lon="4.63051">
        <ele>410.62</ele>
        <time>2014-01-25T15:26:44Z</time>
      </trkpt>
      <trkpt lat="45.81629" lon="4.63055">
        <ele>410.62</ele>
        <time>2014-01-25T15:26:45Z</time>
      </trkpt>
      <trkpt lat="45.81629" lon="4.6306">
        <ele>411.1</ele>
        <time>2014-01-25T15:26:46Z</time>
      </trkpt>
      <trkpt lat="45.8163" lon="4.63064">
        <ele>411.1</ele>
        <time>2014-01-25T15:26:47Z</time>
      </trkpt>
      <trkpt lat="45.8163" lon="4.63067">
        <ele>411.1</ele>
        <time>2014-01-25T15:26:48Z</time>
      </trkpt>
      <trkpt lat="45.81631" lon="4.63071">
        <ele>411.1</ele>
        <time>2014-01-25T15:26:49Z</time>
      </trkpt>
      <trkpt lat="45.81643" lon="4.63124">
        <ele>413.02</ele>
        <time>2014-01-25T15:27:03Z</time>
      </trkpt>
      <trkpt lat="45.81658" lon="4.63172">
        <ele>413.98</ele>
        <time>2014-01-25T15:27:16Z</time>
      </trkpt>
      <trkpt lat="45.8166" lon="4.63183">
        <ele>413.98</ele>
        <time>2014-01-25T15:27:24Z</time>
      </trkpt>
      <trkpt lat="45.8166" lon="4.63183">
        <ele>418.31</ele>
        <time>2014-01-25T15:27:26Z</time>
      </trkpt>
      <trkpt lat="45.8166" lon="4.63183">
        <ele>413.98</ele>
        <time>2014-01-25T15:27:27Z</time>
      </trkpt>
      <trkpt lat="45.8166" lon="4.63183">
        <ele>413.98</ele>
        <time>2014-01-25T15:27:46Z</time>
      </trkpt>
      <trkpt lat="45.81666" lon="4.63201">
        <ele>413.02</ele>
        <time>2014-01-25T15:27:54Z</time>
      </trkpt>
      <trkpt lat="45.81674" lon="4.6323">
        <ele>412.54</ele>
        <time>2014-01-25T15:28:03Z</time>
      </trkpt>
      <trkpt lat="45.81684" lon="4.63272">
        <ele>411.58</ele>
        <time>2014-01-25T15:28:14Z</time>
      </trkpt>
      <trkpt lat="45.81697" lon="4.63317">
        <ele>412.06</ele>
        <time>2014-01-25T15:28:26Z</time>
      </trkpt>
      <trkpt lat="45.81711" lon="4.63356">
        <ele>412.06</ele>
        <time>2014-01-25T15:28:37Z</time>
      </trkpt>
      <trkpt lat="45.81726" lon="4.63391">
        <ele>412.54</ele>
        <time>2014-01-25T15:28:47Z</time>
      </trkpt>
      <trkpt lat="45.81744" lon="4.6343">
        <ele>412.54</ele>
        <time>2014-01-25T15:28:58Z</time>
      </trkpt>
      <trkpt lat="45.81761" lon="4.63473">
        <ele>413.98</ele>
        <time>2014-01-25T15:29:11Z</time>
      </trkpt>
      <trkpt lat="45.81773" lon="4.63507">
        <ele>413.5</ele>
        <time>2014-01-25T15:29:21Z</time>
      </trkpt>
      <trkpt lat="45.81786" lon="4.63541">
        <ele>413.5</ele>
        <time>2014-01-25T15:29:30Z</time>
      </trkpt>
      <trkpt lat="45.81796" lon="4.63575">
        <ele>413.98</ele>
        <time>2014-01-25T15:29:40Z</time>
      </trkpt>
      <trkpt lat="45.81797" lon="4.63577">
        <ele>413.5</ele>
        <time>2014-01-25T15:29:41Z</time>
      </trkpt>
      <trkpt lat="45.8181" lon="4.63605">
        <ele>413.02</ele>
        <time>2014-01-25T15:29:51Z</time>
      </trkpt>
      <trkpt lat="45.8182" lon="4.63637">
        <ele>413.98</ele>
        <time>2014-01-25T15:30:03Z</time>
      </trkpt>
      <trkpt lat="45.81831" lon="4.63666">
        <ele>414.47</ele>
        <time>2014-01-25T15:30:14Z</time>
      </trkpt>
      <trkpt lat="45.81846" lon="4.63697">
        <ele>415.43</ele>
        <time>2014-01-25T15:30:26Z</time>
      </trkpt>
      <trkpt lat="45.81858" lon="4.63728">
        <ele>415.43</ele>
        <time>2014-01-25T15:30:37Z</time>
      </trkpt>
      <trkpt lat="45.8187" lon="4.63758">
        <ele>416.39</ele>
        <time>2014-01-25T15:30:48Z</time>
      </trkpt>
      <trkpt lat="45.81888" lon="4.63794">
        <ele>415.91</ele>
        <time>2014-01-25T15:31:00Z</time>
      </trkpt>
      <trkpt lat="45.81909" lon="4.63829">
        <ele>413.5</ele>
        <time>2014-01-25T15:31:11Z</time>
      </trkpt>
      <trkpt lat="45.81928" lon="4.63857">
        <ele>411.58</ele>
        <time>2014-01-25T15:31:20Z</time>
      </trkpt>
      <trkpt lat="45.81942" lon="4.63892">
        <ele>410.14</ele>
        <time>2014-01-25T15:31:29Z</time>
      </trkpt>
      <trkpt lat="45.81955" lon="4.63945">
        <ele>407.74</ele>
        <time>2014-01-25T15:31:41Z</time>
      </trkpt>
      <trkpt lat="45.8196" lon="4.63994">
        <ele>405.33</ele>
        <time>2014-01-25T15:31:51Z</time>
      </trkpt>
      <trkpt lat="45.8196" lon="4.64012">
        <ele>404.37</ele>
        <time>2014-01-25T15:31:59Z</time>
      </trkpt>
      <trkpt lat="45.8196" lon="4.64012">
        <ele>403.41</ele>
        <time>2014-01-25T15:32:18Z</time>
      </trkpt>
      <trkpt lat="45.8196" lon="4.64012">
        <ele>405.33</ele>
        <time>2014-01-25T15:32:37Z</time>
      </trkpt>
      <trkpt lat="45.8196" lon="4.64012">
        <ele>403.41</ele>
        <time>2014-01-25T15:32:55Z</time>
      </trkpt>
      <trkpt lat="45.8196" lon="4.64012">
        <ele>399.57</ele>
        <time>2014-01-25T15:33:03Z</time>
      </trkpt>
      <trkpt lat="45.8196" lon="4.64012">
        <ele>404.37</ele>
        <time>2014-01-25T15:33:04Z</time>
      </trkpt>
      <trkpt lat="45.8196" lon="4.64015">
        <ele>403.41</ele>
        <time>2014-01-25T15:33:21Z</time>
      </trkpt>
      <trkpt lat="45.8196" lon="4.64017">
        <ele>402.93</ele>
        <time>2014-01-25T15:33:22Z</time>
      </trkpt>
      <trkpt lat="45.8196" lon="4.64019">
        <ele>402.93</ele>
        <time>2014-01-25T15:33:23Z</time>
      </trkpt>
      <trkpt lat="45.81961" lon="4.64059">
        <ele>400.05</ele>
        <time>2014-01-25T15:33:35Z</time>
      </trkpt>
      <trkpt lat="45.8196" lon="4.64098">
        <ele>397.16</ele>
        <time>2014-01-25T15:33:45Z</time>
      </trkpt>
      <trkpt lat="45.81959" lon="4.64106">
        <ele>396.2</ele>
        <time>2014-01-25T15:33:47Z</time>
      </trkpt>
      <trkpt lat="45.81952" lon="4.64137">
        <ele>392.36</ele>
        <time>2014-01-25T15:33:54Z</time>
      </trkpt>
      <trkpt lat="45.81941" lon="4.64167">
        <ele>390.43</ele>
        <time>2014-01-25T15:34:02Z</time>
      </trkpt>
      <trkpt lat="45.8194" lon="4.64171">
        <ele>389.95</ele>
        <time>2014-01-25T15:34:04Z</time>
      </trkpt>
      <trkpt lat="45.81942" lon="4.64176">
        <ele>388.99</ele>
        <time>2014-01-25T15:34:12Z</time>
      </trkpt>
      <trkpt lat="45.81942" lon="4.64176">
        <ele>388.99</ele>
        <time>2014-01-25T15:34:22Z</time>
      </trkpt>
      <trkpt lat="45.81942" lon="4.64176">
        <ele>389.47</ele>
        <time>2014-01-25T15:34:39Z</time>
      </trkpt>
      <trkpt lat="45.81942" lon="4.64176">
        <ele>388.99</ele>
        <time>2014-01-25T15:34:55Z</time>
      </trkpt>
      <trkpt lat="45.8194" lon="4.64178">
        <ele>388.99</ele>
        <time>2014-01-25T15:35:03Z</time>
      </trkpt>
      <trkpt lat="45.81939" lon="4.6418">
        <ele>388.99</ele>
        <time>2014-01-25T15:35:04Z</time>
      </trkpt>
      <trkpt lat="45.81925" lon="4.64212">
        <ele>388.03</ele>
        <time>2014-01-25T15:35:11Z</time>
      </trkpt>
      <trkpt lat="45.81911" lon="4.6424">
        <ele>386.59</ele>
        <time>2014-01-25T15:35:15Z</time>
      </trkpt>
      <trkpt lat="45.81906" lon="4.64246">
        <ele>386.59</ele>
        <time>2014-01-25T15:35:16Z</time>
      </trkpt>
      <trkpt lat="45.81897" lon="4.64256">
        <ele>386.11</ele>
        <time>2014-01-25T15:35:18Z</time>
      </trkpt>
      <trkpt lat="45.81887" lon="4.64264">
        <ele>386.11</ele>
        <time>2014-01-25T15:35:20Z</time>
      </trkpt>
      <trkpt lat="45.81831" lon="4.6429">
        <ele>386.59</ele>
        <time>2014-01-25T15:35:32Z</time>
      </trkpt>
      <trkpt lat="45.81776" lon="4.64295">
        <ele>385.63</ele>
        <time>2014-01-25T15:35:44Z</time>
      </trkpt>
      <trkpt lat="45.81731" lon="4.64306">
        <ele>383.7</ele>
        <time>2014-01-25T15:35:56Z</time>
      </trkpt>
      <trkpt lat="45.81706" lon="4.64313">
        <ele>379.86</ele>
        <time>2014-01-25T15:36:03Z</time>
      </trkpt>
      <trkpt lat="45.81701" lon="4.64317">
        <ele>379.38</ele>
        <time>2014-01-25T15:36:10Z</time>
      </trkpt>
      <trkpt lat="45.81701" lon="4.64317">
        <ele>384.66</ele>
        <time>2014-01-25T15:36:15Z</time>
      </trkpt>
      <trkpt lat="45.81701" lon="4.64317">
        <ele>380.34</ele>
        <time>2014-01-25T15:36:16Z</time>
      </trkpt>
      <trkpt lat="45.81701" lon="4.64317">
        <ele>378.9</ele>
        <time>2014-01-25T15:36:34Z</time>
      </trkpt>
      <trkpt lat="45.81702" lon="4.64319">
        <ele>379.38</ele>
        <time>2014-01-25T15:36:35Z</time>
      </trkpt>
      <trkpt lat="45.81704" lon="4.64321">
        <ele>379.38</ele>
        <time>2014-01-25T15:36:36Z</time>
      </trkpt>
      <trkpt lat="45.81707" lon="4.64323">
        <ele>379.38</ele>
        <time>2014-01-25T15:36:37Z</time>
      </trkpt>
      <trkpt lat="45.8171" lon="4.64324">
        <ele>378.9</ele>
        <time>2014-01-25T15:36:38Z</time>
      </trkpt>
      <trkpt lat="45.81749" lon="4.64354">
        <ele>376.01</ele>
        <time>2014-01-25T15:36:47Z</time>
      </trkpt>
      <trkpt lat="45.81802" lon="4.64381">
        <ele>373.13</ele>
        <time>2014-01-25T15:36:56Z</time>
      </trkpt>
      <trkpt lat="45.8187" lon="4.64429">
        <ele>369.28</ele>
        <time>2014-01-25T15:37:06Z</time>
      </trkpt>
      <trkpt lat="45.81886" lon="4.64441">
        <ele>367.84</ele>
        <time>2014-01-25T15:37:08Z</time>
      </trkpt>
      <trkpt lat="45.8192" lon="4.64468">
        <ele>365.92</ele>
        <time>2014-01-25T15:37:14Z</time>
      </trkpt>
      <trkpt lat="45.8193" lon="4.64482">
        <ele>365.44</ele>
        <time>2014-01-25T15:37:21Z</time>
      </trkpt>
      <trkpt lat="45.81924" lon="4.64517">
        <ele>362.07</ele>
        <time>2014-01-25T15:37:29Z</time>
      </trkpt>
      <trkpt lat="45.81921" lon="4.64541">
        <ele>360.15</ele>
        <time>2014-01-25T15:37:33Z</time>
      </trkpt>
      <trkpt lat="45.81911" lon="4.64613">
        <ele>357.27</ele>
        <time>2014-01-25T15:37:44Z</time>
      </trkpt>
      <trkpt lat="45.81909" lon="4.64625">
        <ele>357.27</ele>
        <time>2014-01-25T15:37:46Z</time>
      </trkpt>
      <trkpt lat="45.81907" lon="4.64632">
        <ele>356.79</ele>
        <time>2014-01-25T15:37:47Z</time>
      </trkpt>
      <trkpt lat="45.81897" lon="4.64658">
        <ele>355.34</ele>
        <time>2014-01-25T15:37:52Z</time>
      </trkpt>
      <trkpt lat="45.81883" lon="4.64688">
        <ele>354.38</ele>
        <time>2014-01-25T15:37:58Z</time>
      </trkpt>
      <trkpt lat="45.8188" lon="4.64694">
        <ele>354.38</ele>
        <time>2014-01-25T15:37:59Z</time>
      </trkpt>
      <trkpt lat="45.81878" lon="4.64699">
        <ele>353.9</ele>
        <time>2014-01-25T15:38:00Z</time>
      </trkpt>
      <trkpt lat="45.81876" lon="4.64705">
        <ele>352.94</ele>
        <time>2014-01-25T15:38:01Z</time>
      </trkpt>
      <trkpt lat="45.81873" lon="4.6471">
        <ele>351.98</ele>
        <time>2014-01-25T15:38:02Z</time>
      </trkpt>
      <trkpt lat="45.81871" lon="4.64715">
        <ele>351.98</ele>
        <time>2014-01-25T15:38:03Z</time>
      </trkpt>
      <trkpt lat="45.81867" lon="4.64725">
        <ele>347.17</ele>
        <time>2014-01-25T15:38:07Z</time>
      </trkpt>
      <trkpt lat="45.81867" lon="4.64725">
        <ele>353.9</ele>
        <time>2014-01-25T15:38:08Z</time>
      </trkpt>
      <trkpt lat="45.81867" lon="4.64725">
        <ele>351.02</ele>
        <time>2014-01-25T15:38:09Z</time>
      </trkpt>
      <trkpt lat="45.81867" lon="4.64725">
        <ele>351.02</ele>
        <time>2014-01-25T15:38:13Z</time>
      </trkpt>
      <trkpt lat="45.81866" lon="4.64727">
        <ele>351.02</ele>
        <time>2014-01-25T15:38:14Z</time>
      </trkpt>
      <trkpt lat="45.81865" lon="4.64729">
        <ele>350.54</ele>
        <time>2014-01-25T15:38:15Z</time>
      </trkpt>
      <trkpt lat="45.81863" lon="4.64732">
        <ele>350.54</ele>
        <time>2014-01-25T15:38:16Z</time>
      </trkpt>
      <trkpt lat="45.81861" lon="4.64734">
        <ele>350.06</ele>
        <time>2014-01-25T15:38:17Z</time>
      </trkpt>
      <trkpt lat="45.81852" lon="4.6475">
        <ele>349.1</ele>
        <time>2014-01-25T15:38:23Z</time>
      </trkpt>
      <trkpt lat="45.81844" lon="4.64764">
        <ele>347.17</ele>
        <time>2014-01-25T15:38:27Z</time>
      </trkpt>
      <trkpt lat="45.81837" lon="4.64781">
        <ele>346.21</ele>
        <time>2014-01-25T15:38:30Z</time>
      </trkpt>
      <trkpt lat="45.81827" lon="4.64804">
        <ele>345.25</ele>
        <time>2014-01-25T15:38:34Z</time>
      </trkpt>
      <trkpt lat="45.81825" lon="4.6481">
        <ele>345.25</ele>
        <time>2014-01-25T15:38:35Z</time>
      </trkpt>
      <trkpt lat="45.81814" lon="4.64834">
        <ele>343.81</ele>
        <time>2014-01-25T15:38:39Z</time>
      </trkpt>
      <trkpt lat="45.81812" lon="4.6484">
        <ele>344.29</ele>
        <time>2014-01-25T15:38:40Z</time>
      </trkpt>
      <trkpt lat="45.81806" lon="4.6485">
        <ele>343.33</ele>
        <time>2014-01-25T15:38:42Z</time>
      </trkpt>
      <trkpt lat="45.81779" lon="4.649">
        <ele>339.96</ele>
        <time>2014-01-25T15:38:51Z</time>
      </trkpt>
      <trkpt lat="45.81771" lon="4.64915">
        <ele>339</ele>
        <time>2014-01-25T15:38:55Z</time>
      </trkpt>
      <trkpt lat="45.81766" lon="4.64922">
        <ele>337.56</ele>
        <time>2014-01-25T15:38:58Z</time>
      </trkpt>
      <trkpt lat="45.81763" lon="4.64927">
        <ele>336.6</ele>
        <time>2014-01-25T15:39:01Z</time>
      </trkpt>
      <trkpt lat="45.81762" lon="4.64928">
        <ele>336.6</ele>
        <time>2014-01-25T15:39:02Z</time>
      </trkpt>
      <trkpt lat="45.8176" lon="4.6493">
        <ele>336.12</ele>
        <time>2014-01-25T15:39:03Z</time>
      </trkpt>
      <trkpt lat="45.81759" lon="4.64932">
        <ele>335.64</ele>
        <time>2014-01-25T15:39:04Z</time>
      </trkpt>
      <trkpt lat="45.81758" lon="4.64934">
        <ele>335.64</ele>
        <time>2014-01-25T15:39:05Z</time>
      </trkpt>
      <trkpt lat="45.81756" lon="4.64937">
        <ele>335.16</ele>
        <time>2014-01-25T15:39:06Z</time>
      </trkpt>
      <trkpt lat="45.81754" lon="4.64941">
        <ele>334.2</ele>
        <time>2014-01-25T15:39:07Z</time>
      </trkpt>
      <trkpt lat="45.81752" lon="4.64945">
        <ele>334.2</ele>
        <time>2014-01-25T15:39:08Z</time>
      </trkpt>
      <trkpt lat="45.81743" lon="4.64978">
        <ele>331.31</ele>
        <time>2014-01-25T15:39:15Z</time>
      </trkpt>
      <trkpt lat="45.81744" lon="4.65003">
        <ele>328.91</ele>
        <time>2014-01-25T15:39:20Z</time>
      </trkpt>
      <trkpt lat="45.81742" lon="4.65016">
        <ele>327.47</ele>
        <time>2014-01-25T15:39:23Z</time>
      </trkpt>
      <trkpt lat="45.81743" lon="4.65052">
        <ele>324.1</ele>
        <time>2014-01-25T15:39:29Z</time>
      </trkpt>
      <trkpt lat="45.81743" lon="4.65066">
        <ele>322.66</ele>
        <time>2014-01-25T15:39:31Z</time>
      </trkpt>
      <trkpt lat="45.81742" lon="4.65073">
        <ele>322.18</ele>
        <time>2014-01-25T15:39:32Z</time>
      </trkpt>
      <trkpt lat="45.8174" lon="4.65082">
        <ele>321.7</ele>
        <time>2014-01-25T15:39:33Z</time>
      </trkpt>
      <trkpt lat="45.81738" lon="4.6509">
        <ele>320.26</ele>
        <time>2014-01-25T15:39:34Z</time>
      </trkpt>
      <trkpt lat="45.81735" lon="4.65099">
        <ele>319.3</ele>
        <time>2014-01-25T15:39:35Z</time>
      </trkpt>
      <trkpt lat="45.81732" lon="4.65107">
        <ele>318.33</ele>
        <time>2014-01-25T15:39:36Z</time>
      </trkpt>
      <trkpt lat="45.81723" lon="4.65129">
        <ele>314.49</ele>
        <time>2014-01-25T15:39:39Z</time>
      </trkpt>
      <trkpt lat="45.81718" lon="4.65136">
        <ele>313.53</ele>
        <time>2014-01-25T15:39:40Z</time>
      </trkpt>
      <trkpt lat="45.81712" lon="4.65143">
        <ele>312.09</ele>
        <time>2014-01-25T15:39:41Z</time>
      </trkpt>
      <trkpt lat="45.81705" lon="4.65149">
        <ele>311.12</ele>
        <time>2014-01-25T15:39:42Z</time>
      </trkpt>
      <trkpt lat="45.81698" lon="4.65156">
        <ele>309.68</ele>
        <time>2014-01-25T15:39:43Z</time>
      </trkpt>
      <trkpt lat="45.81685" lon="4.65168">
        <ele>307.28</ele>
        <time>2014-01-25T15:39:45Z</time>
      </trkpt>
      <trkpt lat="45.81656" lon="4.65205">
        <ele>303.43</ele>
        <time>2014-01-25T15:39:50Z</time>
      </trkpt>
      <trkpt lat="45.8164" lon="4.65228">
        <ele>300.55</ele>
        <time>2014-01-25T15:39:54Z</time>
      </trkpt>
      <trkpt lat="45.81634" lon="4.65241">
        <ele>299.11</ele>
        <time>2014-01-25T15:39:58Z</time>
      </trkpt>
      <trkpt lat="45.81633" lon="4.65242">
        <ele>299.11</ele>
        <time>2014-01-25T15:39:59Z</time>
      </trkpt>
      <trkpt lat="45.81633" lon="4.65243">
        <ele>298.63</ele>
        <time>2014-01-25T15:40:08Z</time>
      </trkpt>
      <trkpt lat="45.81633" lon="4.65243">
        <ele>301.99</ele>
        <time>2014-01-25T15:40:09Z</time>
      </trkpt>
      <trkpt lat="45.81633" lon="4.65243">
        <ele>299.11</ele>
        <time>2014-01-25T15:40:10Z</time>
      </trkpt>
      <trkpt lat="45.81633" lon="4.65245">
        <ele>298.63</ele>
        <time>2014-01-25T15:40:20Z</time>
      </trkpt>
      <trkpt lat="45.81633" lon="4.65247">
        <ele>298.15</ele>
        <time>2014-01-25T15:40:21Z</time>
      </trkpt>
      <trkpt lat="45.81647" lon="4.65273">
        <ele>297.67</ele>
        <time>2014-01-25T15:40:29Z</time>
      </trkpt>
      <trkpt lat="45.81673" lon="4.65303">
        <ele>296.7</ele>
        <time>2014-01-25T15:40:36Z</time>
      </trkpt>
      <trkpt lat="45.81677" lon="4.65306">
        <ele>297.18</ele>
        <time>2014-01-25T15:40:37Z</time>
      </trkpt>
      <trkpt lat="45.81704" lon="4.65339">
        <ele>297.18</ele>
        <time>2014-01-25T15:40:46Z</time>
      </trkpt>
      <trkpt lat="45.81731" lon="4.65365">
        <ele>296.7</ele>
        <time>2014-01-25T15:40:55Z</time>
      </trkpt>
      <trkpt lat="45.81739" lon="4.6537">
        <ele>297.18</ele>
        <time>2014-01-25T15:40:58Z</time>
      </trkpt>
      <trkpt lat="45.81739" lon="4.6537">
        <ele>297.18</ele>
        <time>2014-01-25T15:41:03Z</time>
      </trkpt>
      <trkpt lat="45.81738" lon="4.65368">
        <ele>299.59</ele>
        <time>2014-01-25T15:41:12Z</time>
      </trkpt>
      <trkpt lat="45.81738" lon="4.65368">
        <ele>294.78</ele>
        <time>2014-01-25T15:41:13Z</time>
      </trkpt>
      <trkpt lat="45.81738" lon="4.65368">
        <ele>299.11</ele>
        <time>2014-01-25T15:41:14Z</time>
      </trkpt>
      <trkpt lat="45.81738" lon="4.65368">
        <ele>296.7</ele>
        <time>2014-01-25T15:41:16Z</time>
      </trkpt>
      <trkpt lat="45.81732" lon="4.65366">
        <ele>297.18</ele>
        <time>2014-01-25T15:41:26Z</time>
      </trkpt>
      <trkpt lat="45.8173" lon="4.65365">
        <ele>296.7</ele>
        <time>2014-01-25T15:41:37Z</time>
      </trkpt>
      <trkpt lat="45.81719" lon="4.65359">
        <ele>296.7</ele>
        <time>2014-01-25T15:41:45Z</time>
      </trkpt>
      <trkpt lat="45.81693" lon="4.65332">
        <ele>297.67</ele>
        <time>2014-01-25T15:41:55Z</time>
      </trkpt>
      <trkpt lat="45.81661" lon="4.65295">
        <ele>297.67</ele>
        <time>2014-01-25T15:42:06Z</time>
      </trkpt>
      <trkpt lat="45.81639" lon="4.65263">
        <ele>298.63</ele>
        <time>2014-01-25T15:42:16Z</time>
      </trkpt>
      <trkpt lat="45.81631" lon="4.6525">
        <ele>298.63</ele>
        <time>2014-01-25T15:42:22Z</time>
      </trkpt>
      <trkpt lat="45.8163" lon="4.65251">
        <ele>298.15</ele>
        <time>2014-01-25T15:42:23Z</time>
      </trkpt>
      <trkpt lat="45.81628" lon="4.65253">
        <ele>298.15</ele>
        <time>2014-01-25T15:42:24Z</time>
      </trkpt>
      <trkpt lat="45.81626" lon="4.65256">
        <ele>298.15</ele>
        <time>2014-01-25T15:42:25Z</time>
      </trkpt>
      <trkpt lat="45.81625" lon="4.65261">
        <ele>297.18</ele>
        <time>2014-01-25T15:42:26Z</time>
      </trkpt>
      <trkpt lat="45.81622" lon="4.65266">
        <ele>296.7</ele>
        <time>2014-01-25T15:42:27Z</time>
      </trkpt>
      <trkpt lat="45.81619" lon="4.65271">
        <ele>295.74</ele>
        <time>2014-01-25T15:42:28Z</time>
      </trkpt>
      <trkpt lat="45.816" lon="4.65303">
        <ele>292.38</ele>
        <time>2014-01-25T15:42:33Z</time>
      </trkpt>
      <trkpt lat="45.81583" lon="4.65332">
        <ele>289.49</ele>
        <time>2014-01-25T15:42:37Z</time>
      </trkpt>
      <trkpt lat="45.81568" lon="4.65353">
        <ele>288.05</ele>
        <time>2014-01-25T15:42:40Z</time>
      </trkpt>
      <trkpt lat="45.8156" lon="4.65366">
        <ele>288.05</ele>
        <time>2014-01-25T15:42:42Z</time>
      </trkpt>
      <trkpt lat="45.81557" lon="4.65372">
        <ele>288.05</ele>
        <time>2014-01-25T15:42:43Z</time>
      </trkpt>
      <trkpt lat="45.81553" lon="4.65384">
        <ele>288.05</ele>
        <time>2014-01-25T15:42:45Z</time>
      </trkpt>
      <trkpt lat="45.81551" lon="4.6539">
        <ele>288.05</ele>
        <time>2014-01-25T15:42:46Z</time>
      </trkpt>
      <trkpt lat="45.81551" lon="4.65396">
        <ele>288.53</ele>
        <time>2014-01-25T15:42:47Z</time>
      </trkpt>
      <trkpt lat="45.8155" lon="4.65402">
        <ele>289.01</ele>
        <time>2014-01-25T15:42:48Z</time>
      </trkpt>
      <trkpt lat="45.8155" lon="4.65407">
        <ele>289.01</ele>
        <time>2014-01-25T15:42:49Z</time>
      </trkpt>
      <trkpt lat="45.81547" lon="4.65433">
        <ele>289.97</ele>
        <time>2014-01-25T15:42:57Z</time>
      </trkpt>
      <trkpt lat="45.81547" lon="4.65446">
        <ele>289.97</ele>
        <time>2014-01-25T15:43:07Z</time>
      </trkpt>
      <trkpt lat="45.81547" lon="4.65448">
        <ele>290.46</ele>
        <time>2014-01-25T15:43:19Z</time>
      </trkpt>
      <trkpt lat="45.81546" lon="4.65448">
        <ele>290.46</ele>
        <time>2014-01-25T15:43:26Z</time>
      </trkpt>
      <trkpt lat="45.81545" lon="4.65452">
        <ele>290.46</ele>
        <time>2014-01-25T15:43:42Z</time>
      </trkpt>
      <trkpt lat="45.81546" lon="4.65453">
        <ele>290.94</ele>
        <time>2014-01-25T15:44:01Z</time>
      </trkpt>
      <trkpt lat="45.81548" lon="4.65465">
        <ele>290.94</ele>
        <time>2014-01-25T15:44:11Z</time>
      </trkpt>
      <trkpt lat="45.81548" lon="4.65466">
        <ele>290.46</ele>
        <time>2014-01-25T15:44:12Z</time>
      </trkpt>
      <trkpt lat="45.81548" lon="4.65471">
        <ele>290.94</ele>
        <time>2014-01-25T15:44:18Z</time>
      </trkpt>
      <trkpt lat="45.81549" lon="4.65473">
        <ele>290.94</ele>
        <time>2014-01-25T15:44:19Z</time>
      </trkpt>
      <trkpt lat="45.81549" lon="4.65477">
        <ele>290.94</ele>
        <time>2014-01-25T15:44:20Z</time>
      </trkpt>
      <trkpt lat="45.81549" lon="4.6548">
        <ele>290.94</ele>
        <time>2014-01-25T15:44:21Z</time>
      </trkpt>
      <trkpt lat="45.8155" lon="4.65484">
        <ele>291.42</ele>
        <time>2014-01-25T15:44:22Z</time>
      </trkpt>
      <trkpt lat="45.8155" lon="4.65488">
        <ele>291.42</ele>
        <time>2014-01-25T15:44:23Z</time>
      </trkpt>
      <trkpt lat="45.81551" lon="4.65492">
        <ele>291.9</ele>
        <time>2014-01-25T15:44:24Z</time>
      </trkpt>
      <trkpt lat="45.81551" lon="4.65496">
        <ele>292.38</ele>
        <time>2014-01-25T15:44:25Z</time>
      </trkpt>
      <trkpt lat="45.81556" lon="4.65531">
        <ele>294.78</ele>
        <time>2014-01-25T15:44:36Z</time>
      </trkpt>
      <trkpt lat="45.8156" lon="4.65552">
        <ele>298.15</ele>
        <time>2014-01-25T15:44:45Z</time>
      </trkpt>
      <trkpt lat="45.81562" lon="4.65567">
        <ele>299.11</ele>
        <time>2014-01-25T15:44:52Z</time>
      </trkpt>
      <trkpt lat="45.81562" lon="4.65569">
        <ele>299.59</ele>
        <time>2014-01-25T15:44:53Z</time>
      </trkpt>
      <trkpt lat="45.81562" lon="4.65571">
        <ele>300.07</ele>
        <time>2014-01-25T15:44:54Z</time>
      </trkpt>
      <trkpt lat="45.81563" lon="4.65574">
        <ele>300.07</ele>
        <time>2014-01-25T15:44:55Z</time>
      </trkpt>
      <trkpt lat="45.81563" lon="4.65575">
        <ele>300.55</ele>
        <time>2014-01-25T15:44:56Z</time>
      </trkpt>
      <trkpt lat="45.81563" lon="4.65577">
        <ele>300.55</ele>
        <time>2014-01-25T15:44:57Z</time>
      </trkpt>
      <trkpt lat="45.81566" lon="4.65601">
        <ele>302.47</ele>
        <time>2014-01-25T15:45:09Z</time>
      </trkpt>
      <trkpt lat="45.81565" lon="4.65617">
        <ele>303.91</ele>
        <time>2014-01-25T15:45:17Z</time>
      </trkpt>
      <trkpt lat="45.81565" lon="4.65619">
        <ele>304.39</ele>
        <time>2014-01-25T15:45:18Z</time>
      </trkpt>
      <trkpt lat="45.81564" lon="4.65621">
        <ele>304.39</ele>
        <time>2014-01-25T15:45:19Z</time>
      </trkpt>
      <trkpt lat="45.81564" lon="4.65623">
        <ele>304.39</ele>
        <time>2014-01-25T15:45:20Z</time>
      </trkpt>
      <trkpt lat="45.81564" lon="4.65625">
        <ele>304.88</ele>
        <time>2014-01-25T15:45:21Z</time>
      </trkpt>
      <trkpt lat="45.81565" lon="4.65626">
        <ele>304.88</ele>
        <time>2014-01-25T15:45:22Z</time>
      </trkpt>
      <trkpt lat="45.81564" lon="4.65628">
        <ele>304.88</ele>
        <time>2014-01-25T15:45:23Z</time>
      </trkpt>
      <trkpt lat="45.81565" lon="4.65651">
        <ele>307.28</ele>
        <time>2014-01-25T15:45:35Z</time>
      </trkpt>
      <trkpt lat="45.81565" lon="4.65671">
        <ele>309.68</ele>
        <time>2014-01-25T15:45:47Z</time>
      </trkpt>
      <trkpt lat="45.81565" lon="4.65672">
        <ele>309.2</ele>
        <time>2014-01-25T15:45:48Z</time>
      </trkpt>
      <trkpt lat="45.81565" lon="4.65674">
        <ele>309.68</ele>
        <time>2014-01-25T15:45:49Z</time>
      </trkpt>
      <trkpt lat="45.81565" lon="4.65676">
        <ele>309.68</ele>
        <time>2014-01-25T15:45:50Z</time>
      </trkpt>
      <trkpt lat="45.81565" lon="4.65678">
        <ele>309.68</ele>
        <time>2014-01-25T15:45:51Z</time>
      </trkpt>
      <trkpt lat="45.81564" lon="4.6568">
        <ele>310.16</ele>
        <time>2014-01-25T15:45:53Z</time>
      </trkpt>
      <trkpt lat="45.81565" lon="4.65685">
        <ele>311.12</ele>
        <time>2014-01-25T15:45:56Z</time>
      </trkpt>
      <trkpt lat="45.81565" lon="4.65687">
        <ele>311.12</ele>
        <time>2014-01-25T15:45:57Z</time>
      </trkpt>
      <trkpt lat="45.81567" lon="4.65701">
        <ele>312.09</ele>
        <time>2014-01-25T15:46:06Z</time>
      </trkpt>
      <trkpt lat="45.81566" lon="4.6572">
        <ele>314.49</ele>
        <time>2014-01-25T15:46:18Z</time>
      </trkpt>
      <trkpt lat="45.81566" lon="4.65724">
        <ele>314.97</ele>
        <time>2014-01-25T15:46:21Z</time>
      </trkpt>
      <trkpt lat="45.81566" lon="4.65726">
        <ele>314.49</ele>
        <time>2014-01-25T15:46:22Z</time>
      </trkpt>
      <trkpt lat="45.81566" lon="4.65728">
        <ele>315.45</ele>
        <time>2014-01-25T15:46:23Z</time>
      </trkpt>
      <trkpt lat="45.81566" lon="4.65744">
        <ele>316.89</ele>
        <time>2014-01-25T15:46:33Z</time>
      </trkpt>
      <trkpt lat="45.81566" lon="4.65763">
        <ele>319.3</ele>
        <time>2014-01-25T15:46:44Z</time>
      </trkpt>
      <trkpt lat="45.81566" lon="4.65765">
        <ele>319.78</ele>
        <time>2014-01-25T15:46:45Z</time>
      </trkpt>
      <trkpt lat="45.81566" lon="4.65767">
        <ele>320.26</ele>
        <time>2014-01-25T15:46:46Z</time>
      </trkpt>
      <trkpt lat="45.81566" lon="4.65768">
        <ele>320.26</ele>
        <time>2014-01-25T15:46:47Z</time>
      </trkpt>
      <trkpt lat="45.81565" lon="4.65773">
        <ele>320.74</ele>
        <time>2014-01-25T15:46:51Z</time>
      </trkpt>
      <trkpt lat="45.81564" lon="4.65773">
        <ele>320.74</ele>
        <time>2014-01-25T15:47:00Z</time>
      </trkpt>
      <trkpt lat="45.81564" lon="4.65773">
        <ele>320.74</ele>
        <time>2014-01-25T15:47:17Z</time>
      </trkpt>
      <trkpt lat="45.81563" lon="4.65774">
        <ele>321.22</ele>
        <time>2014-01-25T15:47:29Z</time>
      </trkpt>
      <trkpt lat="45.81563" lon="4.65774">
        <ele>321.22</ele>
        <time>2014-01-25T15:47:44Z</time>
      </trkpt>
      <trkpt lat="45.81559" lon="4.65779">
        <ele>321.7</ele>
        <time>2014-01-25T15:47:53Z</time>
      </trkpt>
      <trkpt lat="45.81559" lon="4.6578">
        <ele>321.22</ele>
        <time>2014-01-25T15:47:54Z</time>
      </trkpt>
      <trkpt lat="45.81559" lon="4.65782">
        <ele>321.22</ele>
        <time>2014-01-25T15:47:55Z</time>
      </trkpt>
      <trkpt lat="45.81559" lon="4.65784">
        <ele>322.18</ele>
        <time>2014-01-25T15:47:56Z</time>
      </trkpt>
      <trkpt lat="45.81559" lon="4.65786">
        <ele>321.7</ele>
        <time>2014-01-25T15:47:57Z</time>
      </trkpt>
      <trkpt lat="45.81559" lon="4.65787">
        <ele>322.66</ele>
        <time>2014-01-25T15:47:58Z</time>
      </trkpt>
      <trkpt lat="45.8156" lon="4.65789">
        <ele>322.18</ele>
        <time>2014-01-25T15:47:59Z</time>
      </trkpt>
      <trkpt lat="45.8156" lon="4.65791">
        <ele>322.18</ele>
        <time>2014-01-25T15:48:00Z</time>
      </trkpt>
      <trkpt lat="45.8156" lon="4.65793">
        <ele>322.18</ele>
        <time>2014-01-25T15:48:01Z</time>
      </trkpt>
      <trkpt lat="45.8156" lon="4.65795">
        <ele>322.66</ele>
        <time>2014-01-25T15:48:02Z</time>
      </trkpt>
      <trkpt lat="45.81565" lon="4.65818">
        <ele>324.1</ele>
        <time>2014-01-25T15:48:13Z</time>
      </trkpt>
      <trkpt lat="45.81568" lon="4.65841">
        <ele>326.5</ele>
        <time>2014-01-25T15:48:25Z</time>
      </trkpt>
      <trkpt lat="45.81567" lon="4.65864">
        <ele>326.99</ele>
        <time>2014-01-25T15:48:35Z</time>
      </trkpt>
      <trkpt lat="45.81567" lon="4.65867">
        <ele>327.47</ele>
        <time>2014-01-25T15:48:36Z</time>
      </trkpt>
      <trkpt lat="45.81567" lon="4.6587">
        <ele>326.99</ele>
        <time>2014-01-25T15:48:37Z</time>
      </trkpt>
      <trkpt lat="45.81568" lon="4.65874">
        <ele>326.99</ele>
        <time>2014-01-25T15:48:38Z</time>
      </trkpt>
      <trkpt lat="45.81568" lon="4.65877">
        <ele>327.47</ele>
        <time>2014-01-25T15:48:39Z</time>
      </trkpt>
      <trkpt lat="45.81572" lon="4.65919">
        <ele>327.47</ele>
        <time>2014-01-25T15:48:51Z</time>
      </trkpt>
      <trkpt lat="45.81576" lon="4.65976">
        <ele>328.43</ele>
        <time>2014-01-25T15:49:04Z</time>
      </trkpt>
      <trkpt lat="45.81577" lon="4.6598">
        <ele>327.95</ele>
        <time>2014-01-25T15:49:05Z</time>
      </trkpt>
      <trkpt lat="45.81578" lon="4.65984">
        <ele>327.95</ele>
        <time>2014-01-25T15:49:06Z</time>
      </trkpt>
      <trkpt lat="45.81583" lon="4.66003">
        <ele>326.99</ele>
        <time>2014-01-25T15:49:10Z</time>
      </trkpt>
      <trkpt lat="45.81601" lon="4.66073">
        <ele>323.62</ele>
        <time>2014-01-25T15:49:20Z</time>
      </trkpt>
      <trkpt lat="45.81604" lon="4.6608">
        <ele>323.14</ele>
        <time>2014-01-25T15:49:21Z</time>
      </trkpt>
      <trkpt lat="45.8162" lon="4.6611">
        <ele>321.7</ele>
        <time>2014-01-25T15:49:27Z</time>
      </trkpt>
      <trkpt lat="45.81623" lon="4.66114">
        <ele>321.7</ele>
        <time>2014-01-25T15:49:28Z</time>
      </trkpt>
      <trkpt lat="45.8163" lon="4.66121">
        <ele>321.7</ele>
        <time>2014-01-25T15:49:30Z</time>
      </trkpt>
      <trkpt lat="45.81643" lon="4.66142">
        <ele>320.74</ele>
        <time>2014-01-25T15:49:34Z</time>
      </trkpt>
      <trkpt lat="45.8168" lon="4.66212">
        <ele>318.81</ele>
        <time>2014-01-25T15:49:45Z</time>
      </trkpt>
      <trkpt lat="45.81714" lon="4.66264">
        <ele>317.85</ele>
        <time>2014-01-25T15:49:55Z</time>
      </trkpt>
      <trkpt lat="45.81717" lon="4.66268">
        <ele>317.85</ele>
        <time>2014-01-25T15:49:56Z</time>
      </trkpt>
      <trkpt lat="45.8172" lon="4.66273">
        <ele>317.37</ele>
        <time>2014-01-25T15:49:57Z</time>
      </trkpt>
      <trkpt lat="45.81745" lon="4.66299">
        <ele>315.93</ele>
        <time>2014-01-25T15:50:06Z</time>
      </trkpt>
      <trkpt lat="45.81756" lon="4.66314">
        <ele>315.93</ele>
        <time>2014-01-25T15:50:13Z</time>
      </trkpt>
      <trkpt lat="45.81758" lon="4.66316">
        <ele>316.41</ele>
        <time>2014-01-25T15:50:14Z</time>
      </trkpt>
      <trkpt lat="45.8176" lon="4.6632">
        <ele>315.45</ele>
        <time>2014-01-25T15:50:15Z</time>
      </trkpt>
      <trkpt lat="45.81762" lon="4.66325">
        <ele>315.45</ele>
        <time>2014-01-25T15:50:16Z</time>
      </trkpt>
      <trkpt lat="45.81764" lon="4.66331">
        <ele>314.97</ele>
        <time>2014-01-25T15:50:17Z</time>
      </trkpt>
      <trkpt lat="45.81771" lon="4.66382">
        <ele>312.09</ele>
        <time>2014-01-25T15:50:26Z</time>
      </trkpt>
      <trkpt lat="45.81769" lon="4.66388">
        <ele>312.09</ele>
        <time>2014-01-25T15:50:27Z</time>
      </trkpt>
      <trkpt lat="45.81767" lon="4.66393">
        <ele>311.6</ele>
        <time>2014-01-25T15:50:28Z</time>
      </trkpt>
      <trkpt lat="45.81751" lon="4.66428">
        <ele>308.72</ele>
        <time>2014-01-25T15:50:33Z</time>
      </trkpt>
      <trkpt lat="45.81733" lon="4.66464">
        <ele>305.84</ele>
        <time>2014-01-25T15:50:38Z</time>
      </trkpt>
      <trkpt lat="45.81722" lon="4.66486">
        <ele>305.36</ele>
        <time>2014-01-25T15:50:43Z</time>
      </trkpt>
      <trkpt lat="45.81706" lon="4.66512">
        <ele>306.32</ele>
        <time>2014-01-25T15:50:51Z</time>
      </trkpt>
      <trkpt lat="45.81705" lon="4.6653">
        <ele>305.84</ele>
        <time>2014-01-25T15:50:54Z</time>
      </trkpt>
      <trkpt lat="45.81705" lon="4.66537">
        <ele>305.36</ele>
        <time>2014-01-25T15:50:55Z</time>
      </trkpt>
      <trkpt lat="45.81703" lon="4.66543">
        <ele>305.36</ele>
        <time>2014-01-25T15:50:56Z</time>
      </trkpt>
      <trkpt lat="45.817" lon="4.66556">
        <ele>304.88</ele>
        <time>2014-01-25T15:50:58Z</time>
      </trkpt>
      <trkpt lat="45.81698" lon="4.66562">
        <ele>304.88</ele>
        <time>2014-01-25T15:50:59Z</time>
      </trkpt>
      <trkpt lat="45.81696" lon="4.66569">
        <ele>303.91</ele>
        <time>2014-01-25T15:51:00Z</time>
      </trkpt>
      <trkpt lat="45.81695" lon="4.66576">
        <ele>303.91</ele>
        <time>2014-01-25T15:51:01Z</time>
      </trkpt>
      <trkpt lat="45.81694" lon="4.66585">
        <ele>303.43</ele>
        <time>2014-01-25T15:51:02Z</time>
      </trkpt>
      <trkpt lat="45.81692" lon="4.66615">
        <ele>301.51</ele>
        <time>2014-01-25T15:51:05Z</time>
      </trkpt>
      <trkpt lat="45.81692" lon="4.66642">
        <ele>300.07</ele>
        <time>2014-01-25T15:51:08Z</time>
      </trkpt>
      <trkpt lat="45.81691" lon="4.6666">
        <ele>299.59</ele>
        <time>2014-01-25T15:51:10Z</time>
      </trkpt>
      <trkpt lat="45.81689" lon="4.66668">
        <ele>299.11</ele>
        <time>2014-01-25T15:51:11Z</time>
      </trkpt>
      <trkpt lat="45.81687" lon="4.66674">
        <ele>299.11</ele>
        <time>2014-01-25T15:51:12Z</time>
      </trkpt>
      <trkpt lat="45.81686" lon="4.66681">
        <ele>298.63</ele>
        <time>2014-01-25T15:51:13Z</time>
      </trkpt>
      <trkpt lat="45.81686" lon="4.66686">
        <ele>299.11</ele>
        <time>2014-01-25T15:51:14Z</time>
      </trkpt>
      <trkpt lat="45.81688" lon="4.66691">
        <ele>299.11</ele>
        <time>2014-01-25T15:51:15Z</time>
      </trkpt>
      <trkpt lat="45.81689" lon="4.66697">
        <ele>298.63</ele>
        <time>2014-01-25T15:51:16Z</time>
      </trkpt>
      <trkpt lat="45.8169" lon="4.66702">
        <ele>299.11</ele>
        <time>2014-01-25T15:51:17Z</time>
      </trkpt>
      <trkpt lat="45.8169" lon="4.66708">
        <ele>299.11</ele>
        <time>2014-01-25T15:51:18Z</time>
      </trkpt>
      <trkpt lat="45.81689" lon="4.6672">
        <ele>298.63</ele>
        <time>2014-01-25T15:51:20Z</time>
      </trkpt>
      <trkpt lat="45.81688" lon="4.66726">
        <ele>299.11</ele>
        <time>2014-01-25T15:51:21Z</time>
      </trkpt>
      <trkpt lat="45.81687" lon="4.66733">
        <ele>299.11</ele>
        <time>2014-01-25T15:51:22Z</time>
      </trkpt>
      <trkpt lat="45.81686" lon="4.66745">
        <ele>299.11</ele>
        <time>2014-01-25T15:51:24Z</time>
      </trkpt>
      <trkpt lat="45.81685" lon="4.66751">
        <ele>299.11</ele>
        <time>2014-01-25T15:51:25Z</time>
      </trkpt>
      <trkpt lat="45.81685" lon="4.66757">
        <ele>299.11</ele>
        <time>2014-01-25T15:51:26Z</time>
      </trkpt>
      <trkpt lat="45.81685" lon="4.66763">
        <ele>298.63</ele>
        <time>2014-01-25T15:51:27Z</time>
      </trkpt>
      <trkpt lat="45.81686" lon="4.66769">
        <ele>299.11</ele>
        <time>2014-01-25T15:51:28Z</time>
      </trkpt>
      <trkpt lat="45.81687" lon="4.66774">
        <ele>299.59</ele>
        <time>2014-01-25T15:51:29Z</time>
      </trkpt>
      <trkpt lat="45.81688" lon="4.6678">
        <ele>299.11</ele>
        <time>2014-01-25T15:51:30Z</time>
      </trkpt>
      <trkpt lat="45.81688" lon="4.66786">
        <ele>299.11</ele>
        <time>2014-01-25T15:51:31Z</time>
      </trkpt>
      <trkpt lat="45.81688" lon="4.66792">
        <ele>299.11</ele>
        <time>2014-01-25T15:51:32Z</time>
      </trkpt>
      <trkpt lat="45.81687" lon="4.66798">
        <ele>299.11</ele>
        <time>2014-01-25T15:51:33Z</time>
      </trkpt>
      <trkpt lat="45.81687" lon="4.66804">
        <ele>299.59</ele>
        <time>2014-01-25T15:51:34Z</time>
      </trkpt>
      <trkpt lat="45.81684" lon="4.66875">
        <ele>300.07</ele>
        <time>2014-01-25T15:51:45Z</time>
      </trkpt>
      <trkpt lat="45.8169" lon="4.66962">
        <ele>301.03</ele>
        <time>2014-01-25T15:51:58Z</time>
      </trkpt>
      <trkpt lat="45.81697" lon="4.67054">
        <ele>302.95</ele>
        <time>2014-01-25T15:52:12Z</time>
      </trkpt>
      <trkpt lat="45.81701" lon="4.67085">
        <ele>303.91</ele>
        <time>2014-01-25T15:52:17Z</time>
      </trkpt>
      <trkpt lat="45.81702" lon="4.67091">
        <ele>303.91</ele>
        <time>2014-01-25T15:52:18Z</time>
      </trkpt>
      <trkpt lat="45.81715" lon="4.67194">
        <ele>303.91</ele>
        <time>2014-01-25T15:52:33Z</time>
      </trkpt>
      <trkpt lat="45.81717" lon="4.672">
        <ele>303.91</ele>
        <time>2014-01-25T15:52:34Z</time>
      </trkpt>
      <trkpt lat="45.81718" lon="4.67207">
        <ele>303.43</ele>
        <time>2014-01-25T15:52:35Z</time>
      </trkpt>
      <trkpt lat="45.81721" lon="4.67242">
        <ele>304.39</ele>
        <time>2014-01-25T15:52:43Z</time>
      </trkpt>
      <trkpt lat="45.81722" lon="4.6729">
        <ele>305.84</ele>
        <time>2014-01-25T15:52:53Z</time>
      </trkpt>
      <trkpt lat="45.81726" lon="4.67322">
        <ele>306.8</ele>
        <time>2014-01-25T15:53:00Z</time>
      </trkpt>
      <trkpt lat="45.81727" lon="4.67369">
        <ele>309.68</ele>
        <time>2014-01-25T15:53:12Z</time>
      </trkpt>
      <trkpt lat="45.81736" lon="4.67412">
        <ele>311.12</ele>
        <time>2014-01-25T15:53:25Z</time>
      </trkpt>
      <trkpt lat="45.81741" lon="4.67452">
        <ele>309.68</ele>
        <time>2014-01-25T15:53:34Z</time>
      </trkpt>
      <trkpt lat="45.81742" lon="4.67457">
        <ele>309.68</ele>
        <time>2014-01-25T15:53:35Z</time>
      </trkpt>
      <trkpt lat="45.81743" lon="4.67469">
        <ele>309.68</ele>
        <time>2014-01-25T15:53:37Z</time>
      </trkpt>
      <trkpt lat="45.81741" lon="4.67475">
        <ele>309.68</ele>
        <time>2014-01-25T15:53:38Z</time>
      </trkpt>
      <trkpt lat="45.8174" lon="4.67482">
        <ele>309.68</ele>
        <time>2014-01-25T15:53:39Z</time>
      </trkpt>
      <trkpt lat="45.81739" lon="4.67488">
        <ele>309.68</ele>
        <time>2014-01-25T15:53:40Z</time>
      </trkpt>
      <trkpt lat="45.81739" lon="4.67494">
        <ele>309.68</ele>
        <time>2014-01-25T15:53:41Z</time>
      </trkpt>
      <trkpt lat="45.81739" lon="4.675">
        <ele>309.68</ele>
        <time>2014-01-25T15:53:42Z</time>
      </trkpt>
      <trkpt lat="45.81745" lon="4.67561">
        <ele>311.12</ele>
        <time>2014-01-25T15:53:54Z</time>
      </trkpt>
      <trkpt lat="45.81747" lon="4.67595">
        <ele>312.09</ele>
        <time>2014-01-25T15:54:02Z</time>
      </trkpt>
      <trkpt lat="45.81747" lon="4.67649">
        <ele>313.05</ele>
        <time>2014-01-25T15:54:14Z</time>
      </trkpt>
      <trkpt lat="45.81749" lon="4.67695">
        <ele>313.53</ele>
        <time>2014-01-25T15:54:24Z</time>
      </trkpt>
      <trkpt lat="45.8175" lon="4.67745">
        <ele>314.49</ele>
        <time>2014-01-25T15:54:34Z</time>
      </trkpt>
      <trkpt lat="45.81751" lon="4.67808">
        <ele>314.97</ele>
        <time>2014-01-25T15:54:47Z</time>
      </trkpt>
      <trkpt lat="45.81752" lon="4.67866">
        <ele>315.45</ele>
        <time>2014-01-25T15:54:59Z</time>
      </trkpt>
      <trkpt lat="45.81748" lon="4.67915">
        <ele>315.45</ele>
        <time>2014-01-25T15:55:09Z</time>
      </trkpt>
      <trkpt lat="45.81739" lon="4.67981">
        <ele>314.49</ele>
        <time>2014-01-25T15:55:21Z</time>
      </trkpt>
      <trkpt lat="45.81735" lon="4.68004">
        <ele>314.49</ele>
        <time>2014-01-25T15:55:25Z</time>
      </trkpt>
      <trkpt lat="45.81724" lon="4.68088">
        <ele>313.05</ele>
        <time>2014-01-25T15:55:38Z</time>
      </trkpt>
      <trkpt lat="45.81721" lon="4.68116">
        <ele>312.57</ele>
        <time>2014-01-25T15:55:42Z</time>
      </trkpt>
      <trkpt lat="45.81719" lon="4.6813">
        <ele>312.57</ele>
        <time>2014-01-25T15:55:44Z</time>
      </trkpt>
      <trkpt lat="45.81718" lon="4.68137">
        <ele>311.6</ele>
        <time>2014-01-25T15:55:45Z</time>
      </trkpt>
      <trkpt lat="45.81716" lon="4.68153">
        <ele>310.64</ele>
        <time>2014-01-25T15:55:47Z</time>
      </trkpt>
      <trkpt lat="45.81715" lon="4.68161">
        <ele>310.16</ele>
        <time>2014-01-25T15:55:48Z</time>
      </trkpt>
      <trkpt lat="45.81713" lon="4.68169">
        <ele>310.16</ele>
        <time>2014-01-25T15:55:49Z</time>
      </trkpt>
      <trkpt lat="45.81711" lon="4.68176">
        <ele>309.68</ele>
        <time>2014-01-25T15:55:50Z</time>
      </trkpt>
      <trkpt lat="45.81707" lon="4.68182">
        <ele>309.68</ele>
        <time>2014-01-25T15:55:51Z</time>
      </trkpt>
      <trkpt lat="45.81703" lon="4.68188">
        <ele>309.68</ele>
        <time>2014-01-25T15:55:52Z</time>
      </trkpt>
      <trkpt lat="45.817" lon="4.68196">
        <ele>309.2</ele>
        <time>2014-01-25T15:55:53Z</time>
      </trkpt>
      <trkpt lat="45.817" lon="4.68204">
        <ele>309.2</ele>
        <time>2014-01-25T15:55:54Z</time>
      </trkpt>
      <trkpt lat="45.81702" lon="4.68211">
        <ele>309.2</ele>
        <time>2014-01-25T15:55:55Z</time>
      </trkpt>
      <trkpt lat="45.81704" lon="4.68218">
        <ele>309.2</ele>
        <time>2014-01-25T15:55:56Z</time>
      </trkpt>
      <trkpt lat="45.81705" lon="4.68225">
        <ele>308.72</ele>
        <time>2014-01-25T15:55:57Z</time>
      </trkpt>
      <trkpt lat="45.81706" lon="4.68232">
        <ele>308.72</ele>
        <time>2014-01-25T15:55:58Z</time>
      </trkpt>
      <trkpt lat="45.81705" lon="4.6824">
        <ele>309.2</ele>
        <time>2014-01-25T15:55:59Z</time>
      </trkpt>
      <trkpt lat="45.81704" lon="4.68247">
        <ele>309.2</ele>
        <time>2014-01-25T15:56:00Z</time>
      </trkpt>
      <trkpt lat="45.81703" lon="4.68254">
        <ele>309.2</ele>
        <time>2014-01-25T15:56:01Z</time>
      </trkpt>
      <trkpt lat="45.81703" lon="4.68262">
        <ele>309.2</ele>
        <time>2014-01-25T15:56:02Z</time>
      </trkpt>
      <trkpt lat="45.81692" lon="4.68361">
        <ele>307.76</ele>
        <time>2014-01-25T15:56:14Z</time>
      </trkpt>
      <trkpt lat="45.81686" lon="4.68468">
        <ele>307.28</ele>
        <time>2014-01-25T15:56:27Z</time>
      </trkpt>
      <trkpt lat="45.81685" lon="4.68483">
        <ele>306.8</ele>
        <time>2014-01-25T15:56:29Z</time>
      </trkpt>
      <trkpt lat="45.81685" lon="4.68491">
        <ele>307.28</ele>
        <time>2014-01-25T15:56:30Z</time>
      </trkpt>
      <trkpt lat="45.81682" lon="4.68566">
        <ele>307.28</ele>
        <time>2014-01-25T15:56:40Z</time>
      </trkpt>
      <trkpt lat="45.81682" lon="4.68588">
        <ele>307.28</ele>
        <time>2014-01-25T15:56:43Z</time>
      </trkpt>
      <trkpt lat="45.81673" lon="4.68649">
        <ele>306.8</ele>
        <time>2014-01-25T15:56:51Z</time>
      </trkpt>
      <trkpt lat="45.81651" lon="4.68737">
        <ele>306.8</ele>
        <time>2014-01-25T15:57:03Z</time>
      </trkpt>
      <trkpt lat="45.81645" lon="4.68758">
        <ele>306.32</ele>
        <time>2014-01-25T15:57:06Z</time>
      </trkpt>
      <trkpt lat="45.8162" lon="4.68826">
        <ele>307.76</ele>
        <time>2014-01-25T15:57:17Z</time>
      </trkpt>
      <trkpt lat="45.81618" lon="4.68832">
        <ele>307.28</ele>
        <time>2014-01-25T15:57:18Z</time>
      </trkpt>
      <trkpt lat="45.81614" lon="4.68851">
        <ele>308.24</ele>
        <time>2014-01-25T15:57:21Z</time>
      </trkpt>
      <trkpt lat="45.81613" lon="4.68857">
        <ele>308.24</ele>
        <time>2014-01-25T15:57:22Z</time>
      </trkpt>
      <trkpt lat="45.81613" lon="4.68863">
        <ele>308.24</ele>
        <time>2014-01-25T15:57:23Z</time>
      </trkpt>
      <trkpt lat="45.81613" lon="4.68869">
        <ele>308.24</ele>
        <time>2014-01-25T15:57:24Z</time>
      </trkpt>
      <trkpt lat="45.81613" lon="4.68875">
        <ele>308.72</ele>
        <time>2014-01-25T15:57:25Z</time>
      </trkpt>
      <trkpt lat="45.81617" lon="4.6893">
        <ele>309.2</ele>
        <time>2014-01-25T15:57:35Z</time>
      </trkpt>
      <trkpt lat="45.81622" lon="4.68979">
        <ele>310.16</ele>
        <time>2014-01-25T15:57:44Z</time>
      </trkpt>
      <trkpt lat="45.81623" lon="4.6899">
        <ele>310.16</ele>
        <time>2014-01-25T15:57:46Z</time>
      </trkpt>
      <trkpt lat="45.81628" lon="4.69035">
        <ele>310.64</ele>
        <time>2014-01-25T15:57:54Z</time>
      </trkpt>
      <trkpt lat="45.81636" lon="4.69093">
        <ele>310.64</ele>
        <time>2014-01-25T15:58:04Z</time>
      </trkpt>
      <trkpt lat="45.81652" lon="4.69177">
        <ele>310.64</ele>
        <time>2014-01-25T15:58:18Z</time>
      </trkpt>
      <trkpt lat="45.81664" lon="4.69248">
        <ele>310.64</ele>
        <time>2014-01-25T15:58:30Z</time>
      </trkpt>
      <trkpt lat="45.81667" lon="4.6926">
        <ele>311.12</ele>
        <time>2014-01-25T15:58:32Z</time>
      </trkpt>
      <trkpt lat="45.8167" lon="4.69277">
        <ele>311.12</ele>
        <time>2014-01-25T15:58:35Z</time>
      </trkpt>
      <trkpt lat="45.81671" lon="4.69282">
        <ele>311.6</ele>
        <time>2014-01-25T15:58:36Z</time>
      </trkpt>
      <trkpt lat="45.81672" lon="4.69288">
        <ele>311.6</ele>
        <time>2014-01-25T15:58:37Z</time>
      </trkpt>
      <trkpt lat="45.81675" lon="4.69305">
        <ele>312.09</ele>
        <time>2014-01-25T15:58:40Z</time>
      </trkpt>
      <trkpt lat="45.81686" lon="4.69363">
        <ele>313.05</ele>
        <time>2014-01-25T15:58:51Z</time>
      </trkpt>
      <trkpt lat="45.81697" lon="4.69431">
        <ele>313.53</ele>
        <time>2014-01-25T15:59:04Z</time>
      </trkpt>
      <trkpt lat="45.81707" lon="4.69489">
        <ele>314.01</ele>
        <time>2014-01-25T15:59:15Z</time>
      </trkpt>
      <trkpt lat="45.81718" lon="4.69532">
        <ele>314.49</ele>
        <time>2014-01-25T15:59:24Z</time>
      </trkpt>
      <trkpt lat="45.81733" lon="4.6958">
        <ele>314.97</ele>
        <time>2014-01-25T15:59:34Z</time>
      </trkpt>
      <trkpt lat="45.81739" lon="4.69641">
        <ele>315.93</ele>
        <time>2014-01-25T15:59:46Z</time>
      </trkpt>
      <trkpt lat="45.81742" lon="4.69683">
        <ele>316.89</ele>
        <time>2014-01-25T15:59:55Z</time>
      </trkpt>
      <trkpt lat="45.81751" lon="4.69728">
        <ele>318.33</ele>
        <time>2014-01-25T16:00:06Z</time>
      </trkpt>
      <trkpt lat="45.81754" lon="4.69759">
        <ele>319.78</ele>
        <time>2014-01-25T16:00:15Z</time>
      </trkpt>
      <trkpt lat="45.81752" lon="4.69787">
        <ele>320.74</ele>
        <time>2014-01-25T16:00:24Z</time>
      </trkpt>
      <trkpt lat="45.81747" lon="4.69824">
        <ele>322.18</ele>
        <time>2014-01-25T16:00:35Z</time>
      </trkpt>
      <trkpt lat="45.81744" lon="4.69857">
        <ele>323.62</ele>
        <time>2014-01-25T16:00:44Z</time>
      </trkpt>
      <trkpt lat="45.81742" lon="4.69885">
        <ele>325.06</ele>
        <time>2014-01-25T16:00:54Z</time>
      </trkpt>
      <trkpt lat="45.81741" lon="4.69887">
        <ele>325.54</ele>
        <time>2014-01-25T16:00:55Z</time>
      </trkpt>
      <trkpt lat="45.81741" lon="4.6989">
        <ele>325.54</ele>
        <time>2014-01-25T16:00:56Z</time>
      </trkpt>
      <trkpt lat="45.81741" lon="4.69893">
        <ele>325.06</ele>
        <time>2014-01-25T16:00:57Z</time>
      </trkpt>
      <trkpt lat="45.81741" lon="4.69896">
        <ele>325.54</ele>
        <time>2014-01-25T16:00:58Z</time>
      </trkpt>
      <trkpt lat="45.81741" lon="4.69898">
        <ele>326.02</ele>
        <time>2014-01-25T16:00:59Z</time>
      </trkpt>
      <trkpt lat="45.8174" lon="4.69901">
        <ele>326.5</ele>
        <time>2014-01-25T16:01:00Z</time>
      </trkpt>
      <trkpt lat="45.8174" lon="4.69904">
        <ele>326.5</ele>
        <time>2014-01-25T16:01:01Z</time>
      </trkpt>
      <trkpt lat="45.81738" lon="4.69914">
        <ele>326.99</ele>
        <time>2014-01-25T16:01:05Z</time>
      </trkpt>
      <trkpt lat="45.81735" lon="4.69943">
        <ele>327.95</ele>
        <time>2014-01-25T16:01:16Z</time>
      </trkpt>
      <trkpt lat="45.81732" lon="4.69971">
        <ele>329.87</ele>
        <time>2014-01-25T16:01:28Z</time>
      </trkpt>
      <trkpt lat="45.81729" lon="4.70001">
        <ele>331.31</ele>
        <time>2014-01-25T16:01:40Z</time>
      </trkpt>
      <trkpt lat="45.81727" lon="4.70029">
        <ele>331.31</ele>
        <time>2014-01-25T16:01:51Z</time>
      </trkpt>
      <trkpt lat="45.81723" lon="4.70061">
        <ele>332.75</ele>
        <time>2014-01-25T16:02:03Z</time>
      </trkpt>
      <trkpt lat="45.81719" lon="4.70094">
        <ele>334.68</ele>
        <time>2014-01-25T16:02:16Z</time>
      </trkpt>
      <trkpt lat="45.81715" lon="4.70126">
        <ele>335.16</ele>
        <time>2014-01-25T16:02:28Z</time>
      </trkpt>
      <trkpt lat="45.81711" lon="4.70155">
        <ele>336.6</ele>
        <time>2014-01-25T16:02:39Z</time>
      </trkpt>
      <trkpt lat="45.81708" lon="4.70182">
        <ele>337.56</ele>
        <time>2014-01-25T16:02:49Z</time>
      </trkpt>
      <trkpt lat="45.81704" lon="4.70213">
        <ele>338.04</ele>
        <time>2014-01-25T16:03:01Z</time>
      </trkpt>
      <trkpt lat="45.81699" lon="4.70242">
        <ele>339.48</ele>
        <time>2014-01-25T16:03:12Z</time>
      </trkpt>
      <trkpt lat="45.81694" lon="4.70278">
        <ele>339.48</ele>
        <time>2014-01-25T16:03:24Z</time>
      </trkpt>
      <trkpt lat="45.81687" lon="4.70316">
        <ele>339.96</ele>
        <time>2014-01-25T16:03:37Z</time>
      </trkpt>
      <trkpt lat="45.81678" lon="4.70353">
        <ele>340.92</ele>
        <time>2014-01-25T16:03:49Z</time>
      </trkpt>
      <trkpt lat="45.8167" lon="4.70385">
        <ele>341.89</ele>
        <time>2014-01-25T16:04:00Z</time>
      </trkpt>
      <trkpt lat="45.81661" lon="4.70427">
        <ele>342.85</ele>
        <time>2014-01-25T16:04:14Z</time>
      </trkpt>
      <trkpt lat="45.81662" lon="4.70433">
        <ele>343.33</ele>
        <time>2014-01-25T16:04:16Z</time>
      </trkpt>
      <trkpt lat="45.81664" lon="4.70435">
        <ele>343.33</ele>
        <time>2014-01-25T16:04:17Z</time>
      </trkpt>
      <trkpt lat="45.81665" lon="4.70438">
        <ele>343.33</ele>
        <time>2014-01-25T16:04:18Z</time>
      </trkpt>
      <trkpt lat="45.81668" lon="4.7044">
        <ele>343.33</ele>
        <time>2014-01-25T16:04:19Z</time>
      </trkpt>
      <trkpt lat="45.8167" lon="4.70442">
        <ele>343.33</ele>
        <time>2014-01-25T16:04:20Z</time>
      </trkpt>
      <trkpt lat="45.81673" lon="4.70443">
        <ele>343.33</ele>
        <time>2014-01-25T16:04:21Z</time>
      </trkpt>
      <trkpt lat="45.81676" lon="4.70444">
        <ele>343.33</ele>
        <time>2014-01-25T16:04:22Z</time>
      </trkpt>
      <trkpt lat="45.81678" lon="4.70444">
        <ele>342.85</ele>
        <time>2014-01-25T16:04:23Z</time>
      </trkpt>
      <trkpt lat="45.81682" lon="4.70445">
        <ele>343.33</ele>
        <time>2014-01-25T16:04:24Z</time>
      </trkpt>
      <trkpt lat="45.81709" lon="4.70455">
        <ele>341.89</ele>
        <time>2014-01-25T16:04:33Z</time>
      </trkpt>
      <trkpt lat="45.81713" lon="4.70462">
        <ele>341.89</ele>
        <time>2014-01-25T16:04:37Z</time>
      </trkpt>
      <trkpt lat="45.81721" lon="4.70467">
        <ele>341.41</ele>
        <time>2014-01-25T16:04:43Z</time>
      </trkpt>
      <trkpt lat="45.81729" lon="4.70463">
        <ele>340.92</ele>
        <time>2014-01-25T16:04:52Z</time>
      </trkpt>
      <trkpt lat="45.81731" lon="4.70463">
        <ele>340.44</ele>
        <time>2014-01-25T16:05:03Z</time>
      </trkpt>
      <trkpt lat="45.81732" lon="4.70463">
        <ele>340.92</ele>
        <time>2014-01-25T16:05:09Z</time>
      </trkpt>
      <trkpt lat="45.81735" lon="4.70463">
        <ele>341.41</ele>
        <time>2014-01-25T16:05:17Z</time>
      </trkpt>
      <trkpt lat="45.81736" lon="4.70465">
        <ele>340.44</ele>
        <time>2014-01-25T16:05:23Z</time>
      </trkpt>
      <trkpt lat="45.81738" lon="4.70465">
        <ele>340.44</ele>
        <time>2014-01-25T16:05:24Z</time>
      </trkpt>
      <trkpt lat="45.8174" lon="4.70466">
        <ele>340.44</ele>
        <time>2014-01-25T16:05:25Z</time>
      </trkpt>
      <trkpt lat="45.81742" lon="4.70466">
        <ele>340.44</ele>
        <time>2014-01-25T16:05:26Z</time>
      </trkpt>
      <trkpt lat="45.81744" lon="4.70467">
        <ele>340.44</ele>
        <time>2014-01-25T16:05:27Z</time>
      </trkpt>
      <trkpt lat="45.81747" lon="4.70468">
        <ele>339.48</ele>
        <time>2014-01-25T16:05:28Z</time>
      </trkpt>
      <trkpt lat="45.8175" lon="4.7047">
        <ele>339.96</ele>
        <time>2014-01-25T16:05:29Z</time>
      </trkpt>
      <trkpt lat="45.81753" lon="4.70471">
        <ele>339.48</ele>
        <time>2014-01-25T16:05:30Z</time>
      </trkpt>
      <trkpt lat="45.81765" lon="4.70475">
        <ele>339</ele>
        <time>2014-01-25T16:05:33Z</time>
      </trkpt>
      <trkpt lat="45.81806" lon="4.70488">
        <ele>335.64</ele>
        <time>2014-01-25T16:05:42Z</time>
      </trkpt>
      <trkpt lat="45.81818" lon="4.70491">
        <ele>333.71</ele>
        <time>2014-01-25T16:05:47Z</time>
      </trkpt>
      <trkpt lat="45.81819" lon="4.70492">
        <ele>333.71</ele>
        <time>2014-01-25T16:05:48Z</time>
      </trkpt>
      <trkpt lat="45.8182" lon="4.70492">
        <ele>333.23</ele>
        <time>2014-01-25T16:05:56Z</time>
      </trkpt>
      <trkpt lat="45.8182" lon="4.70492">
        <ele>333.71</ele>
        <time>2014-01-25T16:06:00Z</time>
      </trkpt>
      <trkpt lat="45.81824" lon="4.70493">
        <ele>333.23</ele>
        <time>2014-01-25T16:06:10Z</time>
      </trkpt>
      <trkpt lat="45.81825" lon="4.70494">
        <ele>333.23</ele>
        <time>2014-01-25T16:06:12Z</time>
      </trkpt>
      <trkpt lat="45.81829" lon="4.70497">
        <ele>333.23</ele>
        <time>2014-01-25T16:06:21Z</time>
      </trkpt>
      <trkpt lat="45.81847" lon="4.70509">
        <ele>332.27</ele>
        <time>2014-01-25T16:06:30Z</time>
      </trkpt>
      <trkpt lat="45.81854" lon="4.70512">
        <ele>332.27</ele>
        <time>2014-01-25T16:06:32Z</time>
      </trkpt>
      <trkpt lat="45.81873" lon="4.70517">
        <ele>330.83</ele>
        <time>2014-01-25T16:06:36Z</time>
      </trkpt>
      <trkpt lat="45.8189" lon="4.7052">
        <ele>329.39</ele>
        <time>2014-01-25T16:06:39Z</time>
      </trkpt>
      <trkpt lat="45.81921" lon="4.70534">
        <ele>326.02</ele>
        <time>2014-01-25T16:06:44Z</time>
      </trkpt>
      <trkpt lat="45.81934" lon="4.70541">
        <ele>324.58</ele>
        <time>2014-01-25T16:06:46Z</time>
      </trkpt>
      <trkpt lat="45.8194" lon="4.70547">
        <ele>323.62</ele>
        <time>2014-01-25T16:06:47Z</time>
      </trkpt>
      <trkpt lat="45.81945" lon="4.70555">
        <ele>323.62</ele>
        <time>2014-01-25T16:06:48Z</time>
      </trkpt>
      <trkpt lat="45.81949" lon="4.70564">
        <ele>323.14</ele>
        <time>2014-01-25T16:06:49Z</time>
      </trkpt>
      <trkpt lat="45.81951" lon="4.70575">
        <ele>322.18</ele>
        <time>2014-01-25T16:06:50Z</time>
      </trkpt>
      <trkpt lat="45.81952" lon="4.70586">
        <ele>322.18</ele>
        <time>2014-01-25T16:06:51Z</time>
      </trkpt>
      <trkpt lat="45.81952" lon="4.70596">
        <ele>322.18</ele>
        <time>2014-01-25T16:06:52Z</time>
      </trkpt>
      <trkpt lat="45.81948" lon="4.70687">
        <ele>321.22</ele>
        <time>2014-01-25T16:07:02Z</time>
      </trkpt>
      <trkpt lat="45.8195" lon="4.70716">
        <ele>319.78</ele>
        <time>2014-01-25T16:07:08Z</time>
      </trkpt>
      <trkpt lat="45.81953" lon="4.70717">
        <ele>319.78</ele>
        <time>2014-01-25T16:07:09Z</time>
      </trkpt>
      <trkpt lat="45.81957" lon="4.70717">
        <ele>319.3</ele>
        <time>2014-01-25T16:07:10Z</time>
      </trkpt>
      <trkpt lat="45.8196" lon="4.70715">
        <ele>319.3</ele>
        <time>2014-01-25T16:07:11Z</time>
      </trkpt>
      <trkpt lat="45.81964" lon="4.70712">
        <ele>319.78</ele>
        <time>2014-01-25T16:07:12Z</time>
      </trkpt>
      <trkpt lat="45.81969" lon="4.7071">
        <ele>318.81</ele>
        <time>2014-01-25T16:07:13Z</time>
      </trkpt>
      <trkpt lat="45.81974" lon="4.70708">
        <ele>319.3</ele>
        <time>2014-01-25T16:07:14Z</time>
      </trkpt>
      <trkpt lat="45.81979" lon="4.70708">
        <ele>319.78</ele>
        <time>2014-01-25T16:07:15Z</time>
      </trkpt>
      <trkpt lat="45.81983" lon="4.70707">
        <ele>319.3</ele>
        <time>2014-01-25T16:07:16Z</time>
      </trkpt>
      <trkpt lat="45.81997" lon="4.70705">
        <ele>318.81</ele>
        <time>2014-01-25T16:07:19Z</time>
      </trkpt>
      <trkpt lat="45.82001" lon="4.70704">
        <ele>318.81</ele>
        <time>2014-01-25T16:07:20Z</time>
      </trkpt>
      <trkpt lat="45.82028" lon="4.70698">
        <ele>318.33</ele>
        <time>2014-01-25T16:07:25Z</time>
      </trkpt>
      <trkpt lat="45.82034" lon="4.70695">
        <ele>317.85</ele>
        <time>2014-01-25T16:07:26Z</time>
      </trkpt>
      <trkpt lat="45.82039" lon="4.7069">
        <ele>317.85</ele>
        <time>2014-01-25T16:07:27Z</time>
      </trkpt>
      <trkpt lat="45.82044" lon="4.70683">
        <ele>317.37</ele>
        <time>2014-01-25T16:07:28Z</time>
      </trkpt>
      <trkpt lat="45.82047" lon="4.70675">
        <ele>316.89</ele>
        <time>2014-01-25T16:07:29Z</time>
      </trkpt>
      <trkpt lat="45.8205" lon="4.70665">
        <ele>315.93</ele>
        <time>2014-01-25T16:07:30Z</time>
      </trkpt>
      <trkpt lat="45.82051" lon="4.70654">
        <ele>315.45</ele>
        <time>2014-01-25T16:07:31Z</time>
      </trkpt>
      <trkpt lat="45.82051" lon="4.70643">
        <ele>313.53</ele>
        <time>2014-01-25T16:07:32Z</time>
      </trkpt>
      <trkpt lat="45.82053" lon="4.70631">
        <ele>313.05</ele>
        <time>2014-01-25T16:07:33Z</time>
      </trkpt>
      <trkpt lat="45.82055" lon="4.70619">
        <ele>312.57</ele>
        <time>2014-01-25T16:07:34Z</time>
      </trkpt>
      <trkpt lat="45.82059" lon="4.70607">
        <ele>312.57</ele>
        <time>2014-01-25T16:07:35Z</time>
      </trkpt>
      <trkpt lat="45.82064" lon="4.70596">
        <ele>310.64</ele>
        <time>2014-01-25T16:07:36Z</time>
      </trkpt>
      <trkpt lat="45.8207" lon="4.70585">
        <ele>310.16</ele>
        <time>2014-01-25T16:07:37Z</time>
      </trkpt>
      <trkpt lat="45.82078" lon="4.70575">
        <ele>309.68</ele>
        <time>2014-01-25T16:07:38Z</time>
      </trkpt>
      <trkpt lat="45.82085" lon="4.70565">
        <ele>308.24</ele>
        <time>2014-01-25T16:07:39Z</time>
      </trkpt>
      <trkpt lat="45.82093" lon="4.70556">
        <ele>307.76</ele>
        <time>2014-01-25T16:07:40Z</time>
      </trkpt>
      <trkpt lat="45.82124" lon="4.70516">
        <ele>305.84</ele>
        <time>2014-01-25T16:07:44Z</time>
      </trkpt>
      <trkpt lat="45.82157" lon="4.70463">
        <ele>303.43</ele>
        <time>2014-01-25T16:07:49Z</time>
      </trkpt>
      <trkpt lat="45.82205" lon="4.70378">
        <ele>300.07</ele>
        <time>2014-01-25T16:07:57Z</time>
      </trkpt>
      <trkpt lat="45.8221" lon="4.70368">
        <ele>300.07</ele>
        <time>2014-01-25T16:07:58Z</time>
      </trkpt>
      <trkpt lat="45.82259" lon="4.70261">
        <ele>298.15</ele>
        <time>2014-01-25T16:08:09Z</time>
      </trkpt>
      <trkpt lat="45.823" lon="4.70165">
        <ele>295.74</ele>
        <time>2014-01-25T16:08:20Z</time>
      </trkpt>
      <trkpt lat="45.82304" lon="4.70158">
        <ele>295.74</ele>
        <time>2014-01-25T16:08:21Z</time>
      </trkpt>
      <trkpt lat="45.8231" lon="4.70153">
        <ele>295.26</ele>
        <time>2014-01-25T16:08:22Z</time>
      </trkpt>
      <trkpt lat="45.82316" lon="4.70149">
        <ele>295.26</ele>
        <time>2014-01-25T16:08:23Z</time>
      </trkpt>
      <trkpt lat="45.82322" lon="4.70147">
        <ele>295.26</ele>
        <time>2014-01-25T16:08:24Z</time>
      </trkpt>
      <trkpt lat="45.82329" lon="4.70146">
        <ele>295.74</ele>
        <time>2014-01-25T16:08:25Z</time>
      </trkpt>
      <trkpt lat="45.82336" lon="4.70146">
        <ele>295.26</ele>
        <time>2014-01-25T16:08:26Z</time>
      </trkpt>
      <trkpt lat="45.82342" lon="4.70147">
        <ele>295.26</ele>
        <time>2014-01-25T16:08:27Z</time>
      </trkpt>
      <trkpt lat="45.82349" lon="4.70148">
        <ele>294.78</ele>
        <time>2014-01-25T16:08:28Z</time>
      </trkpt>
      <trkpt lat="45.82355" lon="4.70149">
        <ele>295.26</ele>
        <time>2014-01-25T16:08:29Z</time>
      </trkpt>
      <trkpt lat="45.82405" lon="4.70155">
        <ele>297.18</ele>
        <time>2014-01-25T16:08:39Z</time>
      </trkpt>
      <trkpt lat="45.82409" lon="4.70155">
        <ele>296.22</ele>
        <time>2014-01-25T16:08:40Z</time>
      </trkpt>
      <trkpt lat="45.82418" lon="4.70153">
        <ele>296.7</ele>
        <time>2014-01-25T16:08:42Z</time>
      </trkpt>
      <trkpt lat="45.82449" lon="4.70147">
        <ele>297.18</ele>
        <time>2014-01-25T16:08:51Z</time>
      </trkpt>
      <trkpt lat="45.82481" lon="4.70148">
        <ele>300.07</ele>
        <time>2014-01-25T16:09:02Z</time>
      </trkpt>
      <trkpt lat="45.825" lon="4.70148">
        <ele>302.47</ele>
        <time>2014-01-25T16:09:11Z</time>
      </trkpt>
      <trkpt lat="45.82525" lon="4.70149">
        <ele>304.39</ele>
        <time>2014-01-25T16:09:22Z</time>
      </trkpt>
      <trkpt lat="45.82545" lon="4.7015">
        <ele>306.32</ele>
        <time>2014-01-25T16:09:31Z</time>
      </trkpt>
      <trkpt lat="45.82547" lon="4.7015">
        <ele>306.8</ele>
        <time>2014-01-25T16:09:32Z</time>
      </trkpt>
      <trkpt lat="45.82549" lon="4.7015">
        <ele>307.28</ele>
        <time>2014-01-25T16:09:33Z</time>
      </trkpt>
      <trkpt lat="45.8255" lon="4.7015">
        <ele>307.28</ele>
        <time>2014-01-25T16:09:34Z</time>
      </trkpt>
      <trkpt lat="45.82552" lon="4.7015">
        <ele>307.76</ele>
        <time>2014-01-25T16:09:35Z</time>
      </trkpt>
      <trkpt lat="45.82554" lon="4.7015">
        <ele>307.76</ele>
        <time>2014-01-25T16:09:36Z</time>
      </trkpt>
      <trkpt lat="45.82556" lon="4.7015">
        <ele>307.76</ele>
        <time>2014-01-25T16:09:37Z</time>
      </trkpt>
      <trkpt lat="45.82558" lon="4.7015">
        <ele>308.24</ele>
        <time>2014-01-25T16:09:38Z</time>
      </trkpt>
      <trkpt lat="45.8256" lon="4.7015">
        <ele>308.24</ele>
        <time>2014-01-25T16:09:39Z</time>
      </trkpt>
      <trkpt lat="45.8258" lon="4.7015">
        <ele>309.68</ele>
        <time>2014-01-25T16:09:51Z</time>
      </trkpt>
      <trkpt lat="45.82599" lon="4.70151">
        <ele>310.16</ele>
        <time>2014-01-25T16:10:02Z</time>
      </trkpt>
      <trkpt lat="45.82604" lon="4.7015">
        <ele>310.64</ele>
        <time>2014-01-25T16:10:05Z</time>
      </trkpt>
      <trkpt lat="45.82605" lon="4.7015">
        <ele>310.64</ele>
        <time>2014-01-25T16:10:06Z</time>
      </trkpt>
      <trkpt lat="45.82613" lon="4.70149">
        <ele>312.09</ele>
        <time>2014-01-25T16:10:11Z</time>
      </trkpt>
      <trkpt lat="45.82615" lon="4.70149">
        <ele>312.09</ele>
        <time>2014-01-25T16:10:12Z</time>
      </trkpt>
      <trkpt lat="45.82634" lon="4.70143">
        <ele>313.53</ele>
        <time>2014-01-25T16:10:24Z</time>
      </trkpt>
      <trkpt lat="45.82652" lon="4.70132">
        <ele>313.53</ele>
        <time>2014-01-25T16:10:36Z</time>
      </trkpt>
      <trkpt lat="45.82659" lon="4.70126">
        <ele>314.97</ele>
        <time>2014-01-25T16:10:41Z</time>
      </trkpt>
      <trkpt lat="45.82676" lon="4.70115">
        <ele>314.97</ele>
        <time>2014-01-25T16:10:52Z</time>
      </trkpt>
      <trkpt lat="45.82688" lon="4.70107">
        <ele>316.89</ele>
        <time>2014-01-25T16:10:59Z</time>
      </trkpt>
      <trkpt lat="45.82705" lon="4.70099">
        <ele>318.33</ele>
        <time>2014-01-25T16:11:09Z</time>
      </trkpt>
      <trkpt lat="45.82718" lon="4.70093">
        <ele>320.26</ele>
        <time>2014-01-25T16:11:17Z</time>
      </trkpt>
      <trkpt lat="45.82739" lon="4.7008">
        <ele>321.7</ele>
        <time>2014-01-25T16:11:29Z</time>
      </trkpt>
      <trkpt lat="45.82758" lon="4.70067">
        <ele>322.66</ele>
        <time>2014-01-25T16:11:40Z</time>
      </trkpt>
      <trkpt lat="45.82774" lon="4.70054">
        <ele>322.66</ele>
        <time>2014-01-25T16:11:49Z</time>
      </trkpt>
      <trkpt lat="45.82782" lon="4.70045">
        <ele>322.18</ele>
        <time>2014-01-25T16:11:55Z</time>
      </trkpt>
      <trkpt lat="45.82784" lon="4.70046">
        <ele>322.18</ele>
        <time>2014-01-25T16:11:56Z</time>
      </trkpt>
      <trkpt lat="45.82787" lon="4.70048">
        <ele>322.18</ele>
        <time>2014-01-25T16:11:57Z</time>
      </trkpt>
      <trkpt lat="45.8279" lon="4.70052">
        <ele>321.7</ele>
        <time>2014-01-25T16:11:58Z</time>
      </trkpt>
      <trkpt lat="45.82792" lon="4.70056">
        <ele>320.74</ele>
        <time>2014-01-25T16:11:59Z</time>
      </trkpt>
      <trkpt lat="45.82795" lon="4.70061">
        <ele>321.22</ele>
        <time>2014-01-25T16:12:00Z</time>
      </trkpt>
      <trkpt lat="45.8281" lon="4.70083">
        <ele>320.26</ele>
        <time>2014-01-25T16:12:04Z</time>
      </trkpt>
      <trkpt lat="45.82814" lon="4.70089">
        <ele>319.78</ele>
        <time>2014-01-25T16:12:05Z</time>
      </trkpt>
      <trkpt lat="45.82856" lon="4.70162">
        <ele>316.41</ele>
        <time>2014-01-25T16:12:16Z</time>
      </trkpt>
      <trkpt lat="45.8286" lon="4.7017">
        <ele>316.41</ele>
        <time>2014-01-25T16:12:17Z</time>
      </trkpt>
      <trkpt lat="45.829" lon="4.70236">
        <ele>312.09</ele>
        <time>2014-01-25T16:12:25Z</time>
      </trkpt>
      <trkpt lat="45.82905" lon="4.70245">
        <ele>312.57</ele>
        <time>2014-01-25T16:12:26Z</time>
      </trkpt>
      <trkpt lat="45.82946" lon="4.70313">
        <ele>310.16</ele>
        <time>2014-01-25T16:12:34Z</time>
      </trkpt>
      <trkpt lat="45.83004" lon="4.70424">
        <ele>308.24</ele>
        <time>2014-01-25T16:12:47Z</time>
      </trkpt>
      <trkpt lat="45.83047" lon="4.70515">
        <ele>308.72</ele>
        <time>2014-01-25T16:13:00Z</time>
      </trkpt>
      <trkpt lat="45.83075" lon="4.70574">
        <ele>309.68</ele>
        <time>2014-01-25T16:13:10Z</time>
      </trkpt>
      <trkpt lat="45.83094" lon="4.70618">
        <ele>309.2</ele>
        <time>2014-01-25T16:13:17Z</time>
      </trkpt>
      <trkpt lat="45.83098" lon="4.70624">
        <ele>309.68</ele>
        <time>2014-01-25T16:13:18Z</time>
      </trkpt>
      <trkpt lat="45.83107" lon="4.70645">
        <ele>309.2</ele>
        <time>2014-01-25T16:13:23Z</time>
      </trkpt>
      <trkpt lat="45.83105" lon="4.70649">
        <ele>308.72</ele>
        <time>2014-01-25T16:13:24Z</time>
      </trkpt>
      <trkpt lat="45.83092" lon="4.70667">
        <ele>308.24</ele>
        <time>2014-01-25T16:13:28Z</time>
      </trkpt>
      <trkpt lat="45.83088" lon="4.70672">
        <ele>308.24</ele>
        <time>2014-01-25T16:13:29Z</time>
      </trkpt>
      <trkpt lat="45.83081" lon="4.70684">
        <ele>307.76</ele>
        <time>2014-01-25T16:13:31Z</time>
      </trkpt>
      <trkpt lat="45.83078" lon="4.70691">
        <ele>308.24</ele>
        <time>2014-01-25T16:13:32Z</time>
      </trkpt>
      <trkpt lat="45.83075" lon="4.70698">
        <ele>307.76</ele>
        <time>2014-01-25T16:13:33Z</time>
      </trkpt>
      <trkpt lat="45.83069" lon="4.70714">
        <ele>306.8</ele>
        <time>2014-01-25T16:13:35Z</time>
      </trkpt>
      <trkpt lat="45.83066" lon="4.70723">
        <ele>306.32</ele>
        <time>2014-01-25T16:13:36Z</time>
      </trkpt>
      <trkpt lat="45.83053" lon="4.70764">
        <ele>305.84</ele>
        <time>2014-01-25T16:13:41Z</time>
      </trkpt>
      <trkpt lat="45.83019" lon="4.70851">
        <ele>301.99</ele>
        <time>2014-01-25T16:13:51Z</time>
      </trkpt>
      <trkpt lat="45.83005" lon="4.70892">
        <ele>300.55</ele>
        <time>2014-01-25T16:13:55Z</time>
      </trkpt>
      <trkpt lat="45.83002" lon="4.70901">
        <ele>300.07</ele>
        <time>2014-01-25T16:13:56Z</time>
      </trkpt>
      <trkpt lat="45.82991" lon="4.70931">
        <ele>299.11</ele>
        <time>2014-01-25T16:13:59Z</time>
      </trkpt>
      <trkpt lat="45.82988" lon="4.70941">
        <ele>299.59</ele>
        <time>2014-01-25T16:14:00Z</time>
      </trkpt>
      <trkpt lat="45.82984" lon="4.7095">
        <ele>299.11</ele>
        <time>2014-01-25T16:14:01Z</time>
      </trkpt>
      <trkpt lat="45.8298" lon="4.70959">
        <ele>299.11</ele>
        <time>2014-01-25T16:14:02Z</time>
      </trkpt>
      <trkpt lat="45.82976" lon="4.70968">
        <ele>298.63</ele>
        <time>2014-01-25T16:14:03Z</time>
      </trkpt>
      <trkpt lat="45.82959" lon="4.71017">
        <ele>297.18</ele>
        <time>2014-01-25T16:14:08Z</time>
      </trkpt>
      <trkpt lat="45.82956" lon="4.71026">
        <ele>296.7</ele>
        <time>2014-01-25T16:14:09Z</time>
      </trkpt>
      <trkpt lat="45.82946" lon="4.71061">
        <ele>295.26</ele>
        <time>2014-01-25T16:14:13Z</time>
      </trkpt>
      <trkpt lat="45.82946" lon="4.71068">
        <ele>295.26</ele>
        <time>2014-01-25T16:14:14Z</time>
      </trkpt>
      <trkpt lat="45.82948" lon="4.71075">
        <ele>294.78</ele>
        <time>2014-01-25T16:14:15Z</time>
      </trkpt>
      <trkpt lat="45.82951" lon="4.7108">
        <ele>294.78</ele>
        <time>2014-01-25T16:14:16Z</time>
      </trkpt>
      <trkpt lat="45.82955" lon="4.71082">
        <ele>294.78</ele>
        <time>2014-01-25T16:14:17Z</time>
      </trkpt>
      <trkpt lat="45.82959" lon="4.71084">
        <ele>295.26</ele>
        <time>2014-01-25T16:14:18Z</time>
      </trkpt>
      <trkpt lat="45.82999" lon="4.71088">
        <ele>296.22</ele>
        <time>2014-01-25T16:14:29Z</time>
      </trkpt>
      <trkpt lat="45.83032" lon="4.71091">
        <ele>297.18</ele>
        <time>2014-01-25T16:14:39Z</time>
      </trkpt>
      <trkpt lat="45.8305" lon="4.71112">
        <ele>297.67</ele>
        <time>2014-01-25T16:14:46Z</time>
      </trkpt>
      <trkpt lat="45.83076" lon="4.71157">
        <ele>296.7</ele>
        <time>2014-01-25T16:14:57Z</time>
      </trkpt>
      <trkpt lat="45.83086" lon="4.71177">
        <ele>296.22</ele>
        <time>2014-01-25T16:15:02Z</time>
      </trkpt>
      <trkpt lat="45.83086" lon="4.71183">
        <ele>296.7</ele>
        <time>2014-01-25T16:15:03Z</time>
      </trkpt>
      <trkpt lat="45.83084" lon="4.71188">
        <ele>295.74</ele>
        <time>2014-01-25T16:15:04Z</time>
      </trkpt>
      <trkpt lat="45.83082" lon="4.71193">
        <ele>295.74</ele>
        <time>2014-01-25T16:15:05Z</time>
      </trkpt>
      <trkpt lat="45.83079" lon="4.71198">
        <ele>296.22</ele>
        <time>2014-01-25T16:15:06Z</time>
      </trkpt>
      <trkpt lat="45.83076" lon="4.71204">
        <ele>295.74</ele>
        <time>2014-01-25T16:15:07Z</time>
      </trkpt>
      <trkpt lat="45.83071" lon="4.71216">
        <ele>294.78</ele>
        <time>2014-01-25T16:15:09Z</time>
      </trkpt>
      <trkpt lat="45.8307" lon="4.71223">
        <ele>294.78</ele>
        <time>2014-01-25T16:15:10Z</time>
      </trkpt>
      <trkpt lat="45.83068" lon="4.71231">
        <ele>294.78</ele>
        <time>2014-01-25T16:15:11Z</time>
      </trkpt>
      <trkpt lat="45.83067" lon="4.71285">
        <ele>291.9</ele>
        <time>2014-01-25T16:15:18Z</time>
      </trkpt>
      <trkpt lat="45.83067" lon="4.71291">
        <ele>290.94</ele>
        <time>2014-01-25T16:15:19Z</time>
      </trkpt>
      <trkpt lat="45.83068" lon="4.71297">
        <ele>290.94</ele>
        <time>2014-01-25T16:15:20Z</time>
      </trkpt>
      <trkpt lat="45.83071" lon="4.71302">
        <ele>291.42</ele>
        <time>2014-01-25T16:15:21Z</time>
      </trkpt>
      <trkpt lat="45.83075" lon="4.71306">
        <ele>291.42</ele>
        <time>2014-01-25T16:15:22Z</time>
      </trkpt>
      <trkpt lat="45.83079" lon="4.71308">
        <ele>290.94</ele>
        <time>2014-01-25T16:15:23Z</time>
      </trkpt>
      <trkpt lat="45.83084" lon="4.71309">
        <ele>290.94</ele>
        <time>2014-01-25T16:15:24Z</time>
      </trkpt>
      <trkpt lat="45.83089" lon="4.7131">
        <ele>290.94</ele>
        <time>2014-01-25T16:15:25Z</time>
      </trkpt>
      <trkpt lat="45.83107" lon="4.71313">
        <ele>291.42</ele>
        <time>2014-01-25T16:15:29Z</time>
      </trkpt>
      <trkpt lat="45.83132" lon="4.71319">
        <ele>290.46</ele>
        <time>2014-01-25T16:15:34Z</time>
      </trkpt>
      <trkpt lat="45.83137" lon="4.71322">
        <ele>290.46</ele>
        <time>2014-01-25T16:15:35Z</time>
      </trkpt>
      <trkpt lat="45.83142" lon="4.71327">
        <ele>290.94</ele>
        <time>2014-01-25T16:15:36Z</time>
      </trkpt>
      <trkpt lat="45.83152" lon="4.71337">
        <ele>289.49</ele>
        <time>2014-01-25T16:15:38Z</time>
      </trkpt>
      <trkpt lat="45.83179" lon="4.71369">
        <ele>289.01</ele>
        <time>2014-01-25T16:15:44Z</time>
      </trkpt>
      <trkpt lat="45.83184" lon="4.71373">
        <ele>288.53</ele>
        <time>2014-01-25T16:15:45Z</time>
      </trkpt>
      <trkpt lat="45.8319" lon="4.71375">
        <ele>289.01</ele>
        <time>2014-01-25T16:15:46Z</time>
      </trkpt>
      <trkpt lat="45.83202" lon="4.71378">
        <ele>288.05</ele>
        <time>2014-01-25T16:15:48Z</time>
      </trkpt>
      <trkpt lat="45.83208" lon="4.71378">
        <ele>288.05</ele>
        <time>2014-01-25T16:15:49Z</time>
      </trkpt>
      <trkpt lat="45.8322" lon="4.71378">
        <ele>287.09</ele>
        <time>2014-01-25T16:15:51Z</time>
      </trkpt>
      <trkpt lat="45.83246" lon="4.71377">
        <ele>286.13</ele>
        <time>2014-01-25T16:15:55Z</time>
      </trkpt>
      <trkpt lat="45.83253" lon="4.71378">
        <ele>285.65</ele>
        <time>2014-01-25T16:15:56Z</time>
      </trkpt>
      <trkpt lat="45.83298" lon="4.71374">
        <ele>284.69</ele>
        <time>2014-01-25T16:16:03Z</time>
      </trkpt>
      <trkpt lat="45.83342" lon="4.71366">
        <ele>286.61</ele>
        <time>2014-01-25T16:16:12Z</time>
      </trkpt>
      <trkpt lat="45.83358" lon="4.71366">
        <ele>288.05</ele>
        <time>2014-01-25T16:16:17Z</time>
      </trkpt>
      <trkpt lat="45.83361" lon="4.71368">
        <ele>288.05</ele>
        <time>2014-01-25T16:16:18Z</time>
      </trkpt>
      <trkpt lat="45.83364" lon="4.71371">
        <ele>287.57</ele>
        <time>2014-01-25T16:16:19Z</time>
      </trkpt>
      <trkpt lat="45.83367" lon="4.71374">
        <ele>287.57</ele>
        <time>2014-01-25T16:16:20Z</time>
      </trkpt>
      <trkpt lat="45.83369" lon="4.71378">
        <ele>287.57</ele>
        <time>2014-01-25T16:16:21Z</time>
      </trkpt>
      <trkpt lat="45.83397" lon="4.71433">
        <ele>286.61</ele>
        <time>2014-01-25T16:16:32Z</time>
      </trkpt>
      <trkpt lat="45.83411" lon="4.71453">
        <ele>286.61</ele>
        <time>2014-01-25T16:16:36Z</time>
      </trkpt>
      <trkpt lat="45.83448" lon="4.71479">
        <ele>285.65</ele>
        <time>2014-01-25T16:16:45Z</time>
      </trkpt>
      <trkpt lat="45.83458" lon="4.7149">
        <ele>284.69</ele>
        <time>2014-01-25T16:16:49Z</time>
      </trkpt>
      <trkpt lat="45.83457" lon="4.71495">
        <ele>284.69</ele>
        <time>2014-01-25T16:16:50Z</time>
      </trkpt>
      <trkpt lat="45.83451" lon="4.71526">
        <ele>283.73</ele>
        <time>2014-01-25T16:16:56Z</time>
      </trkpt>
      <trkpt lat="45.8345" lon="4.71532">
        <ele>283.25</ele>
        <time>2014-01-25T16:16:57Z</time>
      </trkpt>
      <trkpt lat="45.83447" lon="4.71557">
        <ele>281.8</ele>
        <time>2014-01-25T16:17:01Z</time>
      </trkpt>
      <trkpt lat="45.83444" lon="4.71577">
        <ele>279.4</ele>
        <time>2014-01-25T16:17:05Z</time>
      </trkpt>
      <trkpt lat="45.8344" lon="4.71583">
        <ele>277.96</ele>
        <time>2014-01-25T16:17:07Z</time>
      </trkpt>
      <trkpt lat="45.83438" lon="4.71583">
        <ele>277.96</ele>
        <time>2014-01-25T16:17:08Z</time>
      </trkpt>
      <trkpt lat="45.83435" lon="4.71582">
        <ele>277.48</ele>
        <time>2014-01-25T16:17:09Z</time>
      </trkpt>
      <trkpt lat="45.83432" lon="4.71581">
        <ele>277.96</ele>
        <time>2014-01-25T16:17:10Z</time>
      </trkpt>
      <trkpt lat="45.8343" lon="4.71578">
        <ele>277.48</ele>
        <time>2014-01-25T16:17:11Z</time>
      </trkpt>
      <trkpt lat="45.83427" lon="4.71574">
        <ele>277</ele>
        <time>2014-01-25T16:17:12Z</time>
      </trkpt>
      <trkpt lat="45.83425" lon="4.7157">
        <ele>277.48</ele>
        <time>2014-01-25T16:17:13Z</time>
      </trkpt>
      <trkpt lat="45.83422" lon="4.71566">
        <ele>277</ele>
        <time>2014-01-25T16:17:14Z</time>
      </trkpt>
      <trkpt lat="45.83419" lon="4.71562">
        <ele>277.48</ele>
        <time>2014-01-25T16:17:15Z</time>
      </trkpt>
      <trkpt lat="45.83413" lon="4.71556">
        <ele>277.48</ele>
        <time>2014-01-25T16:17:17Z</time>
      </trkpt>
      <trkpt lat="45.83409" lon="4.71553">
        <ele>277</ele>
        <time>2014-01-25T16:17:18Z</time>
      </trkpt>
      <trkpt lat="45.83404" lon="4.71551">
        <ele>276.52</ele>
        <time>2014-01-25T16:17:19Z</time>
      </trkpt>
      <trkpt lat="45.83395" lon="4.71548">
        <ele>276.04</ele>
        <time>2014-01-25T16:17:21Z</time>
      </trkpt>
      <trkpt lat="45.8339" lon="4.71547">
        <ele>276.52</ele>
        <time>2014-01-25T16:17:22Z</time>
      </trkpt>
      <trkpt lat="45.83385" lon="4.71549">
        <ele>276.52</ele>
        <time>2014-01-25T16:17:23Z</time>
      </trkpt>
      <trkpt lat="45.83382" lon="4.71554">
        <ele>276.04</ele>
        <time>2014-01-25T16:17:24Z</time>
      </trkpt>
      <trkpt lat="45.83378" lon="4.7156">
        <ele>275.56</ele>
        <time>2014-01-25T16:17:25Z</time>
      </trkpt>
      <trkpt lat="45.83362" lon="4.71594">
        <ele>275.56</ele>
        <time>2014-01-25T16:17:30Z</time>
      </trkpt>
      <trkpt lat="45.83358" lon="4.71608">
        <ele>275.07</ele>
        <time>2014-01-25T16:17:32Z</time>
      </trkpt>
      <trkpt lat="45.83358" lon="4.71614">
        <ele>274.59</ele>
        <time>2014-01-25T16:17:33Z</time>
      </trkpt>
      <trkpt lat="45.83367" lon="4.71623">
        <ele>275.07</ele>
        <time>2014-01-25T16:17:36Z</time>
      </trkpt>
      <trkpt lat="45.83371" lon="4.7162">
        <ele>274.11</ele>
        <time>2014-01-25T16:17:37Z</time>
      </trkpt>
      <trkpt lat="45.83374" lon="4.71615">
        <ele>273.63</ele>
        <time>2014-01-25T16:17:38Z</time>
      </trkpt>
      <trkpt lat="45.83377" lon="4.71609">
        <ele>273.15</ele>
        <time>2014-01-25T16:17:39Z</time>
      </trkpt>
      <trkpt lat="45.83379" lon="4.71601">
        <ele>272.67</ele>
        <time>2014-01-25T16:17:40Z</time>
      </trkpt>
      <trkpt lat="45.83381" lon="4.71595">
        <ele>272.19</ele>
        <time>2014-01-25T16:17:41Z</time>
      </trkpt>
      <trkpt lat="45.83385" lon="4.71592">
        <ele>271.23</ele>
        <time>2014-01-25T16:17:42Z</time>
      </trkpt>
      <trkpt lat="45.8339" lon="4.7159">
        <ele>269.79</ele>
        <time>2014-01-25T16:17:43Z</time>
      </trkpt>
      <trkpt lat="45.83396" lon="4.71592">
        <ele>268.83</ele>
        <time>2014-01-25T16:17:44Z</time>
      </trkpt>
      <trkpt lat="45.83402" lon="4.71597">
        <ele>268.35</ele>
        <time>2014-01-25T16:17:45Z</time>
      </trkpt>
      <trkpt lat="45.83406" lon="4.71604">
        <ele>267.38</ele>
        <time>2014-01-25T16:17:46Z</time>
      </trkpt>
      <trkpt lat="45.83407" lon="4.71611">
        <ele>266.42</ele>
        <time>2014-01-25T16:17:47Z</time>
      </trkpt>
      <trkpt lat="45.83407" lon="4.71618">
        <ele>265.94</ele>
        <time>2014-01-25T16:17:48Z</time>
      </trkpt>
      <trkpt lat="45.83409" lon="4.71629">
        <ele>264.98</ele>
        <time>2014-01-25T16:17:54Z</time>
      </trkpt>
      <trkpt lat="45.83409" lon="4.71629">
        <ele>264.5</ele>
        <time>2014-01-25T16:18:12Z</time>
      </trkpt>
      <trkpt lat="45.83409" lon="4.71629">
        <ele>264.98</ele>
        <time>2014-01-25T16:18:30Z</time>
      </trkpt>
      <trkpt lat="45.83413" lon="4.71647">
        <ele>264.02</ele>
        <time>2014-01-25T16:18:38Z</time>
      </trkpt>
      <trkpt lat="45.83407" lon="4.71675">
        <ele>261.14</ele>
        <time>2014-01-25T16:18:44Z</time>
      </trkpt>
      <trkpt lat="45.83404" lon="4.71686">
        <ele>260.17</ele>
        <time>2014-01-25T16:18:48Z</time>
      </trkpt>
      <trkpt lat="45.83402" lon="4.71688">
        <ele>260.17</ele>
        <time>2014-01-25T16:18:56Z</time>
      </trkpt>
      <trkpt lat="45.83402" lon="4.71688">
        <ele>260.17</ele>
        <time>2014-01-25T16:19:19Z</time>
      </trkpt>
      <trkpt lat="45.83401" lon="4.71685">
        <ele>260.65</ele>
        <time>2014-01-25T16:19:33Z</time>
      </trkpt>
      <trkpt lat="45.83401" lon="4.71685">
        <ele>260.65</ele>
        <time>2014-01-25T16:19:46Z</time>
      </trkpt>
      <trkpt lat="45.83401" lon="4.71685">
        <ele>260.65</ele>
        <time>2014-01-25T16:20:01Z</time>
      </trkpt>
      <trkpt lat="45.83401" lon="4.71685">
        <ele>260.17</ele>
        <time>2014-01-25T16:20:14Z</time>
      </trkpt>
      <trkpt lat="45.83401" lon="4.71686">
        <ele>260.17</ele>
        <time>2014-01-25T16:20:25Z</time>
      </trkpt>
      <trkpt lat="45.83401" lon="4.71686">
        <ele>260.65</ele>
        <time>2014-01-25T16:20:34Z</time>
      </trkpt>
      <trkpt lat="45.83401" lon="4.71686">
        <ele>260.17</ele>
        <time>2014-01-25T16:20:49Z</time>
      </trkpt>
      <trkpt lat="45.83402" lon="4.71687">
        <ele>260.65</ele>
        <time>2014-01-25T16:20:53Z</time>
      </trkpt>
      <trkpt lat="45.83404" lon="4.71688">
        <ele>260.17</ele>
        <time>2014-01-25T16:20:54Z</time>
      </trkpt>
      <trkpt lat="45.83405" lon="4.71689">
        <ele>260.17</ele>
        <time>2014-01-25T16:20:55Z</time>
      </trkpt>
      <trkpt lat="45.83407" lon="4.7169">
        <ele>260.17</ele>
        <time>2014-01-25T16:20:56Z</time>
      </trkpt>
      <trkpt lat="45.83409" lon="4.7169">
        <ele>260.17</ele>
        <time>2014-01-25T16:20:57Z</time>
      </trkpt>
      <trkpt lat="45.83416" lon="4.71694">
        <ele>260.17</ele>
        <time>2014-01-25T16:21:01Z</time>
      </trkpt>
      <trkpt lat="45.83424" lon="4.7172">
        <ele>259.21</ele>
        <time>2014-01-25T16:21:08Z</time>
      </trkpt>
      <trkpt lat="45.83433" lon="4.71761">
        <ele>258.73</ele>
        <time>2014-01-25T16:21:17Z</time>
      </trkpt>
      <trkpt lat="45.83444" lon="4.71792">
        <ele>260.17</ele>
        <time>2014-01-25T16:21:26Z</time>
      </trkpt>
      <trkpt lat="45.83453" lon="4.71815">
        <ele>262.1</ele>
        <time>2014-01-25T16:21:36Z</time>
      </trkpt>
      <trkpt lat="45.8346" lon="4.71835">
        <ele>263.06</ele>
        <time>2014-01-25T16:21:46Z</time>
      </trkpt>
      <trkpt lat="45.83473" lon="4.71863">
        <ele>264.02</ele>
        <time>2014-01-25T16:22:00Z</time>
      </trkpt>
      <trkpt lat="45.83475" lon="4.71895">
        <ele>266.42</ele>
        <time>2014-01-25T16:22:11Z</time>
      </trkpt>
      <trkpt lat="45.83466" lon="4.7193">
        <ele>267.86</ele>
        <time>2014-01-25T16:22:24Z</time>
      </trkpt>
      <trkpt lat="45.83458" lon="4.71964">
        <ele>269.31</ele>
        <time>2014-01-25T16:22:36Z</time>
      </trkpt>
      <trkpt lat="45.83447" lon="4.71999">
        <ele>270.27</ele>
        <time>2014-01-25T16:22:49Z</time>
      </trkpt>
      <trkpt lat="45.83439" lon="4.72037">
        <ele>270.75</ele>
        <time>2014-01-25T16:23:02Z</time>
      </trkpt>
      <trkpt lat="45.8344" lon="4.7204">
        <ele>271.23</ele>
        <time>2014-01-25T16:23:03Z</time>
      </trkpt>
      <trkpt lat="45.8344" lon="4.72043">
        <ele>271.23</ele>
        <time>2014-01-25T16:23:04Z</time>
      </trkpt>
      <trkpt lat="45.83441" lon="4.72045">
        <ele>271.23</ele>
        <time>2014-01-25T16:23:05Z</time>
      </trkpt>
      <trkpt lat="45.83444" lon="4.72048">
        <ele>271.23</ele>
        <time>2014-01-25T16:23:07Z</time>
      </trkpt>
      <trkpt lat="45.83465" lon="4.7206">
        <ele>271.23</ele>
        <time>2014-01-25T16:23:16Z</time>
      </trkpt>
      <trkpt lat="45.83507" lon="4.72062">
        <ele>271.23</ele>
        <time>2014-01-25T16:23:26Z</time>
      </trkpt>
      <trkpt lat="45.83562" lon="4.72053">
        <ele>269.79</ele>
        <time>2014-01-25T16:23:37Z</time>
      </trkpt>
      <trkpt lat="45.83605" lon="4.72048">
        <ele>270.27</ele>
        <time>2014-01-25T16:23:45Z</time>
      </trkpt>
      <trkpt lat="45.83671" lon="4.72039">
        <ele>268.35</ele>
        <time>2014-01-25T16:23:56Z</time>
      </trkpt>
      <trkpt lat="45.83732" lon="4.72042">
        <ele>267.38</ele>
        <time>2014-01-25T16:24:06Z</time>
      </trkpt>
      <trkpt lat="45.83792" lon="4.72075">
        <ele>265.94</ele>
        <time>2014-01-25T16:24:16Z</time>
      </trkpt>
      <trkpt lat="45.83865" lon="4.72119">
        <ele>264.02</ele>
        <time>2014-01-25T16:24:29Z</time>
      </trkpt>
      <trkpt lat="45.83931" lon="4.72161">
        <ele>263.06</ele>
        <time>2014-01-25T16:24:41Z</time>
      </trkpt>
      <trkpt lat="45.83936" lon="4.72166">
        <ele>262.58</ele>
        <time>2014-01-25T16:24:42Z</time>
      </trkpt>
      <trkpt lat="45.83941" lon="4.72172">
        <ele>262.58</ele>
        <time>2014-01-25T16:24:43Z</time>
      </trkpt>
      <trkpt lat="45.83945" lon="4.72178">
        <ele>263.06</ele>
        <time>2014-01-25T16:24:44Z</time>
      </trkpt>
      <trkpt lat="45.83978" lon="4.72242">
        <ele>263.54</ele>
        <time>2014-01-25T16:24:54Z</time>
      </trkpt>
      <trkpt lat="45.84004" lon="4.72293">
        <ele>262.58</ele>
        <time>2014-01-25T16:25:03Z</time>
      </trkpt>
      <trkpt lat="45.84016" lon="4.72309">
        <ele>261.14</ele>
        <time>2014-01-25T16:25:06Z</time>
      </trkpt>
      <trkpt lat="45.84021" lon="4.72313">
        <ele>260.65</ele>
        <time>2014-01-25T16:25:07Z</time>
      </trkpt>
      <trkpt lat="45.84027" lon="4.72316">
        <ele>260.17</ele>
        <time>2014-01-25T16:25:08Z</time>
      </trkpt>
      <trkpt lat="45.84088" lon="4.72344">
        <ele>256.33</ele>
        <time>2014-01-25T16:25:17Z</time>
      </trkpt>
      <trkpt lat="45.84125" lon="4.72361">
        <ele>253.93</ele>
        <time>2014-01-25T16:25:22Z</time>
      </trkpt>
      <trkpt lat="45.84164" lon="4.72378">
        <ele>250.56</ele>
        <time>2014-01-25T16:25:27Z</time>
      </trkpt>
      <trkpt lat="45.84181" lon="4.72387">
        <ele>250.08</ele>
        <time>2014-01-25T16:25:29Z</time>
      </trkpt>
      <trkpt lat="45.84206" lon="4.72401">
        <ele>248.16</ele>
        <time>2014-01-25T16:25:32Z</time>
      </trkpt>
      <trkpt lat="45.84216" lon="4.72404">
        <ele>247.68</ele>
        <time>2014-01-25T16:25:33Z</time>
      </trkpt>
      <trkpt lat="45.84225" lon="4.72406">
        <ele>246.23</ele>
        <time>2014-01-25T16:25:34Z</time>
      </trkpt>
      <trkpt lat="45.84234" lon="4.72407">
        <ele>246.23</ele>
        <time>2014-01-25T16:25:35Z</time>
      </trkpt>
      <trkpt lat="45.8428" lon="4.72407">
        <ele>242.87</ele>
        <time>2014-01-25T16:25:40Z</time>
      </trkpt>
      <trkpt lat="45.84318" lon="4.72407">
        <ele>239.99</ele>
        <time>2014-01-25T16:25:44Z</time>
      </trkpt>
      <trkpt lat="45.84358" lon="4.72415">
        <ele>236.62</ele>
        <time>2014-01-25T16:25:48Z</time>
      </trkpt>
      <trkpt lat="45.84367" lon="4.72417">
        <ele>236.62</ele>
        <time>2014-01-25T16:25:49Z</time>
      </trkpt>
      <trkpt lat="45.84412" lon="4.72429">
        <ele>233.74</ele>
        <time>2014-01-25T16:25:56Z</time>
      </trkpt>
      <trkpt lat="45.84416" lon="4.72431">
        <ele>233.74</ele>
        <time>2014-01-25T16:25:57Z</time>
      </trkpt>
      <trkpt lat="45.8442" lon="4.72434">
        <ele>233.74</ele>
        <time>2014-01-25T16:25:58Z</time>
      </trkpt>
      <trkpt lat="45.84424" lon="4.72439">
        <ele>233.74</ele>
        <time>2014-01-25T16:25:59Z</time>
      </trkpt>
      <trkpt lat="45.84432" lon="4.72447">
        <ele>234.7</ele>
        <time>2014-01-25T16:26:01Z</time>
      </trkpt>
      <trkpt lat="45.84436" lon="4.72449">
        <ele>234.22</ele>
        <time>2014-01-25T16:26:02Z</time>
      </trkpt>
      <trkpt lat="45.84442" lon="4.7245">
        <ele>234.22</ele>
        <time>2014-01-25T16:26:03Z</time>
      </trkpt>
      <trkpt lat="45.84447" lon="4.7245">
        <ele>234.22</ele>
        <time>2014-01-25T16:26:04Z</time>
      </trkpt>
      <trkpt lat="45.84453" lon="4.72449">
        <ele>234.7</ele>
        <time>2014-01-25T16:26:05Z</time>
      </trkpt>
      <trkpt lat="45.84458" lon="4.7245">
        <ele>234.22</ele>
        <time>2014-01-25T16:26:06Z</time>
      </trkpt>
      <trkpt lat="45.84463" lon="4.72454">
        <ele>234.7</ele>
        <time>2014-01-25T16:26:07Z</time>
      </trkpt>
      <trkpt lat="45.84466" lon="4.7246">
        <ele>235.18</ele>
        <time>2014-01-25T16:26:08Z</time>
      </trkpt>
      <trkpt lat="45.84468" lon="4.72467">
        <ele>234.7</ele>
        <time>2014-01-25T16:26:09Z</time>
      </trkpt>
      <trkpt lat="45.84469" lon="4.72474">
        <ele>235.18</ele>
        <time>2014-01-25T16:26:10Z</time>
      </trkpt>
      <trkpt lat="45.8447" lon="4.72481">
        <ele>235.18</ele>
        <time>2014-01-25T16:26:11Z</time>
      </trkpt>
      <trkpt lat="45.84472" lon="4.72493">
        <ele>235.66</ele>
        <time>2014-01-25T16:26:13Z</time>
      </trkpt>
      <trkpt lat="45.84489" lon="4.72549">
        <ele>237.58</ele>
        <time>2014-01-25T16:26:25Z</time>
      </trkpt>
      <trkpt lat="45.84512" lon="4.72576">
        <ele>239.02</ele>
        <time>2014-01-25T16:26:35Z</time>
      </trkpt>
      <trkpt lat="45.84527" lon="4.726">
        <ele>239.51</ele>
        <time>2014-01-25T16:26:43Z</time>
      </trkpt>
      <trkpt lat="45.8453" lon="4.726">
        <ele>239.99</ele>
        <time>2014-01-25T16:26:44Z</time>
      </trkpt>
      <trkpt lat="45.84532" lon="4.726">
        <ele>240.47</ele>
        <time>2014-01-25T16:26:45Z</time>
      </trkpt>
      <trkpt lat="45.84534" lon="4.726">
        <ele>240.47</ele>
        <time>2014-01-25T16:26:46Z</time>
      </trkpt>
      <trkpt lat="45.84536" lon="4.72599">
        <ele>240.47</ele>
        <time>2014-01-25T16:26:47Z</time>
      </trkpt>
      <trkpt lat="45.84538" lon="4.72599">
        <ele>240.95</ele>
        <time>2014-01-25T16:26:48Z</time>
      </trkpt>
      <trkpt lat="45.84554" lon="4.72604">
        <ele>242.87</ele>
        <time>2014-01-25T16:26:57Z</time>
      </trkpt>
      <trkpt lat="45.84569" lon="4.72601">
        <ele>244.31</ele>
        <time>2014-01-25T16:27:07Z</time>
      </trkpt>
      <trkpt lat="45.84576" lon="4.72595">
        <ele>245.75</ele>
        <time>2014-01-25T16:27:13Z</time>
      </trkpt>
      <trkpt lat="45.84576" lon="4.72593">
        <ele>245.27</ele>
        <time>2014-01-25T16:27:14Z</time>
      </trkpt>
      <trkpt lat="45.84577" lon="4.72591">
        <ele>245.75</ele>
        <time>2014-01-25T16:27:15Z</time>
      </trkpt>
      <trkpt lat="45.84578" lon="4.72589">
        <ele>246.23</ele>
        <time>2014-01-25T16:27:16Z</time>
      </trkpt>
      <trkpt lat="45.84578" lon="4.72587">
        <ele>246.23</ele>
        <time>2014-01-25T16:27:17Z</time>
      </trkpt>
      <trkpt lat="45.84579" lon="4.72581">
        <ele>247.68</ele>
        <time>2014-01-25T16:27:20Z</time>
      </trkpt>
      <trkpt lat="45.84579" lon="4.72577">
        <ele>247.68</ele>
        <time>2014-01-25T16:27:22Z</time>
      </trkpt>
      <trkpt lat="45.84579" lon="4.72575">
        <ele>247.2</ele>
        <time>2014-01-25T16:27:23Z</time>
      </trkpt>
      <trkpt lat="45.84578" lon="4.72573">
        <ele>247.68</ele>
        <time>2014-01-25T16:27:24Z</time>
      </trkpt>
      <trkpt lat="45.84578" lon="4.72571">
        <ele>248.64</ele>
        <time>2014-01-25T16:27:25Z</time>
      </trkpt>
      <trkpt lat="45.84578" lon="4.72569">
        <ele>248.16</ele>
        <time>2014-01-25T16:27:26Z</time>
      </trkpt>
      <trkpt lat="45.84579" lon="4.72567">
        <ele>248.16</ele>
        <time>2014-01-25T16:27:27Z</time>
      </trkpt>
      <trkpt lat="45.84579" lon="4.72565">
        <ele>248.64</ele>
        <time>2014-01-25T16:27:28Z</time>
      </trkpt>
      <trkpt lat="45.84579" lon="4.72556">
        <ele>250.08</ele>
        <time>2014-01-25T16:27:33Z</time>
      </trkpt>
      <trkpt lat="45.8458" lon="4.72554">
        <ele>250.08</ele>
        <time>2014-01-25T16:27:34Z</time>
      </trkpt>
      <trkpt lat="45.8458" lon="4.72552">
        <ele>250.56</ele>
        <time>2014-01-25T16:27:35Z</time>
      </trkpt>
      <trkpt lat="45.8458" lon="4.7255">
        <ele>251.04</ele>
        <time>2014-01-25T16:27:36Z</time>
      </trkpt>
      <trkpt lat="45.8458" lon="4.72548">
        <ele>251.04</ele>
        <time>2014-01-25T16:27:37Z</time>
      </trkpt>
      <trkpt lat="45.8458" lon="4.72546">
        <ele>251.04</ele>
        <time>2014-01-25T16:27:38Z</time>
      </trkpt>
      <trkpt lat="45.8458" lon="4.72544">
        <ele>251.52</ele>
        <time>2014-01-25T16:27:39Z</time>
      </trkpt>
      <trkpt lat="45.84581" lon="4.72542">
        <ele>251.52</ele>
        <time>2014-01-25T16:27:40Z</time>
      </trkpt>
      <trkpt lat="45.84583" lon="4.72538">
        <ele>252</ele>
        <time>2014-01-25T16:27:43Z</time>
      </trkpt>
      <trkpt lat="45.84584" lon="4.72537">
        <ele>252.48</ele>
        <time>2014-01-25T16:27:44Z</time>
      </trkpt>
      <trkpt lat="45.84601" lon="4.72536">
        <ele>253.44</ele>
        <time>2014-01-25T16:27:56Z</time>
      </trkpt>
      <trkpt lat="45.84605" lon="4.72536">
        <ele>253.44</ele>
        <time>2014-01-25T16:27:59Z</time>
      </trkpt>
      <trkpt lat="45.84607" lon="4.72536">
        <ele>253.44</ele>
        <time>2014-01-25T16:28:00Z</time>
      </trkpt>
      <trkpt lat="45.84624" lon="4.72538">
        <ele>254.41</ele>
        <time>2014-01-25T16:28:12Z</time>
      </trkpt>
      <trkpt lat="45.84641" lon="4.7254">
        <ele>255.85</ele>
        <time>2014-01-25T16:28:24Z</time>
      </trkpt>
      <trkpt lat="45.84653" lon="4.72542">
        <ele>256.81</ele>
        <time>2014-01-25T16:28:33Z</time>
      </trkpt>
      <trkpt lat="45.84666" lon="4.72542">
        <ele>258.25</ele>
        <time>2014-01-25T16:28:42Z</time>
      </trkpt>
      <trkpt lat="45.84684" lon="4.72544">
        <ele>261.14</ele>
        <time>2014-01-25T16:28:55Z</time>
      </trkpt>
      <trkpt lat="45.847" lon="4.72544">
        <ele>263.54</ele>
        <time>2014-01-25T16:29:07Z</time>
      </trkpt>
      <trkpt lat="45.84702" lon="4.72546">
        <ele>264.02</ele>
        <time>2014-01-25T16:29:09Z</time>
      </trkpt>
      <trkpt lat="45.84703" lon="4.72548">
        <ele>264.02</ele>
        <time>2014-01-25T16:29:10Z</time>
      </trkpt>
      <trkpt lat="45.84703" lon="4.72549">
        <ele>264.5</ele>
        <time>2014-01-25T16:29:11Z</time>
      </trkpt>
      <trkpt lat="45.84704" lon="4.72551">
        <ele>264.5</ele>
        <time>2014-01-25T16:29:12Z</time>
      </trkpt>
      <trkpt lat="45.84705" lon="4.72553">
        <ele>264.5</ele>
        <time>2014-01-25T16:29:13Z</time>
      </trkpt>
      <trkpt lat="45.84709" lon="4.72565">
        <ele>265.46</ele>
        <time>2014-01-25T16:29:23Z</time>
      </trkpt>
      <trkpt lat="45.8471" lon="4.72566">
        <ele>265.94</ele>
        <time>2014-01-25T16:29:34Z</time>
      </trkpt>
      <trkpt lat="45.84711" lon="4.72568">
        <ele>265.46</ele>
        <time>2014-01-25T16:29:44Z</time>
      </trkpt>
      <trkpt lat="45.8471" lon="4.72568">
        <ele>269.31</ele>
        <time>2014-01-25T16:29:52Z</time>
      </trkpt>
      <trkpt lat="45.8471" lon="4.72568">
        <ele>265.94</ele>
        <time>2014-01-25T16:29:54Z</time>
      </trkpt>
      <trkpt lat="45.8471" lon="4.72568">
        <ele>265.94</ele>
        <time>2014-01-25T16:29:55Z</time>
      </trkpt>
      <trkpt lat="45.84715" lon="4.72577">
        <ele>267.38</ele>
        <time>2014-01-25T16:30:04Z</time>
      </trkpt>
      <trkpt lat="45.84717" lon="4.72582">
        <ele>268.83</ele>
        <time>2014-01-25T16:30:11Z</time>
      </trkpt>
      <trkpt lat="45.8472" lon="4.7259">
        <ele>269.79</ele>
        <time>2014-01-25T16:30:21Z</time>
      </trkpt>
      <trkpt lat="45.84727" lon="4.72598">
        <ele>272.19</ele>
        <time>2014-01-25T16:30:34Z</time>
      </trkpt>
      <trkpt lat="45.84729" lon="4.72603">
        <ele>273.15</ele>
        <time>2014-01-25T16:30:43Z</time>
      </trkpt>
      <trkpt lat="45.84729" lon="4.72604">
        <ele>273.63</ele>
        <time>2014-01-25T16:30:54Z</time>
      </trkpt>
      <trkpt lat="45.84729" lon="4.72604">
        <ele>273.15</ele>
        <time>2014-01-25T16:31:21Z</time>
      </trkpt>
      <trkpt lat="45.84729" lon="4.72604">
        <ele>273.15</ele>
        <time>2014-01-25T16:31:48Z</time>
      </trkpt>
      <trkpt lat="45.84729" lon="4.72604">
        <ele>273.63</ele>
        <time>2014-01-25T16:32:15Z</time>
      </trkpt>
      <trkpt lat="45.84729" lon="4.72604">
        <ele>273.15</ele>
        <time>2014-01-25T16:32:44Z</time>
      </trkpt>
      <trkpt lat="45.84729" lon="4.72604">
        <ele>272.67</ele>
        <time>2014-01-25T16:33:17Z</time>
      </trkpt>
      <trkpt lat="45.84729" lon="4.72604">
        <ele>272.67</ele>
        <time>2014-01-25T16:33:43Z</time>
      </trkpt>
      <trkpt lat="45.84729" lon="4.72604">
        <ele>272.67</ele>
        <time>2014-01-25T16:34:13Z</time>
      </trkpt>
      <trkpt lat="45.84729" lon="4.72604">
        <ele>272.67</ele>
        <time>2014-01-25T16:34:41Z</time>
      </trkpt>
      <trkpt lat="45.84729" lon="4.72604">
        <ele>271.71</ele>
        <time>2014-01-25T16:35:05Z</time>
      </trkpt>
      <trkpt lat="45.84728" lon="4.72604">
        <ele>272.67</ele>
        <time>2014-01-25T16:35:20Z</time>
      </trkpt>
      <trkpt lat="45.84728" lon="4.72604">
        <ele>264.98</ele>
        <time>2014-01-25T16:35:22Z</time>
      </trkpt>
      <trkpt lat="45.84728" lon="4.72604">
        <ele>274.59</ele>
        <time>2014-01-25T16:35:23Z</time>
      </trkpt>
      <trkpt lat="45.84728" lon="4.72604">
        <ele>269.79</ele>
        <time>2014-01-25T16:35:24Z</time>
      </trkpt>
    </trkseg>
  </trk>
</gpx>